<?xml version="1.0" encoding="UTF-8" standalone="no" ?>
<gpx xmlns="http://www.topografix.com/GPX/1/1" xmlns:xsi="http://www.w3.org/2001/XMLSchema-instance" xsi:schemaLocation="http://www.topografix.com/GPX/1/1 http://www.topografix.com/GPX/1/1/gpx.xsd" version="1.1" creator="VisuGPX - https://www.visugpx.com">
  <metadata>
    <name>les ebats par la crete</name>
    <desc><![CDATA[rando assez facile , un peu de passage dans la foret et jolie panorama quand on est sur la crête. ]]></desc>
  </metadata>
  <trk>
    <name><![CDATA[les ebats par la crete_1]]></name>
    <trkseg>
      <trkpt lat="45.69398" lon="6.00532">
        <ele>1235</ele>
        <time>2012-02-09T10:47:20Z</time>
      </trkpt>
      <trkpt lat="45.69396" lon="6.00492">
        <ele>1234</ele>
        <time>2012-02-09T10:48:14Z</time>
      </trkpt>
      <trkpt lat="45.69395" lon="6.00488">
        <ele>1234</ele>
        <time>2012-02-09T10:48:16Z</time>
      </trkpt>
      <trkpt lat="45.69393" lon="6.00481">
        <ele>1234</ele>
        <time>2012-02-09T10:48:19Z</time>
      </trkpt>
      <trkpt lat="45.69392" lon="6.00477">
        <ele>1234</ele>
        <time>2012-02-09T10:48:21Z</time>
      </trkpt>
      <trkpt lat="45.69392" lon="6.00471">
        <ele>1234</ele>
        <time>2012-02-09T10:48:25Z</time>
      </trkpt>
      <trkpt lat="45.69393" lon="6.00471">
        <ele>1234</ele>
        <time>2012-02-09T10:48:28Z</time>
      </trkpt>
      <trkpt lat="45.69395" lon="6.00472">
        <ele>1234</ele>
        <time>2012-02-09T10:48:31Z</time>
      </trkpt>
      <trkpt lat="45.69396" lon="6.00474">
        <ele>1231</ele>
        <time>2012-02-09T10:48:44Z</time>
      </trkpt>
      <trkpt lat="45.69397" lon="6.00475">
        <ele>1230</ele>
        <time>2012-02-09T10:48:50Z</time>
      </trkpt>
      <trkpt lat="45.69397" lon="6.00473">
        <ele>1230</ele>
        <time>2012-02-09T10:48:57Z</time>
      </trkpt>
      <trkpt lat="45.69395" lon="6.00471">
        <ele>1230</ele>
        <time>2012-02-09T10:49:05Z</time>
      </trkpt>
      <trkpt lat="45.69397" lon="6.00474">
        <ele>1230</ele>
        <time>2012-02-09T10:49:09Z</time>
      </trkpt>
      <trkpt lat="45.69395" lon="6.00472">
        <ele>1230</ele>
        <time>2012-02-09T10:49:15Z</time>
      </trkpt>
      <trkpt lat="45.69394" lon="6.00472">
        <ele>1230</ele>
        <time>2012-02-09T10:49:19Z</time>
      </trkpt>
      <trkpt lat="45.69395" lon="6.00472">
        <ele>1230</ele>
        <time>2012-02-09T10:49:25Z</time>
      </trkpt>
      <trkpt lat="45.69396" lon="6.00474">
        <ele>1230</ele>
        <time>2012-02-09T10:49:32Z</time>
      </trkpt>
      <trkpt lat="45.69398" lon="6.00476">
        <ele>1230</ele>
        <time>2012-02-09T10:49:35Z</time>
      </trkpt>
      <trkpt lat="45.694" lon="6.00478">
        <ele>1230</ele>
        <time>2012-02-09T10:49:37Z</time>
      </trkpt>
      <trkpt lat="45.69398" lon="6.00477">
        <ele>1230</ele>
        <time>2012-02-09T10:49:44Z</time>
      </trkpt>
      <trkpt lat="45.69398" lon="6.00475">
        <ele>1230</ele>
        <time>2012-02-09T10:49:53Z</time>
      </trkpt>
      <trkpt lat="45.69398" lon="6.00472">
        <ele>1230</ele>
        <time>2012-02-09T10:49:56Z</time>
      </trkpt>
      <trkpt lat="45.69396" lon="6.00469">
        <ele>1230</ele>
        <time>2012-02-09T10:50:02Z</time>
      </trkpt>
      <trkpt lat="45.69397" lon="6.00468">
        <ele>1231</ele>
        <time>2012-02-09T10:50:28Z</time>
      </trkpt>
      <trkpt lat="45.69398" lon="6.00469">
        <ele>1232</ele>
        <time>2012-02-09T10:50:30Z</time>
      </trkpt>
      <trkpt lat="45.694" lon="6.00469">
        <ele>1232</ele>
        <time>2012-02-09T10:50:32Z</time>
      </trkpt>
      <trkpt lat="45.69401" lon="6.0047">
        <ele>1233</ele>
        <time>2012-02-09T10:50:34Z</time>
      </trkpt>
      <trkpt lat="45.69402" lon="6.00471">
        <ele>1233</ele>
        <time>2012-02-09T10:50:36Z</time>
      </trkpt>
      <trkpt lat="45.69405" lon="6.00473">
        <ele>1234</ele>
        <time>2012-02-09T10:50:42Z</time>
      </trkpt>
      <trkpt lat="45.69407" lon="6.00473">
        <ele>1235</ele>
        <time>2012-02-09T10:50:44Z</time>
      </trkpt>
      <trkpt lat="45.69408" lon="6.00475">
        <ele>1235</ele>
        <time>2012-02-09T10:50:46Z</time>
      </trkpt>
      <trkpt lat="45.69411" lon="6.00477">
        <ele>1236</ele>
        <time>2012-02-09T10:50:50Z</time>
      </trkpt>
      <trkpt lat="45.69412" lon="6.00477">
        <ele>1236</ele>
        <time>2012-02-09T10:50:52Z</time>
      </trkpt>
      <trkpt lat="45.69413" lon="6.00479">
        <ele>1237</ele>
        <time>2012-02-09T10:50:55Z</time>
      </trkpt>
      <trkpt lat="45.69415" lon="6.0048">
        <ele>1238</ele>
        <time>2012-02-09T10:50:57Z</time>
      </trkpt>
      <trkpt lat="45.69416" lon="6.0048">
        <ele>1238</ele>
        <time>2012-02-09T10:50:59Z</time>
      </trkpt>
      <trkpt lat="45.69417" lon="6.00481">
        <ele>1238</ele>
        <time>2012-02-09T10:51:01Z</time>
      </trkpt>
      <trkpt lat="45.69419" lon="6.00482">
        <ele>1239</ele>
        <time>2012-02-09T10:51:04Z</time>
      </trkpt>
      <trkpt lat="45.69421" lon="6.00483">
        <ele>1239</ele>
        <time>2012-02-09T10:51:07Z</time>
      </trkpt>
      <trkpt lat="45.69422" lon="6.00483">
        <ele>1239</ele>
        <time>2012-02-09T10:51:09Z</time>
      </trkpt>
      <trkpt lat="45.69422" lon="6.0048">
        <ele>1239</ele>
        <time>2012-02-09T10:51:11Z</time>
      </trkpt>
      <trkpt lat="45.69423" lon="6.00477">
        <ele>1240</ele>
        <time>2012-02-09T10:51:20Z</time>
      </trkpt>
      <trkpt lat="45.69423" lon="6.00475">
        <ele>1240</ele>
        <time>2012-02-09T10:51:22Z</time>
      </trkpt>
      <trkpt lat="45.69423" lon="6.00473">
        <ele>1241</ele>
        <time>2012-02-09T10:51:24Z</time>
      </trkpt>
      <trkpt lat="45.69423" lon="6.00471">
        <ele>1241</ele>
        <time>2012-02-09T10:51:26Z</time>
      </trkpt>
      <trkpt lat="45.69423" lon="6.00468">
        <ele>1242</ele>
        <time>2012-02-09T10:51:30Z</time>
      </trkpt>
      <trkpt lat="45.69423" lon="6.00466">
        <ele>1242</ele>
        <time>2012-02-09T10:51:33Z</time>
      </trkpt>
      <trkpt lat="45.69423" lon="6.00464">
        <ele>1242</ele>
        <time>2012-02-09T10:51:35Z</time>
      </trkpt>
      <trkpt lat="45.69423" lon="6.00462">
        <ele>1243</ele>
        <time>2012-02-09T10:51:37Z</time>
      </trkpt>
      <trkpt lat="45.69423" lon="6.0046">
        <ele>1243</ele>
        <time>2012-02-09T10:51:39Z</time>
      </trkpt>
      <trkpt lat="45.69423" lon="6.00459">
        <ele>1243</ele>
        <time>2012-02-09T10:51:41Z</time>
      </trkpt>
      <trkpt lat="45.69423" lon="6.00456">
        <ele>1243</ele>
        <time>2012-02-09T10:51:45Z</time>
      </trkpt>
      <trkpt lat="45.69423" lon="6.00453">
        <ele>1244</ele>
        <time>2012-02-09T10:51:47Z</time>
      </trkpt>
      <trkpt lat="45.69424" lon="6.00452">
        <ele>1244</ele>
        <time>2012-02-09T10:51:49Z</time>
      </trkpt>
      <trkpt lat="45.69424" lon="6.0045">
        <ele>1245</ele>
        <time>2012-02-09T10:51:51Z</time>
      </trkpt>
      <trkpt lat="45.69425" lon="6.00448">
        <ele>1246</ele>
        <time>2012-02-09T10:51:59Z</time>
      </trkpt>
      <trkpt lat="45.69426" lon="6.00449">
        <ele>1247</ele>
        <time>2012-02-09T10:52:02Z</time>
      </trkpt>
      <trkpt lat="45.69428" lon="6.0045">
        <ele>1248</ele>
        <time>2012-02-09T10:52:04Z</time>
      </trkpt>
      <trkpt lat="45.69429" lon="6.00451">
        <ele>1248</ele>
        <time>2012-02-09T10:52:07Z</time>
      </trkpt>
      <trkpt lat="45.69431" lon="6.00452">
        <ele>1249</ele>
        <time>2012-02-09T10:52:10Z</time>
      </trkpt>
      <trkpt lat="45.69431" lon="6.0045">
        <ele>1250</ele>
        <time>2012-02-09T10:52:16Z</time>
      </trkpt>
      <trkpt lat="45.69431" lon="6.00448">
        <ele>1250</ele>
        <time>2012-02-09T10:52:20Z</time>
      </trkpt>
      <trkpt lat="45.69431" lon="6.00446">
        <ele>1250</ele>
        <time>2012-02-09T10:52:23Z</time>
      </trkpt>
      <trkpt lat="45.69431" lon="6.00444">
        <ele>1250</ele>
        <time>2012-02-09T10:52:25Z</time>
      </trkpt>
      <trkpt lat="45.69431" lon="6.0044">
        <ele>1250</ele>
        <time>2012-02-09T10:52:28Z</time>
      </trkpt>
      <trkpt lat="45.69431" lon="6.00438">
        <ele>1250</ele>
        <time>2012-02-09T10:52:30Z</time>
      </trkpt>
      <trkpt lat="45.69431" lon="6.00436">
        <ele>1250</ele>
        <time>2012-02-09T10:52:32Z</time>
      </trkpt>
      <trkpt lat="45.69431" lon="6.00434">
        <ele>1250</ele>
        <time>2012-02-09T10:52:34Z</time>
      </trkpt>
      <trkpt lat="45.69431" lon="6.00432">
        <ele>1251</ele>
        <time>2012-02-09T10:52:37Z</time>
      </trkpt>
      <trkpt lat="45.69431" lon="6.0043">
        <ele>1252</ele>
        <time>2012-02-09T10:52:39Z</time>
      </trkpt>
      <trkpt lat="45.69431" lon="6.00429">
        <ele>1253</ele>
        <time>2012-02-09T10:52:41Z</time>
      </trkpt>
      <trkpt lat="45.69431" lon="6.00427">
        <ele>1253</ele>
        <time>2012-02-09T10:52:44Z</time>
      </trkpt>
      <trkpt lat="45.69431" lon="6.00425">
        <ele>1255</ele>
        <time>2012-02-09T10:52:51Z</time>
      </trkpt>
      <trkpt lat="45.69431" lon="6.00422">
        <ele>1255</ele>
        <time>2012-02-09T10:52:56Z</time>
      </trkpt>
      <trkpt lat="45.6943" lon="6.0042">
        <ele>1255</ele>
        <time>2012-02-09T10:52:59Z</time>
      </trkpt>
      <trkpt lat="45.69429" lon="6.00418">
        <ele>1255</ele>
        <time>2012-02-09T10:53:01Z</time>
      </trkpt>
      <trkpt lat="45.69428" lon="6.00414">
        <ele>1255</ele>
        <time>2012-02-09T10:53:05Z</time>
      </trkpt>
      <trkpt lat="45.69428" lon="6.00411">
        <ele>1255</ele>
        <time>2012-02-09T10:53:07Z</time>
      </trkpt>
      <trkpt lat="45.69428" lon="6.0041">
        <ele>1256</ele>
        <time>2012-02-09T10:53:09Z</time>
      </trkpt>
      <trkpt lat="45.69429" lon="6.0041">
        <ele>1257</ele>
        <time>2012-02-09T10:53:17Z</time>
      </trkpt>
      <trkpt lat="45.69431" lon="6.00411">
        <ele>1258</ele>
        <time>2012-02-09T10:53:19Z</time>
      </trkpt>
      <trkpt lat="45.69432" lon="6.00411">
        <ele>1258</ele>
        <time>2012-02-09T10:53:22Z</time>
      </trkpt>
      <trkpt lat="45.69434" lon="6.00413">
        <ele>1259</ele>
        <time>2012-02-09T10:53:25Z</time>
      </trkpt>
      <trkpt lat="45.69435" lon="6.00414">
        <ele>1259</ele>
        <time>2012-02-09T10:53:27Z</time>
      </trkpt>
      <trkpt lat="45.69436" lon="6.00415">
        <ele>1260</ele>
        <time>2012-02-09T10:53:29Z</time>
      </trkpt>
      <trkpt lat="45.69437" lon="6.00416">
        <ele>1260</ele>
        <time>2012-02-09T10:53:31Z</time>
      </trkpt>
      <trkpt lat="45.6944" lon="6.00417">
        <ele>1261</ele>
        <time>2012-02-09T10:53:36Z</time>
      </trkpt>
      <trkpt lat="45.69443" lon="6.00415">
        <ele>1262</ele>
        <time>2012-02-09T10:53:40Z</time>
      </trkpt>
      <trkpt lat="45.69443" lon="6.00414">
        <ele>1262</ele>
        <time>2012-02-09T10:53:42Z</time>
      </trkpt>
      <trkpt lat="45.69443" lon="6.00411">
        <ele>1262</ele>
        <time>2012-02-09T10:53:44Z</time>
      </trkpt>
      <trkpt lat="45.69442" lon="6.00407">
        <ele>1262</ele>
        <time>2012-02-09T10:53:48Z</time>
      </trkpt>
      <trkpt lat="45.69441" lon="6.00405">
        <ele>1263</ele>
        <time>2012-02-09T10:53:50Z</time>
      </trkpt>
      <trkpt lat="45.6944" lon="6.00403">
        <ele>1263</ele>
        <time>2012-02-09T10:53:52Z</time>
      </trkpt>
      <trkpt lat="45.69439" lon="6.00401">
        <ele>1263</ele>
        <time>2012-02-09T10:53:54Z</time>
      </trkpt>
      <trkpt lat="45.69437" lon="6.00401">
        <ele>1263</ele>
        <time>2012-02-09T10:53:56Z</time>
      </trkpt>
      <trkpt lat="45.69436" lon="6.00396">
        <ele>1263</ele>
        <time>2012-02-09T10:54:00Z</time>
      </trkpt>
      <trkpt lat="45.69437" lon="6.00393">
        <ele>1263</ele>
        <time>2012-02-09T10:54:02Z</time>
      </trkpt>
      <trkpt lat="45.69437" lon="6.00389">
        <ele>1263</ele>
        <time>2012-02-09T10:54:05Z</time>
      </trkpt>
      <trkpt lat="45.69438" lon="6.00387">
        <ele>1263</ele>
        <time>2012-02-09T10:54:07Z</time>
      </trkpt>
      <trkpt lat="45.69438" lon="6.00385">
        <ele>1263</ele>
        <time>2012-02-09T10:54:09Z</time>
      </trkpt>
      <trkpt lat="45.69439" lon="6.00383">
        <ele>1264</ele>
        <time>2012-02-09T10:54:12Z</time>
      </trkpt>
      <trkpt lat="45.69439" lon="6.00382">
        <ele>1264</ele>
        <time>2012-02-09T10:54:14Z</time>
      </trkpt>
      <trkpt lat="45.69439" lon="6.00379">
        <ele>1265</ele>
        <time>2012-02-09T10:54:16Z</time>
      </trkpt>
      <trkpt lat="45.69438" lon="6.00376">
        <ele>1265</ele>
        <time>2012-02-09T10:54:25Z</time>
      </trkpt>
      <trkpt lat="45.69438" lon="6.00374">
        <ele>1265</ele>
        <time>2012-02-09T10:54:28Z</time>
      </trkpt>
      <trkpt lat="45.69437" lon="6.00372">
        <ele>1266</ele>
        <time>2012-02-09T10:54:31Z</time>
      </trkpt>
      <trkpt lat="45.69437" lon="6.0037">
        <ele>1267</ele>
        <time>2012-02-09T10:54:35Z</time>
      </trkpt>
      <trkpt lat="45.69437" lon="6.00369">
        <ele>1268</ele>
        <time>2012-02-09T10:54:38Z</time>
      </trkpt>
      <trkpt lat="45.69437" lon="6.00367">
        <ele>1268</ele>
        <time>2012-02-09T10:54:40Z</time>
      </trkpt>
      <trkpt lat="45.69437" lon="6.00365">
        <ele>1268</ele>
        <time>2012-02-09T10:54:42Z</time>
      </trkpt>
      <trkpt lat="45.69437" lon="6.00363">
        <ele>1268</ele>
        <time>2012-02-09T10:54:44Z</time>
      </trkpt>
      <trkpt lat="45.69437" lon="6.00361">
        <ele>1268</ele>
        <time>2012-02-09T10:54:46Z</time>
      </trkpt>
      <trkpt lat="45.69436" lon="6.00357">
        <ele>1268</ele>
        <time>2012-02-09T10:54:50Z</time>
      </trkpt>
      <trkpt lat="45.69436" lon="6.00355">
        <ele>1268</ele>
        <time>2012-02-09T10:54:52Z</time>
      </trkpt>
      <trkpt lat="45.69435" lon="6.00353">
        <ele>1269</ele>
        <time>2012-02-09T10:54:54Z</time>
      </trkpt>
      <trkpt lat="45.69435" lon="6.00351">
        <ele>1269</ele>
        <time>2012-02-09T10:54:56Z</time>
      </trkpt>
      <trkpt lat="45.69435" lon="6.00347">
        <ele>1269</ele>
        <time>2012-02-09T10:55:00Z</time>
      </trkpt>
      <trkpt lat="45.69435" lon="6.00345">
        <ele>1269</ele>
        <time>2012-02-09T10:55:02Z</time>
      </trkpt>
      <trkpt lat="45.69435" lon="6.00343">
        <ele>1270</ele>
        <time>2012-02-09T10:55:04Z</time>
      </trkpt>
      <trkpt lat="45.69435" lon="6.00341">
        <ele>1270</ele>
        <time>2012-02-09T10:55:06Z</time>
      </trkpt>
      <trkpt lat="45.69436" lon="6.00339">
        <ele>1271</ele>
        <time>2012-02-09T10:55:11Z</time>
      </trkpt>
      <trkpt lat="45.69435" lon="6.00336">
        <ele>1271</ele>
        <time>2012-02-09T10:55:15Z</time>
      </trkpt>
      <trkpt lat="45.69435" lon="6.00334">
        <ele>1271</ele>
        <time>2012-02-09T10:55:17Z</time>
      </trkpt>
      <trkpt lat="45.69435" lon="6.00332">
        <ele>1271</ele>
        <time>2012-02-09T10:55:19Z</time>
      </trkpt>
      <trkpt lat="45.69435" lon="6.00331">
        <ele>1271</ele>
        <time>2012-02-09T10:55:21Z</time>
      </trkpt>
      <trkpt lat="45.69434" lon="6.00327">
        <ele>1272</ele>
        <time>2012-02-09T10:55:25Z</time>
      </trkpt>
      <trkpt lat="45.69433" lon="6.00325">
        <ele>1272</ele>
        <time>2012-02-09T10:55:28Z</time>
      </trkpt>
      <trkpt lat="45.69432" lon="6.00323">
        <ele>1272</ele>
        <time>2012-02-09T10:55:30Z</time>
      </trkpt>
      <trkpt lat="45.69432" lon="6.00322">
        <ele>1273</ele>
        <time>2012-02-09T10:55:32Z</time>
      </trkpt>
      <trkpt lat="45.69432" lon="6.0032">
        <ele>1273</ele>
        <time>2012-02-09T10:55:34Z</time>
      </trkpt>
      <trkpt lat="45.69432" lon="6.00319">
        <ele>1273</ele>
        <time>2012-02-09T10:55:36Z</time>
      </trkpt>
      <trkpt lat="45.69431" lon="6.00315">
        <ele>1273</ele>
        <time>2012-02-09T10:55:40Z</time>
      </trkpt>
      <trkpt lat="45.69431" lon="6.00314">
        <ele>1273</ele>
        <time>2012-02-09T10:55:42Z</time>
      </trkpt>
      <trkpt lat="45.69431" lon="6.00312">
        <ele>1274</ele>
        <time>2012-02-09T10:55:45Z</time>
      </trkpt>
      <trkpt lat="45.69429" lon="6.00311">
        <ele>1274</ele>
        <time>2012-02-09T10:55:54Z</time>
      </trkpt>
      <trkpt lat="45.69429" lon="6.0031">
        <ele>1274</ele>
        <time>2012-02-09T10:56:05Z</time>
      </trkpt>
      <trkpt lat="45.69429" lon="6.00308">
        <ele>1274</ele>
        <time>2012-02-09T10:56:07Z</time>
      </trkpt>
      <trkpt lat="45.69429" lon="6.00306">
        <ele>1275</ele>
        <time>2012-02-09T10:56:09Z</time>
      </trkpt>
      <trkpt lat="45.69429" lon="6.00304">
        <ele>1275</ele>
        <time>2012-02-09T10:56:11Z</time>
      </trkpt>
      <trkpt lat="45.69429" lon="6.003">
        <ele>1276</ele>
        <time>2012-02-09T10:56:15Z</time>
      </trkpt>
      <trkpt lat="45.69429" lon="6.00299">
        <ele>1276</ele>
        <time>2012-02-09T10:56:17Z</time>
      </trkpt>
      <trkpt lat="45.6943" lon="6.00296">
        <ele>1277</ele>
        <time>2012-02-09T10:56:19Z</time>
      </trkpt>
      <trkpt lat="45.6943" lon="6.00295">
        <ele>1277</ele>
        <time>2012-02-09T10:56:21Z</time>
      </trkpt>
      <trkpt lat="45.6943" lon="6.00291">
        <ele>1278</ele>
        <time>2012-02-09T10:56:25Z</time>
      </trkpt>
      <trkpt lat="45.6943" lon="6.00289">
        <ele>1278</ele>
        <time>2012-02-09T10:56:27Z</time>
      </trkpt>
      <trkpt lat="45.6943" lon="6.00286">
        <ele>1278</ele>
        <time>2012-02-09T10:56:29Z</time>
      </trkpt>
      <trkpt lat="45.69431" lon="6.00285">
        <ele>1279</ele>
        <time>2012-02-09T10:56:31Z</time>
      </trkpt>
      <trkpt lat="45.69431" lon="6.00281">
        <ele>1280</ele>
        <time>2012-02-09T10:56:35Z</time>
      </trkpt>
      <trkpt lat="45.69432" lon="6.00279">
        <ele>1280</ele>
        <time>2012-02-09T10:56:37Z</time>
      </trkpt>
      <trkpt lat="45.69432" lon="6.00277">
        <ele>1280</ele>
        <time>2012-02-09T10:56:39Z</time>
      </trkpt>
      <trkpt lat="45.69432" lon="6.00275">
        <ele>1281</ele>
        <time>2012-02-09T10:56:41Z</time>
      </trkpt>
      <trkpt lat="45.69432" lon="6.00271">
        <ele>1282</ele>
        <time>2012-02-09T10:56:45Z</time>
      </trkpt>
      <trkpt lat="45.69432" lon="6.0027">
        <ele>1282</ele>
        <time>2012-02-09T10:56:47Z</time>
      </trkpt>
      <trkpt lat="45.69432" lon="6.00268">
        <ele>1283</ele>
        <time>2012-02-09T10:56:49Z</time>
      </trkpt>
      <trkpt lat="45.69433" lon="6.00266">
        <ele>1283</ele>
        <time>2012-02-09T10:56:54Z</time>
      </trkpt>
      <trkpt lat="45.69435" lon="6.00266">
        <ele>1283</ele>
        <time>2012-02-09T10:56:56Z</time>
      </trkpt>
      <trkpt lat="45.69437" lon="6.00265">
        <ele>1283</ele>
        <time>2012-02-09T10:57:00Z</time>
      </trkpt>
      <trkpt lat="45.69438" lon="6.00265">
        <ele>1284</ele>
        <time>2012-02-09T10:57:02Z</time>
      </trkpt>
      <trkpt lat="45.69439" lon="6.00265">
        <ele>1284</ele>
        <time>2012-02-09T10:57:04Z</time>
      </trkpt>
      <trkpt lat="45.69441" lon="6.00265">
        <ele>1284</ele>
        <time>2012-02-09T10:57:06Z</time>
      </trkpt>
      <trkpt lat="45.69445" lon="6.00264">
        <ele>1285</ele>
        <time>2012-02-09T10:57:11Z</time>
      </trkpt>
      <trkpt lat="45.69447" lon="6.00264">
        <ele>1286</ele>
        <time>2012-02-09T10:57:15Z</time>
      </trkpt>
      <trkpt lat="45.69449" lon="6.00265">
        <ele>1286</ele>
        <time>2012-02-09T10:57:18Z</time>
      </trkpt>
      <trkpt lat="45.6945" lon="6.00264">
        <ele>1287</ele>
        <time>2012-02-09T10:57:20Z</time>
      </trkpt>
      <trkpt lat="45.69452" lon="6.00263">
        <ele>1287</ele>
        <time>2012-02-09T10:57:25Z</time>
      </trkpt>
      <trkpt lat="45.69453" lon="6.00264">
        <ele>1287</ele>
        <time>2012-02-09T10:57:27Z</time>
      </trkpt>
      <trkpt lat="45.69454" lon="6.00265">
        <ele>1288</ele>
        <time>2012-02-09T10:57:30Z</time>
      </trkpt>
      <trkpt lat="45.69456" lon="6.00266">
        <ele>1288</ele>
        <time>2012-02-09T10:57:32Z</time>
      </trkpt>
      <trkpt lat="45.69457" lon="6.00266">
        <ele>1288</ele>
        <time>2012-02-09T10:57:34Z</time>
      </trkpt>
      <trkpt lat="45.69458" lon="6.00267">
        <ele>1288</ele>
        <time>2012-02-09T10:57:36Z</time>
      </trkpt>
      <trkpt lat="45.69461" lon="6.00269">
        <ele>1289</ele>
        <time>2012-02-09T10:57:40Z</time>
      </trkpt>
      <trkpt lat="45.69461" lon="6.0027">
        <ele>1290</ele>
        <time>2012-02-09T10:57:42Z</time>
      </trkpt>
      <trkpt lat="45.69463" lon="6.00271">
        <ele>1290</ele>
        <time>2012-02-09T10:57:44Z</time>
      </trkpt>
      <trkpt lat="45.69464" lon="6.00272">
        <ele>1291</ele>
        <time>2012-02-09T10:57:47Z</time>
      </trkpt>
      <trkpt lat="45.69466" lon="6.00274">
        <ele>1291</ele>
        <time>2012-02-09T10:57:49Z</time>
      </trkpt>
      <trkpt lat="45.69467" lon="6.00275">
        <ele>1292</ele>
        <time>2012-02-09T10:57:51Z</time>
      </trkpt>
      <trkpt lat="45.6947" lon="6.00278">
        <ele>1292</ele>
        <time>2012-02-09T10:57:55Z</time>
      </trkpt>
      <trkpt lat="45.69471" lon="6.00278">
        <ele>1292</ele>
        <time>2012-02-09T10:57:57Z</time>
      </trkpt>
      <trkpt lat="45.69473" lon="6.00279">
        <ele>1292</ele>
        <time>2012-02-09T10:57:59Z</time>
      </trkpt>
      <trkpt lat="45.69474" lon="6.00279">
        <ele>1292</ele>
        <time>2012-02-09T10:58:01Z</time>
      </trkpt>
      <trkpt lat="45.69476" lon="6.00279">
        <ele>1292</ele>
        <time>2012-02-09T10:58:03Z</time>
      </trkpt>
      <trkpt lat="45.69477" lon="6.0028">
        <ele>1292</ele>
        <time>2012-02-09T10:58:05Z</time>
      </trkpt>
      <trkpt lat="45.69478" lon="6.0028">
        <ele>1292</ele>
        <time>2012-02-09T10:58:07Z</time>
      </trkpt>
      <trkpt lat="45.69479" lon="6.00281">
        <ele>1292</ele>
        <time>2012-02-09T10:58:09Z</time>
      </trkpt>
      <trkpt lat="45.69481" lon="6.00281">
        <ele>1292</ele>
        <time>2012-02-09T10:58:11Z</time>
      </trkpt>
      <trkpt lat="45.69484" lon="6.00281">
        <ele>1292</ele>
        <time>2012-02-09T10:58:15Z</time>
      </trkpt>
      <trkpt lat="45.69485" lon="6.00282">
        <ele>1292</ele>
        <time>2012-02-09T10:58:17Z</time>
      </trkpt>
      <trkpt lat="45.69486" lon="6.00282">
        <ele>1293</ele>
        <time>2012-02-09T10:58:19Z</time>
      </trkpt>
      <trkpt lat="45.69487" lon="6.00282">
        <ele>1293</ele>
        <time>2012-02-09T10:58:23Z</time>
      </trkpt>
      <trkpt lat="45.69487" lon="6.00281">
        <ele>1293</ele>
        <time>2012-02-09T10:58:25Z</time>
      </trkpt>
      <trkpt lat="45.69487" lon="6.00279">
        <ele>1293</ele>
        <time>2012-02-09T10:58:27Z</time>
      </trkpt>
      <trkpt lat="45.69487" lon="6.00277">
        <ele>1293</ele>
        <time>2012-02-09T10:58:29Z</time>
      </trkpt>
      <trkpt lat="45.69487" lon="6.00275">
        <ele>1293</ele>
        <time>2012-02-09T10:58:31Z</time>
      </trkpt>
      <trkpt lat="45.69488" lon="6.0027">
        <ele>1293</ele>
        <time>2012-02-09T10:58:35Z</time>
      </trkpt>
      <trkpt lat="45.69487" lon="6.00268">
        <ele>1293</ele>
        <time>2012-02-09T10:58:37Z</time>
      </trkpt>
      <trkpt lat="45.69488" lon="6.00266">
        <ele>1294</ele>
        <time>2012-02-09T10:58:39Z</time>
      </trkpt>
      <trkpt lat="45.69488" lon="6.00264">
        <ele>1294</ele>
        <time>2012-02-09T10:58:41Z</time>
      </trkpt>
      <trkpt lat="45.69488" lon="6.0026">
        <ele>1294</ele>
        <time>2012-02-09T10:58:45Z</time>
      </trkpt>
      <trkpt lat="45.69488" lon="6.00258">
        <ele>1295</ele>
        <time>2012-02-09T10:58:47Z</time>
      </trkpt>
      <trkpt lat="45.69489" lon="6.00256">
        <ele>1295</ele>
        <time>2012-02-09T10:58:49Z</time>
      </trkpt>
      <trkpt lat="45.69489" lon="6.00254">
        <ele>1295</ele>
        <time>2012-02-09T10:58:51Z</time>
      </trkpt>
      <trkpt lat="45.69489" lon="6.00249">
        <ele>1295</ele>
        <time>2012-02-09T10:58:55Z</time>
      </trkpt>
      <trkpt lat="45.69489" lon="6.00247">
        <ele>1295</ele>
        <time>2012-02-09T10:58:57Z</time>
      </trkpt>
      <trkpt lat="45.69488" lon="6.00245">
        <ele>1295</ele>
        <time>2012-02-09T10:58:59Z</time>
      </trkpt>
      <trkpt lat="45.69487" lon="6.00243">
        <ele>1296</ele>
        <time>2012-02-09T10:59:01Z</time>
      </trkpt>
      <trkpt lat="45.69485" lon="6.00238">
        <ele>1296</ele>
        <time>2012-02-09T10:59:05Z</time>
      </trkpt>
      <trkpt lat="45.69485" lon="6.00236">
        <ele>1296</ele>
        <time>2012-02-09T10:59:07Z</time>
      </trkpt>
      <trkpt lat="45.69484" lon="6.00234">
        <ele>1297</ele>
        <time>2012-02-09T10:59:09Z</time>
      </trkpt>
      <trkpt lat="45.69484" lon="6.00231">
        <ele>1297</ele>
        <time>2012-02-09T10:59:11Z</time>
      </trkpt>
      <trkpt lat="45.69483" lon="6.00227">
        <ele>1298</ele>
        <time>2012-02-09T10:59:15Z</time>
      </trkpt>
      <trkpt lat="45.69482" lon="6.00225">
        <ele>1298</ele>
        <time>2012-02-09T10:59:17Z</time>
      </trkpt>
      <trkpt lat="45.69482" lon="6.00222">
        <ele>1299</ele>
        <time>2012-02-09T10:59:19Z</time>
      </trkpt>
      <trkpt lat="45.69482" lon="6.00221">
        <ele>1299</ele>
        <time>2012-02-09T10:59:21Z</time>
      </trkpt>
      <trkpt lat="45.69482" lon="6.00217">
        <ele>1300</ele>
        <time>2012-02-09T10:59:24Z</time>
      </trkpt>
      <trkpt lat="45.69483" lon="6.00215">
        <ele>1300</ele>
        <time>2012-02-09T10:59:26Z</time>
      </trkpt>
      <trkpt lat="45.69484" lon="6.00214">
        <ele>1300</ele>
        <time>2012-02-09T10:59:29Z</time>
      </trkpt>
      <trkpt lat="45.69485" lon="6.00212">
        <ele>1300</ele>
        <time>2012-02-09T10:59:32Z</time>
      </trkpt>
      <trkpt lat="45.69486" lon="6.0021">
        <ele>1300</ele>
        <time>2012-02-09T10:59:34Z</time>
      </trkpt>
      <trkpt lat="45.69486" lon="6.00208">
        <ele>1300</ele>
        <time>2012-02-09T10:59:36Z</time>
      </trkpt>
      <trkpt lat="45.69487" lon="6.00205">
        <ele>1301</ele>
        <time>2012-02-09T10:59:40Z</time>
      </trkpt>
      <trkpt lat="45.69487" lon="6.00203">
        <ele>1301</ele>
        <time>2012-02-09T10:59:42Z</time>
      </trkpt>
      <trkpt lat="45.69487" lon="6.00201">
        <ele>1302</ele>
        <time>2012-02-09T10:59:44Z</time>
      </trkpt>
      <trkpt lat="45.69487" lon="6.002">
        <ele>1302</ele>
        <time>2012-02-09T10:59:46Z</time>
      </trkpt>
      <trkpt lat="45.69488" lon="6.00197">
        <ele>1303</ele>
        <time>2012-02-09T10:59:49Z</time>
      </trkpt>
      <trkpt lat="45.69488" lon="6.00196">
        <ele>1303</ele>
        <time>2012-02-09T10:59:51Z</time>
      </trkpt>
      <trkpt lat="45.69489" lon="6.00192">
        <ele>1303</ele>
        <time>2012-02-09T10:59:55Z</time>
      </trkpt>
      <trkpt lat="45.69489" lon="6.0019">
        <ele>1303</ele>
        <time>2012-02-09T10:59:57Z</time>
      </trkpt>
      <trkpt lat="45.6949" lon="6.00186">
        <ele>1304</ele>
        <time>2012-02-09T11:00:01Z</time>
      </trkpt>
      <trkpt lat="45.69491" lon="6.00184">
        <ele>1304</ele>
        <time>2012-02-09T11:00:04Z</time>
      </trkpt>
      <trkpt lat="45.69492" lon="6.00182">
        <ele>1304</ele>
        <time>2012-02-09T11:00:06Z</time>
      </trkpt>
      <trkpt lat="45.69492" lon="6.0018">
        <ele>1304</ele>
        <time>2012-02-09T11:00:08Z</time>
      </trkpt>
      <trkpt lat="45.69492" lon="6.00178">
        <ele>1305</ele>
        <time>2012-02-09T11:00:11Z</time>
      </trkpt>
      <trkpt lat="45.69492" lon="6.00175">
        <ele>1305</ele>
        <time>2012-02-09T11:00:15Z</time>
      </trkpt>
      <trkpt lat="45.69492" lon="6.00174">
        <ele>1305</ele>
        <time>2012-02-09T11:00:17Z</time>
      </trkpt>
      <trkpt lat="45.69493" lon="6.00172">
        <ele>1305</ele>
        <time>2012-02-09T11:00:19Z</time>
      </trkpt>
      <trkpt lat="45.69493" lon="6.00171">
        <ele>1306</ele>
        <time>2012-02-09T11:00:21Z</time>
      </trkpt>
      <trkpt lat="45.69494" lon="6.00168">
        <ele>1307</ele>
        <time>2012-02-09T11:00:25Z</time>
      </trkpt>
      <trkpt lat="45.69495" lon="6.00166">
        <ele>1308</ele>
        <time>2012-02-09T11:00:27Z</time>
      </trkpt>
      <trkpt lat="45.69495" lon="6.00163">
        <ele>1309</ele>
        <time>2012-02-09T11:00:30Z</time>
      </trkpt>
      <trkpt lat="45.69495" lon="6.00161">
        <ele>1310</ele>
        <time>2012-02-09T11:00:32Z</time>
      </trkpt>
      <trkpt lat="45.69495" lon="6.0016">
        <ele>1310</ele>
        <time>2012-02-09T11:00:34Z</time>
      </trkpt>
      <trkpt lat="45.69496" lon="6.00157">
        <ele>1310</ele>
        <time>2012-02-09T11:00:36Z</time>
      </trkpt>
      <trkpt lat="45.69497" lon="6.00154">
        <ele>1311</ele>
        <time>2012-02-09T11:00:40Z</time>
      </trkpt>
      <trkpt lat="45.69497" lon="6.00152">
        <ele>1311</ele>
        <time>2012-02-09T11:00:42Z</time>
      </trkpt>
      <trkpt lat="45.69496" lon="6.0015">
        <ele>1312</ele>
        <time>2012-02-09T11:00:44Z</time>
      </trkpt>
      <trkpt lat="45.69496" lon="6.00148">
        <ele>1312</ele>
        <time>2012-02-09T11:00:46Z</time>
      </trkpt>
      <trkpt lat="45.69497" lon="6.00144">
        <ele>1313</ele>
        <time>2012-02-09T11:00:50Z</time>
      </trkpt>
      <trkpt lat="45.69497" lon="6.00142">
        <ele>1314</ele>
        <time>2012-02-09T11:00:52Z</time>
      </trkpt>
      <trkpt lat="45.69497" lon="6.0014">
        <ele>1315</ele>
        <time>2012-02-09T11:00:54Z</time>
      </trkpt>
      <trkpt lat="45.69498" lon="6.00139">
        <ele>1315</ele>
        <time>2012-02-09T11:00:56Z</time>
      </trkpt>
      <trkpt lat="45.69498" lon="6.00136">
        <ele>1316</ele>
        <time>2012-02-09T11:01:00Z</time>
      </trkpt>
      <trkpt lat="45.69498" lon="6.00134">
        <ele>1316</ele>
        <time>2012-02-09T11:01:02Z</time>
      </trkpt>
      <trkpt lat="45.69498" lon="6.00132">
        <ele>1317</ele>
        <time>2012-02-09T11:01:04Z</time>
      </trkpt>
      <trkpt lat="45.69498" lon="6.0013">
        <ele>1317</ele>
        <time>2012-02-09T11:01:06Z</time>
      </trkpt>
      <trkpt lat="45.69499" lon="6.00127">
        <ele>1317</ele>
        <time>2012-02-09T11:01:10Z</time>
      </trkpt>
      <trkpt lat="45.69499" lon="6.00125">
        <ele>1317</ele>
        <time>2012-02-09T11:01:13Z</time>
      </trkpt>
      <trkpt lat="45.69499" lon="6.00123">
        <ele>1317</ele>
        <time>2012-02-09T11:01:15Z</time>
      </trkpt>
      <trkpt lat="45.695" lon="6.00122">
        <ele>1317</ele>
        <time>2012-02-09T11:01:17Z</time>
      </trkpt>
      <trkpt lat="45.695" lon="6.0012">
        <ele>1317</ele>
        <time>2012-02-09T11:01:19Z</time>
      </trkpt>
      <trkpt lat="45.695" lon="6.00118">
        <ele>1317</ele>
        <time>2012-02-09T11:01:22Z</time>
      </trkpt>
      <trkpt lat="45.695" lon="6.00116">
        <ele>1317</ele>
        <time>2012-02-09T11:01:24Z</time>
      </trkpt>
      <trkpt lat="45.695" lon="6.00114">
        <ele>1317</ele>
        <time>2012-02-09T11:01:27Z</time>
      </trkpt>
      <trkpt lat="45.695" lon="6.00112">
        <ele>1317</ele>
        <time>2012-02-09T11:01:30Z</time>
      </trkpt>
      <trkpt lat="45.695" lon="6.0011">
        <ele>1317</ele>
        <time>2012-02-09T11:01:32Z</time>
      </trkpt>
      <trkpt lat="45.69499" lon="6.00108">
        <ele>1317</ele>
        <time>2012-02-09T11:01:34Z</time>
      </trkpt>
      <trkpt lat="45.69499" lon="6.00107">
        <ele>1317</ele>
        <time>2012-02-09T11:01:38Z</time>
      </trkpt>
      <trkpt lat="45.69499" lon="6.00105">
        <ele>1317</ele>
        <time>2012-02-09T11:01:40Z</time>
      </trkpt>
      <trkpt lat="45.695" lon="6.00104">
        <ele>1317</ele>
        <time>2012-02-09T11:01:43Z</time>
      </trkpt>
      <trkpt lat="45.695" lon="6.00103">
        <ele>1317</ele>
        <time>2012-02-09T11:01:45Z</time>
      </trkpt>
      <trkpt lat="45.69501" lon="6.00101">
        <ele>1317</ele>
        <time>2012-02-09T11:01:48Z</time>
      </trkpt>
      <trkpt lat="45.69501" lon="6.00099">
        <ele>1317</ele>
        <time>2012-02-09T11:02:02Z</time>
      </trkpt>
      <trkpt lat="45.695" lon="6.00098">
        <ele>1317</ele>
        <time>2012-02-09T11:02:04Z</time>
      </trkpt>
      <trkpt lat="45.69501" lon="6.00096">
        <ele>1317</ele>
        <time>2012-02-09T11:02:06Z</time>
      </trkpt>
      <trkpt lat="45.69501" lon="6.00094">
        <ele>1317</ele>
        <time>2012-02-09T11:02:09Z</time>
      </trkpt>
      <trkpt lat="45.69502" lon="6.00093">
        <ele>1317</ele>
        <time>2012-02-09T11:02:11Z</time>
      </trkpt>
      <trkpt lat="45.69501" lon="6.00089">
        <ele>1318</ele>
        <time>2012-02-09T11:02:15Z</time>
      </trkpt>
      <trkpt lat="45.69501" lon="6.00087">
        <ele>1319</ele>
        <time>2012-02-09T11:02:17Z</time>
      </trkpt>
      <trkpt lat="45.69501" lon="6.00085">
        <ele>1321</ele>
        <time>2012-02-09T11:02:22Z</time>
      </trkpt>
      <trkpt lat="45.695" lon="6.00084">
        <ele>1321</ele>
        <time>2012-02-09T11:02:25Z</time>
      </trkpt>
      <trkpt lat="45.69501" lon="6.00082">
        <ele>1321</ele>
        <time>2012-02-09T11:02:29Z</time>
      </trkpt>
      <trkpt lat="45.69501" lon="6.00084">
        <ele>1321</ele>
        <time>2012-02-09T11:02:36Z</time>
      </trkpt>
      <trkpt lat="45.69502" lon="6.00086">
        <ele>1321</ele>
        <time>2012-02-09T11:02:39Z</time>
      </trkpt>
      <trkpt lat="45.69503" lon="6.00087">
        <ele>1321</ele>
        <time>2012-02-09T11:02:41Z</time>
      </trkpt>
      <trkpt lat="45.69504" lon="6.00089">
        <ele>1321</ele>
        <time>2012-02-09T11:02:43Z</time>
      </trkpt>
      <trkpt lat="45.69505" lon="6.0009">
        <ele>1321</ele>
        <time>2012-02-09T11:02:45Z</time>
      </trkpt>
      <trkpt lat="45.69506" lon="6.00092">
        <ele>1321</ele>
        <time>2012-02-09T11:02:47Z</time>
      </trkpt>
      <trkpt lat="45.69508" lon="6.00094">
        <ele>1321</ele>
        <time>2012-02-09T11:02:49Z</time>
      </trkpt>
      <trkpt lat="45.69509" lon="6.00096">
        <ele>1321</ele>
        <time>2012-02-09T11:02:51Z</time>
      </trkpt>
      <trkpt lat="45.69512" lon="6.001">
        <ele>1321</ele>
        <time>2012-02-09T11:02:55Z</time>
      </trkpt>
      <trkpt lat="45.69513" lon="6.00102">
        <ele>1321</ele>
        <time>2012-02-09T11:02:57Z</time>
      </trkpt>
      <trkpt lat="45.69515" lon="6.00103">
        <ele>1321</ele>
        <time>2012-02-09T11:02:59Z</time>
      </trkpt>
      <trkpt lat="45.69516" lon="6.00104">
        <ele>1321</ele>
        <time>2012-02-09T11:03:01Z</time>
      </trkpt>
      <trkpt lat="45.69519" lon="6.00105">
        <ele>1321</ele>
        <time>2012-02-09T11:03:05Z</time>
      </trkpt>
      <trkpt lat="45.69521" lon="6.00106">
        <ele>1321</ele>
        <time>2012-02-09T11:03:07Z</time>
      </trkpt>
      <trkpt lat="45.69523" lon="6.00108">
        <ele>1321</ele>
        <time>2012-02-09T11:03:09Z</time>
      </trkpt>
      <trkpt lat="45.69524" lon="6.00109">
        <ele>1321</ele>
        <time>2012-02-09T11:03:11Z</time>
      </trkpt>
      <trkpt lat="45.69528" lon="6.00113">
        <ele>1321</ele>
        <time>2012-02-09T11:03:15Z</time>
      </trkpt>
      <trkpt lat="45.69529" lon="6.00115">
        <ele>1321</ele>
        <time>2012-02-09T11:03:17Z</time>
      </trkpt>
      <trkpt lat="45.69531" lon="6.00116">
        <ele>1321</ele>
        <time>2012-02-09T11:03:19Z</time>
      </trkpt>
      <trkpt lat="45.69532" lon="6.00118">
        <ele>1321</ele>
        <time>2012-02-09T11:03:21Z</time>
      </trkpt>
      <trkpt lat="45.69535" lon="6.00123">
        <ele>1321</ele>
        <time>2012-02-09T11:03:25Z</time>
      </trkpt>
      <trkpt lat="45.69536" lon="6.00125">
        <ele>1321</ele>
        <time>2012-02-09T11:03:27Z</time>
      </trkpt>
      <trkpt lat="45.69537" lon="6.00127">
        <ele>1321</ele>
        <time>2012-02-09T11:03:29Z</time>
      </trkpt>
      <trkpt lat="45.69539" lon="6.00129">
        <ele>1321</ele>
        <time>2012-02-09T11:03:31Z</time>
      </trkpt>
      <trkpt lat="45.69541" lon="6.00132">
        <ele>1321</ele>
        <time>2012-02-09T11:03:35Z</time>
      </trkpt>
      <trkpt lat="45.69543" lon="6.00135">
        <ele>1321</ele>
        <time>2012-02-09T11:03:37Z</time>
      </trkpt>
      <trkpt lat="45.69544" lon="6.00136">
        <ele>1321</ele>
        <time>2012-02-09T11:03:39Z</time>
      </trkpt>
      <trkpt lat="45.69545" lon="6.00138">
        <ele>1321</ele>
        <time>2012-02-09T11:03:41Z</time>
      </trkpt>
      <trkpt lat="45.69547" lon="6.0014">
        <ele>1321</ele>
        <time>2012-02-09T11:03:43Z</time>
      </trkpt>
      <trkpt lat="45.69548" lon="6.00141">
        <ele>1321</ele>
        <time>2012-02-09T11:03:45Z</time>
      </trkpt>
      <trkpt lat="45.69549" lon="6.00143">
        <ele>1321</ele>
        <time>2012-02-09T11:03:47Z</time>
      </trkpt>
      <trkpt lat="45.6955" lon="6.00145">
        <ele>1321</ele>
        <time>2012-02-09T11:03:49Z</time>
      </trkpt>
      <trkpt lat="45.69552" lon="6.00147">
        <ele>1321</ele>
        <time>2012-02-09T11:03:51Z</time>
      </trkpt>
      <trkpt lat="45.69554" lon="6.00151">
        <ele>1322</ele>
        <time>2012-02-09T11:03:55Z</time>
      </trkpt>
      <trkpt lat="45.69556" lon="6.00153">
        <ele>1322</ele>
        <time>2012-02-09T11:03:57Z</time>
      </trkpt>
      <trkpt lat="45.69558" lon="6.00154">
        <ele>1322</ele>
        <time>2012-02-09T11:03:59Z</time>
      </trkpt>
      <trkpt lat="45.69559" lon="6.00156">
        <ele>1322</ele>
        <time>2012-02-09T11:04:01Z</time>
      </trkpt>
      <trkpt lat="45.6956" lon="6.0016">
        <ele>1322</ele>
        <time>2012-02-09T11:04:04Z</time>
      </trkpt>
      <trkpt lat="45.69562" lon="6.00163">
        <ele>1322</ele>
        <time>2012-02-09T11:04:07Z</time>
      </trkpt>
      <trkpt lat="45.69563" lon="6.00167">
        <ele>1322</ele>
        <time>2012-02-09T11:04:10Z</time>
      </trkpt>
      <trkpt lat="45.69564" lon="6.00169">
        <ele>1322</ele>
        <time>2012-02-09T11:04:12Z</time>
      </trkpt>
      <trkpt lat="45.69565" lon="6.00171">
        <ele>1322</ele>
        <time>2012-02-09T11:04:14Z</time>
      </trkpt>
      <trkpt lat="45.69566" lon="6.00174">
        <ele>1322</ele>
        <time>2012-02-09T11:04:16Z</time>
      </trkpt>
      <trkpt lat="45.69569" lon="6.00178">
        <ele>1322</ele>
        <time>2012-02-09T11:04:20Z</time>
      </trkpt>
      <trkpt lat="45.69571" lon="6.0018">
        <ele>1322</ele>
        <time>2012-02-09T11:04:22Z</time>
      </trkpt>
      <trkpt lat="45.69572" lon="6.0018">
        <ele>1322</ele>
        <time>2012-02-09T11:04:24Z</time>
      </trkpt>
      <trkpt lat="45.69573" lon="6.00182">
        <ele>1322</ele>
        <time>2012-02-09T11:04:27Z</time>
      </trkpt>
      <trkpt lat="45.69575" lon="6.00183">
        <ele>1322</ele>
        <time>2012-02-09T11:04:29Z</time>
      </trkpt>
      <trkpt lat="45.69576" lon="6.00185">
        <ele>1322</ele>
        <time>2012-02-09T11:04:31Z</time>
      </trkpt>
      <trkpt lat="45.69578" lon="6.00186">
        <ele>1322</ele>
        <time>2012-02-09T11:04:33Z</time>
      </trkpt>
      <trkpt lat="45.69579" lon="6.00188">
        <ele>1322</ele>
        <time>2012-02-09T11:04:35Z</time>
      </trkpt>
      <trkpt lat="45.6958" lon="6.0019">
        <ele>1322</ele>
        <time>2012-02-09T11:04:37Z</time>
      </trkpt>
      <trkpt lat="45.69581" lon="6.00191">
        <ele>1322</ele>
        <time>2012-02-09T11:04:39Z</time>
      </trkpt>
      <trkpt lat="45.69582" lon="6.00193">
        <ele>1323</ele>
        <time>2012-02-09T11:04:41Z</time>
      </trkpt>
      <trkpt lat="45.69585" lon="6.00195">
        <ele>1324</ele>
        <time>2012-02-09T11:04:44Z</time>
      </trkpt>
      <trkpt lat="45.69587" lon="6.00196">
        <ele>1325</ele>
        <time>2012-02-09T11:04:46Z</time>
      </trkpt>
      <trkpt lat="45.6959" lon="6.00196">
        <ele>1325</ele>
        <time>2012-02-09T11:04:49Z</time>
      </trkpt>
      <trkpt lat="45.69592" lon="6.00197">
        <ele>1325</ele>
        <time>2012-02-09T11:04:51Z</time>
      </trkpt>
      <trkpt lat="45.69595" lon="6.00198">
        <ele>1326</ele>
        <time>2012-02-09T11:04:55Z</time>
      </trkpt>
      <trkpt lat="45.69596" lon="6.002">
        <ele>1326</ele>
        <time>2012-02-09T11:04:57Z</time>
      </trkpt>
      <trkpt lat="45.69598" lon="6.00201">
        <ele>1327</ele>
        <time>2012-02-09T11:04:59Z</time>
      </trkpt>
      <trkpt lat="45.69599" lon="6.00203">
        <ele>1328</ele>
        <time>2012-02-09T11:05:02Z</time>
      </trkpt>
      <trkpt lat="45.696" lon="6.00205">
        <ele>1329</ele>
        <time>2012-02-09T11:05:04Z</time>
      </trkpt>
      <trkpt lat="45.69601" lon="6.00206">
        <ele>1330</ele>
        <time>2012-02-09T11:05:06Z</time>
      </trkpt>
      <trkpt lat="45.69603" lon="6.00206">
        <ele>1330</ele>
        <time>2012-02-09T11:05:08Z</time>
      </trkpt>
      <trkpt lat="45.69604" lon="6.00207">
        <ele>1331</ele>
        <time>2012-02-09T11:05:10Z</time>
      </trkpt>
      <trkpt lat="45.69606" lon="6.00207">
        <ele>1331</ele>
        <time>2012-02-09T11:05:12Z</time>
      </trkpt>
      <trkpt lat="45.69608" lon="6.00207">
        <ele>1331</ele>
        <time>2012-02-09T11:05:14Z</time>
      </trkpt>
      <trkpt lat="45.6961" lon="6.00206">
        <ele>1332</ele>
        <time>2012-02-09T11:05:16Z</time>
      </trkpt>
      <trkpt lat="45.69612" lon="6.00205">
        <ele>1332</ele>
        <time>2012-02-09T11:05:18Z</time>
      </trkpt>
      <trkpt lat="45.69614" lon="6.00205">
        <ele>1332</ele>
        <time>2012-02-09T11:05:21Z</time>
      </trkpt>
      <trkpt lat="45.69617" lon="6.00207">
        <ele>1332</ele>
        <time>2012-02-09T11:05:25Z</time>
      </trkpt>
      <trkpt lat="45.69619" lon="6.00209">
        <ele>1333</ele>
        <time>2012-02-09T11:05:28Z</time>
      </trkpt>
      <trkpt lat="45.69621" lon="6.0021">
        <ele>1334</ele>
        <time>2012-02-09T11:05:30Z</time>
      </trkpt>
      <trkpt lat="45.69621" lon="6.00212">
        <ele>1335</ele>
        <time>2012-02-09T11:05:32Z</time>
      </trkpt>
      <trkpt lat="45.69621" lon="6.00214">
        <ele>1336</ele>
        <time>2012-02-09T11:05:34Z</time>
      </trkpt>
      <trkpt lat="45.69622" lon="6.00216">
        <ele>1338</ele>
        <time>2012-02-09T11:05:36Z</time>
      </trkpt>
      <trkpt lat="45.69624" lon="6.0022">
        <ele>1339</ele>
        <time>2012-02-09T11:05:39Z</time>
      </trkpt>
      <trkpt lat="45.69626" lon="6.00221">
        <ele>1339</ele>
        <time>2012-02-09T11:05:41Z</time>
      </trkpt>
      <trkpt lat="45.69628" lon="6.00222">
        <ele>1339</ele>
        <time>2012-02-09T11:05:43Z</time>
      </trkpt>
      <trkpt lat="45.69629" lon="6.00223">
        <ele>1339</ele>
        <time>2012-02-09T11:05:45Z</time>
      </trkpt>
      <trkpt lat="45.69631" lon="6.00225">
        <ele>1339</ele>
        <time>2012-02-09T11:05:47Z</time>
      </trkpt>
      <trkpt lat="45.69632" lon="6.00225">
        <ele>1339</ele>
        <time>2012-02-09T11:05:49Z</time>
      </trkpt>
      <trkpt lat="45.69633" lon="6.00226">
        <ele>1339</ele>
        <time>2012-02-09T11:05:51Z</time>
      </trkpt>
      <trkpt lat="45.69635" lon="6.00231">
        <ele>1340</ele>
        <time>2012-02-09T11:05:55Z</time>
      </trkpt>
      <trkpt lat="45.69637" lon="6.00233">
        <ele>1340</ele>
        <time>2012-02-09T11:05:58Z</time>
      </trkpt>
      <trkpt lat="45.69638" lon="6.00234">
        <ele>1341</ele>
        <time>2012-02-09T11:06:00Z</time>
      </trkpt>
      <trkpt lat="45.6964" lon="6.00235">
        <ele>1342</ele>
        <time>2012-02-09T11:06:02Z</time>
      </trkpt>
      <trkpt lat="45.69641" lon="6.00236">
        <ele>1344</ele>
        <time>2012-02-09T11:06:05Z</time>
      </trkpt>
      <trkpt lat="45.69643" lon="6.00237">
        <ele>1345</ele>
        <time>2012-02-09T11:06:07Z</time>
      </trkpt>
      <trkpt lat="45.69644" lon="6.0024">
        <ele>1345</ele>
        <time>2012-02-09T11:06:09Z</time>
      </trkpt>
      <trkpt lat="45.69645" lon="6.00241">
        <ele>1345</ele>
        <time>2012-02-09T11:06:11Z</time>
      </trkpt>
      <trkpt lat="45.69646" lon="6.00245">
        <ele>1346</ele>
        <time>2012-02-09T11:06:16Z</time>
      </trkpt>
      <trkpt lat="45.69648" lon="6.00245">
        <ele>1349</ele>
        <time>2012-02-09T11:06:22Z</time>
      </trkpt>
      <trkpt lat="45.69648" lon="6.00243">
        <ele>1349</ele>
        <time>2012-02-09T11:06:24Z</time>
      </trkpt>
      <trkpt lat="45.6965" lon="6.00241">
        <ele>1349</ele>
        <time>2012-02-09T11:06:26Z</time>
      </trkpt>
      <trkpt lat="45.69649" lon="6.00238">
        <ele>1349</ele>
        <time>2012-02-09T11:06:29Z</time>
      </trkpt>
      <trkpt lat="45.69647" lon="6.00235">
        <ele>1349</ele>
        <time>2012-02-09T11:06:31Z</time>
      </trkpt>
      <trkpt lat="45.69647" lon="6.00233">
        <ele>1349</ele>
        <time>2012-02-09T11:06:33Z</time>
      </trkpt>
      <trkpt lat="45.69646" lon="6.00232">
        <ele>1349</ele>
        <time>2012-02-09T11:06:35Z</time>
      </trkpt>
      <trkpt lat="45.69646" lon="6.0023">
        <ele>1349</ele>
        <time>2012-02-09T11:06:37Z</time>
      </trkpt>
      <trkpt lat="45.69646" lon="6.00228">
        <ele>1349</ele>
        <time>2012-02-09T11:06:39Z</time>
      </trkpt>
      <trkpt lat="45.69647" lon="6.00225">
        <ele>1349</ele>
        <time>2012-02-09T11:06:41Z</time>
      </trkpt>
      <trkpt lat="45.69646" lon="6.00221">
        <ele>1348</ele>
        <time>2012-02-09T11:06:45Z</time>
      </trkpt>
      <trkpt lat="45.69647" lon="6.00218">
        <ele>1348</ele>
        <time>2012-02-09T11:06:48Z</time>
      </trkpt>
      <trkpt lat="45.69647" lon="6.00216">
        <ele>1348</ele>
        <time>2012-02-09T11:07:15Z</time>
      </trkpt>
      <trkpt lat="45.69647" lon="6.00215">
        <ele>1348</ele>
        <time>2012-02-09T11:07:17Z</time>
      </trkpt>
      <trkpt lat="45.69646" lon="6.00212">
        <ele>1348</ele>
        <time>2012-02-09T11:07:19Z</time>
      </trkpt>
      <trkpt lat="45.69646" lon="6.00211">
        <ele>1348</ele>
        <time>2012-02-09T11:07:22Z</time>
      </trkpt>
      <trkpt lat="45.69645" lon="6.00209">
        <ele>1348</ele>
        <time>2012-02-09T11:07:25Z</time>
      </trkpt>
      <trkpt lat="45.69645" lon="6.00207">
        <ele>1348</ele>
        <time>2012-02-09T11:07:29Z</time>
      </trkpt>
      <trkpt lat="45.69644" lon="6.00205">
        <ele>1348</ele>
        <time>2012-02-09T11:07:31Z</time>
      </trkpt>
      <trkpt lat="45.69644" lon="6.00203">
        <ele>1348</ele>
        <time>2012-02-09T11:07:33Z</time>
      </trkpt>
      <trkpt lat="45.69644" lon="6.00201">
        <ele>1348</ele>
        <time>2012-02-09T11:07:36Z</time>
      </trkpt>
      <trkpt lat="45.69642" lon="6.00199">
        <ele>1348</ele>
        <time>2012-02-09T11:07:39Z</time>
      </trkpt>
      <trkpt lat="45.6964" lon="6.00196">
        <ele>1348</ele>
        <time>2012-02-09T11:07:42Z</time>
      </trkpt>
      <trkpt lat="45.6964" lon="6.00194">
        <ele>1349</ele>
        <time>2012-02-09T11:07:44Z</time>
      </trkpt>
      <trkpt lat="45.6964" lon="6.00192">
        <ele>1350</ele>
        <time>2012-02-09T11:07:46Z</time>
      </trkpt>
      <trkpt lat="45.69639" lon="6.00188">
        <ele>1351</ele>
        <time>2012-02-09T11:07:49Z</time>
      </trkpt>
      <trkpt lat="45.69638" lon="6.00186">
        <ele>1351</ele>
        <time>2012-02-09T11:07:51Z</time>
      </trkpt>
      <trkpt lat="45.69637" lon="6.00184">
        <ele>1351</ele>
        <time>2012-02-09T11:07:53Z</time>
      </trkpt>
      <trkpt lat="45.69637" lon="6.00182">
        <ele>1351</ele>
        <time>2012-02-09T11:07:55Z</time>
      </trkpt>
      <trkpt lat="45.69637" lon="6.00179">
        <ele>1352</ele>
        <time>2012-02-09T11:07:57Z</time>
      </trkpt>
      <trkpt lat="45.69637" lon="6.00177">
        <ele>1352</ele>
        <time>2012-02-09T11:07:59Z</time>
      </trkpt>
      <trkpt lat="45.69637" lon="6.00175">
        <ele>1352</ele>
        <time>2012-02-09T11:08:01Z</time>
      </trkpt>
      <trkpt lat="45.69636" lon="6.00173">
        <ele>1352</ele>
        <time>2012-02-09T11:08:03Z</time>
      </trkpt>
      <trkpt lat="45.69635" lon="6.00171">
        <ele>1352</ele>
        <time>2012-02-09T11:08:05Z</time>
      </trkpt>
      <trkpt lat="45.69635" lon="6.00168">
        <ele>1352</ele>
        <time>2012-02-09T11:08:07Z</time>
      </trkpt>
      <trkpt lat="45.69634" lon="6.00167">
        <ele>1352</ele>
        <time>2012-02-09T11:08:09Z</time>
      </trkpt>
      <trkpt lat="45.69635" lon="6.00164">
        <ele>1352</ele>
        <time>2012-02-09T11:08:11Z</time>
      </trkpt>
      <trkpt lat="45.69635" lon="6.00162">
        <ele>1352</ele>
        <time>2012-02-09T11:08:15Z</time>
      </trkpt>
      <trkpt lat="45.69635" lon="6.0016">
        <ele>1353</ele>
        <time>2012-02-09T11:08:19Z</time>
      </trkpt>
      <trkpt lat="45.69634" lon="6.00157">
        <ele>1353</ele>
        <time>2012-02-09T11:08:21Z</time>
      </trkpt>
      <trkpt lat="45.69636" lon="6.00156">
        <ele>1353</ele>
        <time>2012-02-09T11:08:26Z</time>
      </trkpt>
      <trkpt lat="45.69636" lon="6.00153">
        <ele>1353</ele>
        <time>2012-02-09T11:08:28Z</time>
      </trkpt>
      <trkpt lat="45.69636" lon="6.00151">
        <ele>1353</ele>
        <time>2012-02-09T11:08:31Z</time>
      </trkpt>
      <trkpt lat="45.69636" lon="6.00149">
        <ele>1353</ele>
        <time>2012-02-09T11:08:33Z</time>
      </trkpt>
      <trkpt lat="45.69637" lon="6.00146">
        <ele>1353</ele>
        <time>2012-02-09T11:08:35Z</time>
      </trkpt>
      <trkpt lat="45.69635" lon="6.00145">
        <ele>1354</ele>
        <time>2012-02-09T11:08:37Z</time>
      </trkpt>
      <trkpt lat="45.69635" lon="6.00141">
        <ele>1356</ele>
        <time>2012-02-09T11:08:39Z</time>
      </trkpt>
      <trkpt lat="45.69634" lon="6.00138">
        <ele>1357</ele>
        <time>2012-02-09T11:08:41Z</time>
      </trkpt>
      <trkpt lat="45.69634" lon="6.00136">
        <ele>1357</ele>
        <time>2012-02-09T11:08:43Z</time>
      </trkpt>
      <trkpt lat="45.69633" lon="6.00133">
        <ele>1358</ele>
        <time>2012-02-09T11:08:46Z</time>
      </trkpt>
      <trkpt lat="45.69632" lon="6.00129">
        <ele>1359</ele>
        <time>2012-02-09T11:08:50Z</time>
      </trkpt>
      <trkpt lat="45.69631" lon="6.00127">
        <ele>1359</ele>
        <time>2012-02-09T11:08:52Z</time>
      </trkpt>
      <trkpt lat="45.69631" lon="6.00126">
        <ele>1359</ele>
        <time>2012-02-09T11:08:56Z</time>
      </trkpt>
      <trkpt lat="45.69632" lon="6.00124">
        <ele>1359</ele>
        <time>2012-02-09T11:09:02Z</time>
      </trkpt>
      <trkpt lat="45.69633" lon="6.00124">
        <ele>1359</ele>
        <time>2012-02-09T11:09:06Z</time>
      </trkpt>
      <trkpt lat="45.69632" lon="6.00122">
        <ele>1359</ele>
        <time>2012-02-09T11:09:12Z</time>
      </trkpt>
      <trkpt lat="45.69632" lon="6.0012">
        <ele>1359</ele>
        <time>2012-02-09T11:09:14Z</time>
      </trkpt>
      <trkpt lat="45.69632" lon="6.00118">
        <ele>1359</ele>
        <time>2012-02-09T11:09:17Z</time>
      </trkpt>
      <trkpt lat="45.69633" lon="6.00116">
        <ele>1359</ele>
        <time>2012-02-09T11:09:21Z</time>
      </trkpt>
      <trkpt lat="45.69634" lon="6.00113">
        <ele>1359</ele>
        <time>2012-02-09T11:09:24Z</time>
      </trkpt>
      <trkpt lat="45.69635" lon="6.00112">
        <ele>1359</ele>
        <time>2012-02-09T11:09:26Z</time>
      </trkpt>
      <trkpt lat="45.69635" lon="6.00109">
        <ele>1359</ele>
        <time>2012-02-09T11:09:28Z</time>
      </trkpt>
      <trkpt lat="45.69635" lon="6.00107">
        <ele>1359</ele>
        <time>2012-02-09T11:09:30Z</time>
      </trkpt>
      <trkpt lat="45.69635" lon="6.00105">
        <ele>1359</ele>
        <time>2012-02-09T11:09:32Z</time>
      </trkpt>
      <trkpt lat="45.69634" lon="6.00103">
        <ele>1359</ele>
        <time>2012-02-09T11:09:35Z</time>
      </trkpt>
      <trkpt lat="45.69633" lon="6.00101">
        <ele>1359</ele>
        <time>2012-02-09T11:09:38Z</time>
      </trkpt>
      <trkpt lat="45.69633" lon="6.001">
        <ele>1359</ele>
        <time>2012-02-09T11:09:44Z</time>
      </trkpt>
      <trkpt lat="45.69633" lon="6.00097">
        <ele>1359</ele>
        <time>2012-02-09T11:09:46Z</time>
      </trkpt>
      <trkpt lat="45.69631" lon="6.00094">
        <ele>1360</ele>
        <time>2012-02-09T11:09:49Z</time>
      </trkpt>
      <trkpt lat="45.69631" lon="6.00092">
        <ele>1363</ele>
        <time>2012-02-09T11:09:52Z</time>
      </trkpt>
      <trkpt lat="45.69632" lon="6.00089">
        <ele>1363</ele>
        <time>2012-02-09T11:09:54Z</time>
      </trkpt>
      <trkpt lat="45.69632" lon="6.00085">
        <ele>1363</ele>
        <time>2012-02-09T11:09:57Z</time>
      </trkpt>
      <trkpt lat="45.69631" lon="6.00083">
        <ele>1363</ele>
        <time>2012-02-09T11:10:01Z</time>
      </trkpt>
      <trkpt lat="45.6963" lon="6.00081">
        <ele>1363</ele>
        <time>2012-02-09T11:10:03Z</time>
      </trkpt>
      <trkpt lat="45.69629" lon="6.00079">
        <ele>1364</ele>
        <time>2012-02-09T11:10:06Z</time>
      </trkpt>
      <trkpt lat="45.69627" lon="6.00078">
        <ele>1365</ele>
        <time>2012-02-09T11:10:09Z</time>
      </trkpt>
      <trkpt lat="45.69627" lon="6.00076">
        <ele>1365</ele>
        <time>2012-02-09T11:10:12Z</time>
      </trkpt>
      <trkpt lat="45.69626" lon="6.00075">
        <ele>1365</ele>
        <time>2012-02-09T11:10:18Z</time>
      </trkpt>
      <trkpt lat="45.69627" lon="6.00073">
        <ele>1365</ele>
        <time>2012-02-09T11:10:29Z</time>
      </trkpt>
      <trkpt lat="45.69627" lon="6.00071">
        <ele>1365</ele>
        <time>2012-02-09T11:10:32Z</time>
      </trkpt>
      <trkpt lat="45.69626" lon="6.0007">
        <ele>1365</ele>
        <time>2012-02-09T11:10:35Z</time>
      </trkpt>
      <trkpt lat="45.69625" lon="6.00068">
        <ele>1365</ele>
        <time>2012-02-09T11:10:38Z</time>
      </trkpt>
      <trkpt lat="45.69624" lon="6.00066">
        <ele>1365</ele>
        <time>2012-02-09T11:10:40Z</time>
      </trkpt>
      <trkpt lat="45.69623" lon="6.00066">
        <ele>1365</ele>
        <time>2012-02-09T11:10:42Z</time>
      </trkpt>
      <trkpt lat="45.69622" lon="6.00064">
        <ele>1365</ele>
        <time>2012-02-09T11:10:45Z</time>
      </trkpt>
      <trkpt lat="45.6962" lon="6.00063">
        <ele>1365</ele>
        <time>2012-02-09T11:10:48Z</time>
      </trkpt>
      <trkpt lat="45.69619" lon="6.0006">
        <ele>1365</ele>
        <time>2012-02-09T11:10:51Z</time>
      </trkpt>
      <trkpt lat="45.69619" lon="6.00058">
        <ele>1365</ele>
        <time>2012-02-09T11:10:54Z</time>
      </trkpt>
      <trkpt lat="45.69619" lon="6.00056">
        <ele>1365</ele>
        <time>2012-02-09T11:10:56Z</time>
      </trkpt>
      <trkpt lat="45.69619" lon="6.00054">
        <ele>1365</ele>
        <time>2012-02-09T11:10:58Z</time>
      </trkpt>
      <trkpt lat="45.69617" lon="6.00054">
        <ele>1365</ele>
        <time>2012-02-09T11:11:00Z</time>
      </trkpt>
      <trkpt lat="45.69616" lon="6.00052">
        <ele>1365</ele>
        <time>2012-02-09T11:11:02Z</time>
      </trkpt>
      <trkpt lat="45.69614" lon="6.00049">
        <ele>1366</ele>
        <time>2012-02-09T11:11:05Z</time>
      </trkpt>
      <trkpt lat="45.69612" lon="6.00047">
        <ele>1367</ele>
        <time>2012-02-09T11:11:07Z</time>
      </trkpt>
      <trkpt lat="45.69611" lon="6.00045">
        <ele>1368</ele>
        <time>2012-02-09T11:11:09Z</time>
      </trkpt>
      <trkpt lat="45.6961" lon="6.00043">
        <ele>1369</ele>
        <time>2012-02-09T11:11:12Z</time>
      </trkpt>
      <trkpt lat="45.69609" lon="6.00041">
        <ele>1369</ele>
        <time>2012-02-09T11:11:14Z</time>
      </trkpt>
      <trkpt lat="45.69608" lon="6.00039">
        <ele>1369</ele>
        <time>2012-02-09T11:11:16Z</time>
      </trkpt>
      <trkpt lat="45.69608" lon="6.00038">
        <ele>1369</ele>
        <time>2012-02-09T11:11:18Z</time>
      </trkpt>
      <trkpt lat="45.69606" lon="6.00036">
        <ele>1370</ele>
        <time>2012-02-09T11:11:21Z</time>
      </trkpt>
      <trkpt lat="45.69606" lon="6.00034">
        <ele>1370</ele>
        <time>2012-02-09T11:11:23Z</time>
      </trkpt>
      <trkpt lat="45.69605" lon="6.00032">
        <ele>1370</ele>
        <time>2012-02-09T11:11:26Z</time>
      </trkpt>
      <trkpt lat="45.69605" lon="6.0003">
        <ele>1371</ele>
        <time>2012-02-09T11:11:30Z</time>
      </trkpt>
      <trkpt lat="45.69605" lon="6.00028">
        <ele>1371</ele>
        <time>2012-02-09T11:11:32Z</time>
      </trkpt>
      <trkpt lat="45.69604" lon="6.00027">
        <ele>1371</ele>
        <time>2012-02-09T11:11:34Z</time>
      </trkpt>
      <trkpt lat="45.69603" lon="6.00024">
        <ele>1371</ele>
        <time>2012-02-09T11:11:37Z</time>
      </trkpt>
      <trkpt lat="45.69603" lon="6.00022">
        <ele>1372</ele>
        <time>2012-02-09T11:11:40Z</time>
      </trkpt>
      <trkpt lat="45.69603" lon="6.0002">
        <ele>1373</ele>
        <time>2012-02-09T11:11:43Z</time>
      </trkpt>
      <trkpt lat="45.69601" lon="6.00019">
        <ele>1373</ele>
        <time>2012-02-09T11:11:46Z</time>
      </trkpt>
      <trkpt lat="45.696" lon="6.00017">
        <ele>1374</ele>
        <time>2012-02-09T11:11:50Z</time>
      </trkpt>
      <trkpt lat="45.69599" lon="6.00015">
        <ele>1375</ele>
        <time>2012-02-09T11:11:53Z</time>
      </trkpt>
      <trkpt lat="45.69598" lon="6.00014">
        <ele>1376</ele>
        <time>2012-02-09T11:11:55Z</time>
      </trkpt>
      <trkpt lat="45.69598" lon="6.00012">
        <ele>1378</ele>
        <time>2012-02-09T11:11:58Z</time>
      </trkpt>
      <trkpt lat="45.69598" lon="6.00008">
        <ele>1378</ele>
        <time>2012-02-09T11:12:01Z</time>
      </trkpt>
      <trkpt lat="45.69598" lon="6.00005">
        <ele>1378</ele>
        <time>2012-02-09T11:12:04Z</time>
      </trkpt>
      <trkpt lat="45.69598" lon="6.00004">
        <ele>1378</ele>
        <time>2012-02-09T11:12:06Z</time>
      </trkpt>
      <trkpt lat="45.69598" lon="6.00002">
        <ele>1378</ele>
        <time>2012-02-09T11:12:12Z</time>
      </trkpt>
      <trkpt lat="45.69599" lon="5.99999">
        <ele>1378</ele>
        <time>2012-02-09T11:12:14Z</time>
      </trkpt>
      <trkpt lat="45.696" lon="5.99997">
        <ele>1378</ele>
        <time>2012-02-09T11:12:16Z</time>
      </trkpt>
      <trkpt lat="45.69601" lon="5.99995">
        <ele>1378</ele>
        <time>2012-02-09T11:12:18Z</time>
      </trkpt>
      <trkpt lat="45.69599" lon="5.99994">
        <ele>1378</ele>
        <time>2012-02-09T11:12:22Z</time>
      </trkpt>
      <trkpt lat="45.69598" lon="5.99992">
        <ele>1379</ele>
        <time>2012-02-09T11:12:24Z</time>
      </trkpt>
      <trkpt lat="45.69596" lon="5.99993">
        <ele>1380</ele>
        <time>2012-02-09T11:12:26Z</time>
      </trkpt>
      <trkpt lat="45.69596" lon="5.99989">
        <ele>1381</ele>
        <time>2012-02-09T11:12:28Z</time>
      </trkpt>
      <trkpt lat="45.69595" lon="5.99987">
        <ele>1382</ele>
        <time>2012-02-09T11:12:30Z</time>
      </trkpt>
      <trkpt lat="45.69594" lon="5.99986">
        <ele>1382</ele>
        <time>2012-02-09T11:12:34Z</time>
      </trkpt>
      <trkpt lat="45.69593" lon="5.99984">
        <ele>1383</ele>
        <time>2012-02-09T11:12:37Z</time>
      </trkpt>
      <trkpt lat="45.69592" lon="5.99982">
        <ele>1383</ele>
        <time>2012-02-09T11:12:39Z</time>
      </trkpt>
      <trkpt lat="45.6959" lon="5.99981">
        <ele>1383</ele>
        <time>2012-02-09T11:12:42Z</time>
      </trkpt>
      <trkpt lat="45.69589" lon="5.9998">
        <ele>1383</ele>
        <time>2012-02-09T11:12:44Z</time>
      </trkpt>
      <trkpt lat="45.69588" lon="5.99979">
        <ele>1383</ele>
        <time>2012-02-09T11:12:47Z</time>
      </trkpt>
      <trkpt lat="45.69587" lon="5.99978">
        <ele>1383</ele>
        <time>2012-02-09T11:12:49Z</time>
      </trkpt>
      <trkpt lat="45.69585" lon="5.99978">
        <ele>1383</ele>
        <time>2012-02-09T11:12:51Z</time>
      </trkpt>
      <trkpt lat="45.69584" lon="5.99977">
        <ele>1383</ele>
        <time>2012-02-09T11:12:53Z</time>
      </trkpt>
      <trkpt lat="45.69584" lon="5.99975">
        <ele>1383</ele>
        <time>2012-02-09T11:12:56Z</time>
      </trkpt>
      <trkpt lat="45.69583" lon="5.99973">
        <ele>1383</ele>
        <time>2012-02-09T11:12:58Z</time>
      </trkpt>
      <trkpt lat="45.69582" lon="5.99972">
        <ele>1383</ele>
        <time>2012-02-09T11:13:03Z</time>
      </trkpt>
      <trkpt lat="45.69583" lon="5.9997">
        <ele>1385</ele>
        <time>2012-02-09T11:13:11Z</time>
      </trkpt>
      <trkpt lat="45.69583" lon="5.99969">
        <ele>1385</ele>
        <time>2012-02-09T11:13:14Z</time>
      </trkpt>
      <trkpt lat="45.69585" lon="5.99968">
        <ele>1385</ele>
        <time>2012-02-09T11:13:16Z</time>
      </trkpt>
      <trkpt lat="45.69584" lon="5.9997">
        <ele>1385</ele>
        <time>2012-02-09T11:13:26Z</time>
      </trkpt>
      <trkpt lat="45.69585" lon="5.99968">
        <ele>1386</ele>
        <time>2012-02-09T11:13:34Z</time>
      </trkpt>
      <trkpt lat="45.69585" lon="5.99966">
        <ele>1386</ele>
        <time>2012-02-09T11:13:37Z</time>
      </trkpt>
      <trkpt lat="45.69586" lon="5.99967">
        <ele>1386</ele>
        <time>2012-02-09T11:13:47Z</time>
      </trkpt>
      <trkpt lat="45.69588" lon="5.99966">
        <ele>1386</ele>
        <time>2012-02-09T11:13:51Z</time>
      </trkpt>
      <trkpt lat="45.69588" lon="5.99963">
        <ele>1386</ele>
        <time>2012-02-09T11:13:53Z</time>
      </trkpt>
      <trkpt lat="45.6959" lon="5.99962">
        <ele>1387</ele>
        <time>2012-02-09T11:13:57Z</time>
      </trkpt>
      <trkpt lat="45.69591" lon="5.9996">
        <ele>1387</ele>
        <time>2012-02-09T11:14:01Z</time>
      </trkpt>
      <trkpt lat="45.69593" lon="5.99961">
        <ele>1387</ele>
        <time>2012-02-09T11:14:06Z</time>
      </trkpt>
      <trkpt lat="45.69593" lon="5.99959">
        <ele>1387</ele>
        <time>2012-02-09T11:14:09Z</time>
      </trkpt>
      <trkpt lat="45.69595" lon="5.99958">
        <ele>1390</ele>
        <time>2012-02-09T11:14:21Z</time>
      </trkpt>
      <trkpt lat="45.69595" lon="5.99956">
        <ele>1390</ele>
        <time>2012-02-09T11:14:24Z</time>
      </trkpt>
      <trkpt lat="45.69594" lon="5.99955">
        <ele>1390</ele>
        <time>2012-02-09T11:14:29Z</time>
      </trkpt>
      <trkpt lat="45.69593" lon="5.99954">
        <ele>1391</ele>
        <time>2012-02-09T11:14:37Z</time>
      </trkpt>
      <trkpt lat="45.69592" lon="5.99954">
        <ele>1392</ele>
        <time>2012-02-09T11:14:41Z</time>
      </trkpt>
      <trkpt lat="45.6959" lon="5.99954">
        <ele>1393</ele>
        <time>2012-02-09T11:14:45Z</time>
      </trkpt>
      <trkpt lat="45.6959" lon="5.99953">
        <ele>1395</ele>
        <time>2012-02-09T11:14:49Z</time>
      </trkpt>
      <trkpt lat="45.69589" lon="5.99951">
        <ele>1395</ele>
        <time>2012-02-09T11:14:52Z</time>
      </trkpt>
      <trkpt lat="45.6959" lon="5.99951">
        <ele>1395</ele>
        <time>2012-02-09T11:14:58Z</time>
      </trkpt>
      <trkpt lat="45.69591" lon="5.99949">
        <ele>1395</ele>
        <time>2012-02-09T11:15:15Z</time>
      </trkpt>
      <trkpt lat="45.69592" lon="5.99947">
        <ele>1393</ele>
        <time>2012-02-09T11:15:30Z</time>
      </trkpt>
      <trkpt lat="45.69592" lon="5.99945">
        <ele>1393</ele>
        <time>2012-02-09T11:15:32Z</time>
      </trkpt>
      <trkpt lat="45.69591" lon="5.99945">
        <ele>1393</ele>
        <time>2012-02-09T11:15:38Z</time>
      </trkpt>
      <trkpt lat="45.6959" lon="5.99944">
        <ele>1393</ele>
        <time>2012-02-09T11:15:45Z</time>
      </trkpt>
      <trkpt lat="45.69589" lon="5.99943">
        <ele>1393</ele>
        <time>2012-02-09T11:15:50Z</time>
      </trkpt>
      <trkpt lat="45.69587" lon="5.99942">
        <ele>1393</ele>
        <time>2012-02-09T11:15:54Z</time>
      </trkpt>
      <trkpt lat="45.69588" lon="5.99939">
        <ele>1393</ele>
        <time>2012-02-09T11:16:13Z</time>
      </trkpt>
      <trkpt lat="45.69587" lon="5.99941">
        <ele>1393</ele>
        <time>2012-02-09T11:16:28Z</time>
      </trkpt>
      <trkpt lat="45.69588" lon="5.99939">
        <ele>1393</ele>
        <time>2012-02-09T11:16:46Z</time>
      </trkpt>
      <trkpt lat="45.69589" lon="5.99939">
        <ele>1393</ele>
        <time>2012-02-09T11:16:56Z</time>
      </trkpt>
      <trkpt lat="45.69588" lon="5.9994">
        <ele>1393</ele>
        <time>2012-02-09T11:17:00Z</time>
      </trkpt>
      <trkpt lat="45.69589" lon="5.99938">
        <ele>1392</ele>
        <time>2012-02-09T11:17:04Z</time>
      </trkpt>
      <trkpt lat="45.6959" lon="5.99937">
        <ele>1392</ele>
        <time>2012-02-09T11:17:17Z</time>
      </trkpt>
      <trkpt lat="45.69592" lon="5.99937">
        <ele>1392</ele>
        <time>2012-02-09T11:17:22Z</time>
      </trkpt>
      <trkpt lat="45.69593" lon="5.99937">
        <ele>1392</ele>
        <time>2012-02-09T11:17:25Z</time>
      </trkpt>
      <trkpt lat="45.69594" lon="5.99937">
        <ele>1392</ele>
        <time>2012-02-09T11:17:28Z</time>
      </trkpt>
      <trkpt lat="45.69595" lon="5.99937">
        <ele>1392</ele>
        <time>2012-02-09T11:17:31Z</time>
      </trkpt>
      <trkpt lat="45.69597" lon="5.99936">
        <ele>1393</ele>
        <time>2012-02-09T11:17:43Z</time>
      </trkpt>
      <trkpt lat="45.69598" lon="5.99936">
        <ele>1393</ele>
        <time>2012-02-09T11:17:47Z</time>
      </trkpt>
      <trkpt lat="45.696" lon="5.99937">
        <ele>1394</ele>
        <time>2012-02-09T11:17:51Z</time>
      </trkpt>
      <trkpt lat="45.69599" lon="5.99936">
        <ele>1397</ele>
        <time>2012-02-09T11:18:01Z</time>
      </trkpt>
      <trkpt lat="45.69598" lon="5.99934">
        <ele>1397</ele>
        <time>2012-02-09T11:18:05Z</time>
      </trkpt>
      <trkpt lat="45.69598" lon="5.99932">
        <ele>1398</ele>
        <time>2012-02-09T11:18:08Z</time>
      </trkpt>
      <trkpt lat="45.69596" lon="5.99931">
        <ele>1398</ele>
        <time>2012-02-09T11:18:10Z</time>
      </trkpt>
      <trkpt lat="45.69595" lon="5.99931">
        <ele>1398</ele>
        <time>2012-02-09T11:18:12Z</time>
      </trkpt>
      <trkpt lat="45.69595" lon="5.99929">
        <ele>1398</ele>
        <time>2012-02-09T11:18:16Z</time>
      </trkpt>
      <trkpt lat="45.69593" lon="5.99928">
        <ele>1398</ele>
        <time>2012-02-09T11:18:27Z</time>
      </trkpt>
      <trkpt lat="45.69592" lon="5.99927">
        <ele>1398</ele>
        <time>2012-02-09T11:18:33Z</time>
      </trkpt>
      <trkpt lat="45.69591" lon="5.99926">
        <ele>1399</ele>
        <time>2012-02-09T11:18:41Z</time>
      </trkpt>
      <trkpt lat="45.6959" lon="5.99928">
        <ele>1399</ele>
        <time>2012-02-09T11:18:46Z</time>
      </trkpt>
      <trkpt lat="45.69588" lon="5.99928">
        <ele>1399</ele>
        <time>2012-02-09T11:18:50Z</time>
      </trkpt>
      <trkpt lat="45.69589" lon="5.99925">
        <ele>1400</ele>
        <time>2012-02-09T11:18:56Z</time>
      </trkpt>
      <trkpt lat="45.69589" lon="5.99923">
        <ele>1400</ele>
        <time>2012-02-09T11:19:00Z</time>
      </trkpt>
      <trkpt lat="45.69588" lon="5.99923">
        <ele>1402</ele>
        <time>2012-02-09T11:19:03Z</time>
      </trkpt>
      <trkpt lat="45.69586" lon="5.99922">
        <ele>1403</ele>
        <time>2012-02-09T11:19:06Z</time>
      </trkpt>
      <trkpt lat="45.69585" lon="5.9992">
        <ele>1404</ele>
        <time>2012-02-09T11:19:13Z</time>
      </trkpt>
      <trkpt lat="45.69585" lon="5.99918">
        <ele>1404</ele>
        <time>2012-02-09T11:19:15Z</time>
      </trkpt>
      <trkpt lat="45.69585" lon="5.99917">
        <ele>1404</ele>
        <time>2012-02-09T11:19:27Z</time>
      </trkpt>
      <trkpt lat="45.69586" lon="5.99915">
        <ele>1407</ele>
        <time>2012-02-09T11:19:37Z</time>
      </trkpt>
      <trkpt lat="45.69587" lon="5.99915">
        <ele>1407</ele>
        <time>2012-02-09T11:19:42Z</time>
      </trkpt>
      <trkpt lat="45.69589" lon="5.99916">
        <ele>1407</ele>
        <time>2012-02-09T11:19:50Z</time>
      </trkpt>
      <trkpt lat="45.69587" lon="5.99916">
        <ele>1407</ele>
        <time>2012-02-09T11:20:05Z</time>
      </trkpt>
      <trkpt lat="45.69586" lon="5.99915">
        <ele>1407</ele>
        <time>2012-02-09T11:20:15Z</time>
      </trkpt>
      <trkpt lat="45.69585" lon="5.99913">
        <ele>1407</ele>
        <time>2012-02-09T11:20:17Z</time>
      </trkpt>
      <trkpt lat="45.69584" lon="5.99911">
        <ele>1407</ele>
        <time>2012-02-09T11:20:20Z</time>
      </trkpt>
      <trkpt lat="45.69583" lon="5.9991">
        <ele>1407</ele>
        <time>2012-02-09T11:20:24Z</time>
      </trkpt>
      <trkpt lat="45.69581" lon="5.99908">
        <ele>1407</ele>
        <time>2012-02-09T11:20:35Z</time>
      </trkpt>
      <trkpt lat="45.6958" lon="5.99907">
        <ele>1407</ele>
        <time>2012-02-09T11:20:39Z</time>
      </trkpt>
      <trkpt lat="45.69579" lon="5.99906">
        <ele>1407</ele>
        <time>2012-02-09T11:20:43Z</time>
      </trkpt>
      <trkpt lat="45.69577" lon="5.99904">
        <ele>1407</ele>
        <time>2012-02-09T11:20:53Z</time>
      </trkpt>
      <trkpt lat="45.69577" lon="5.99903">
        <ele>1407</ele>
        <time>2012-02-09T11:20:58Z</time>
      </trkpt>
      <trkpt lat="45.69576" lon="5.99901">
        <ele>1407</ele>
        <time>2012-02-09T11:21:03Z</time>
      </trkpt>
      <trkpt lat="45.69576" lon="5.99899">
        <ele>1407</ele>
        <time>2012-02-09T11:21:06Z</time>
      </trkpt>
      <trkpt lat="45.69575" lon="5.99898">
        <ele>1407</ele>
        <time>2012-02-09T11:21:13Z</time>
      </trkpt>
      <trkpt lat="45.69574" lon="5.99896">
        <ele>1407</ele>
        <time>2012-02-09T11:21:16Z</time>
      </trkpt>
      <trkpt lat="45.69574" lon="5.99895">
        <ele>1407</ele>
        <time>2012-02-09T11:21:18Z</time>
      </trkpt>
      <trkpt lat="45.69575" lon="5.99894">
        <ele>1407</ele>
        <time>2012-02-09T11:21:43Z</time>
      </trkpt>
      <trkpt lat="45.69576" lon="5.99894">
        <ele>1407</ele>
        <time>2012-02-09T11:21:48Z</time>
      </trkpt>
      <trkpt lat="45.69577" lon="5.99894">
        <ele>1407</ele>
        <time>2012-02-09T11:21:54Z</time>
      </trkpt>
      <trkpt lat="45.69579" lon="5.99893">
        <ele>1407</ele>
        <time>2012-02-09T11:22:23Z</time>
      </trkpt>
      <trkpt lat="45.69578" lon="5.99894">
        <ele>1407</ele>
        <time>2012-02-09T11:22:35Z</time>
      </trkpt>
      <trkpt lat="45.69577" lon="5.99896">
        <ele>1407</ele>
        <time>2012-02-09T11:22:44Z</time>
      </trkpt>
      <trkpt lat="45.69579" lon="5.99895">
        <ele>1410</ele>
        <time>2012-02-09T11:23:42Z</time>
      </trkpt>
      <trkpt lat="45.6958" lon="5.99895">
        <ele>1410</ele>
        <time>2012-02-09T11:23:48Z</time>
      </trkpt>
      <trkpt lat="45.69582" lon="5.99896">
        <ele>1410</ele>
        <time>2012-02-09T11:24:16Z</time>
      </trkpt>
      <trkpt lat="45.69583" lon="5.99897">
        <ele>1410</ele>
        <time>2012-02-09T11:24:23Z</time>
      </trkpt>
      <trkpt lat="45.69584" lon="5.99896">
        <ele>1410</ele>
        <time>2012-02-09T11:24:31Z</time>
      </trkpt>
      <trkpt lat="45.69584" lon="5.99894">
        <ele>1410</ele>
        <time>2012-02-09T11:24:57Z</time>
      </trkpt>
      <trkpt lat="45.69583" lon="5.99893">
        <ele>1410</ele>
        <time>2012-02-09T11:25:06Z</time>
      </trkpt>
      <trkpt lat="45.69582" lon="5.99893">
        <ele>1410</ele>
        <time>2012-02-09T11:25:14Z</time>
      </trkpt>
      <trkpt lat="45.69581" lon="5.99891">
        <ele>1410</ele>
        <time>2012-02-09T11:25:19Z</time>
      </trkpt>
      <trkpt lat="45.69581" lon="5.99889">
        <ele>1410</ele>
        <time>2012-02-09T11:25:28Z</time>
      </trkpt>
      <trkpt lat="45.6958" lon="5.99888">
        <ele>1410</ele>
        <time>2012-02-09T11:25:33Z</time>
      </trkpt>
      <trkpt lat="45.6958" lon="5.99886">
        <ele>1410</ele>
        <time>2012-02-09T11:25:42Z</time>
      </trkpt>
      <trkpt lat="45.6958" lon="5.99884">
        <ele>1411</ele>
        <time>2012-02-09T11:25:47Z</time>
      </trkpt>
      <trkpt lat="45.6958" lon="5.99883">
        <ele>1412</ele>
        <time>2012-02-09T11:25:56Z</time>
      </trkpt>
      <trkpt lat="45.69579" lon="5.99881">
        <ele>1412</ele>
        <time>2012-02-09T11:26:03Z</time>
      </trkpt>
      <trkpt lat="45.69577" lon="5.99881">
        <ele>1412</ele>
        <time>2012-02-09T11:26:06Z</time>
      </trkpt>
      <trkpt lat="45.69577" lon="5.99879">
        <ele>1412</ele>
        <time>2012-02-09T11:26:11Z</time>
      </trkpt>
      <trkpt lat="45.69576" lon="5.99877">
        <ele>1412</ele>
        <time>2012-02-09T11:26:18Z</time>
      </trkpt>
      <trkpt lat="45.69577" lon="5.99876">
        <ele>1412</ele>
        <time>2012-02-09T11:26:35Z</time>
      </trkpt>
      <trkpt lat="45.69577" lon="5.99874">
        <ele>1414</ele>
        <time>2012-02-09T11:26:43Z</time>
      </trkpt>
      <trkpt lat="45.69576" lon="5.99874">
        <ele>1415</ele>
        <time>2012-02-09T11:27:00Z</time>
      </trkpt>
      <trkpt lat="45.69575" lon="5.99874">
        <ele>1415</ele>
        <time>2012-02-09T11:27:21Z</time>
      </trkpt>
      <trkpt lat="45.69576" lon="5.99874">
        <ele>1415</ele>
        <time>2012-02-09T11:27:31Z</time>
      </trkpt>
      <trkpt lat="45.69577" lon="5.99874">
        <ele>1415</ele>
        <time>2012-02-09T11:27:33Z</time>
      </trkpt>
      <trkpt lat="45.69577" lon="5.99871">
        <ele>1415</ele>
        <time>2012-02-09T11:27:46Z</time>
      </trkpt>
      <trkpt lat="45.69577" lon="5.99873">
        <ele>1415</ele>
        <time>2012-02-09T11:27:54Z</time>
      </trkpt>
      <trkpt lat="45.69575" lon="5.99872">
        <ele>1415</ele>
        <time>2012-02-09T11:28:01Z</time>
      </trkpt>
      <trkpt lat="45.69574" lon="5.99871">
        <ele>1415</ele>
        <time>2012-02-09T11:28:04Z</time>
      </trkpt>
      <trkpt lat="45.69573" lon="5.99869">
        <ele>1415</ele>
        <time>2012-02-09T11:28:08Z</time>
      </trkpt>
      <trkpt lat="45.69572" lon="5.99868">
        <ele>1415</ele>
        <time>2012-02-09T11:28:10Z</time>
      </trkpt>
      <trkpt lat="45.69571" lon="5.99867">
        <ele>1415</ele>
        <time>2012-02-09T11:28:13Z</time>
      </trkpt>
      <trkpt lat="45.6957" lon="5.99865">
        <ele>1415</ele>
        <time>2012-02-09T11:28:16Z</time>
      </trkpt>
      <trkpt lat="45.69569" lon="5.99863">
        <ele>1415</ele>
        <time>2012-02-09T11:28:19Z</time>
      </trkpt>
      <trkpt lat="45.69569" lon="5.99862">
        <ele>1415</ele>
        <time>2012-02-09T11:28:21Z</time>
      </trkpt>
      <trkpt lat="45.69568" lon="5.9986">
        <ele>1415</ele>
        <time>2012-02-09T11:28:25Z</time>
      </trkpt>
      <trkpt lat="45.69568" lon="5.99859">
        <ele>1416</ele>
        <time>2012-02-09T11:28:35Z</time>
      </trkpt>
      <trkpt lat="45.69567" lon="5.99857">
        <ele>1416</ele>
        <time>2012-02-09T11:28:37Z</time>
      </trkpt>
      <trkpt lat="45.69567" lon="5.99856">
        <ele>1416</ele>
        <time>2012-02-09T11:28:39Z</time>
      </trkpt>
      <trkpt lat="45.69566" lon="5.99854">
        <ele>1416</ele>
        <time>2012-02-09T11:28:41Z</time>
      </trkpt>
      <trkpt lat="45.69565" lon="5.99853">
        <ele>1416</ele>
        <time>2012-02-09T11:28:44Z</time>
      </trkpt>
      <trkpt lat="45.69566" lon="5.99853">
        <ele>1418</ele>
        <time>2012-02-09T11:28:53Z</time>
      </trkpt>
      <trkpt lat="45.69567" lon="5.99851">
        <ele>1418</ele>
        <time>2012-02-09T11:29:00Z</time>
      </trkpt>
      <trkpt lat="45.69568" lon="5.9985">
        <ele>1419</ele>
        <time>2012-02-09T11:29:06Z</time>
      </trkpt>
      <trkpt lat="45.69569" lon="5.9985">
        <ele>1419</ele>
        <time>2012-02-09T11:29:21Z</time>
      </trkpt>
      <trkpt lat="45.6957" lon="5.99848">
        <ele>1419</ele>
        <time>2012-02-09T11:29:31Z</time>
      </trkpt>
      <trkpt lat="45.69568" lon="5.99847">
        <ele>1419</ele>
        <time>2012-02-09T11:29:41Z</time>
      </trkpt>
      <trkpt lat="45.69567" lon="5.99846">
        <ele>1420</ele>
        <time>2012-02-09T11:29:49Z</time>
      </trkpt>
      <trkpt lat="45.69568" lon="5.99845">
        <ele>1420</ele>
        <time>2012-02-09T11:29:58Z</time>
      </trkpt>
      <trkpt lat="45.69569" lon="5.99844">
        <ele>1421</ele>
        <time>2012-02-09T11:30:03Z</time>
      </trkpt>
      <trkpt lat="45.69571" lon="5.99845">
        <ele>1421</ele>
        <time>2012-02-09T11:30:12Z</time>
      </trkpt>
      <trkpt lat="45.69572" lon="5.99845">
        <ele>1421</ele>
        <time>2012-02-09T11:30:17Z</time>
      </trkpt>
      <trkpt lat="45.69573" lon="5.99846">
        <ele>1421</ele>
        <time>2012-02-09T11:30:36Z</time>
      </trkpt>
      <trkpt lat="45.69574" lon="5.99846">
        <ele>1421</ele>
        <time>2012-02-09T11:30:38Z</time>
      </trkpt>
      <trkpt lat="45.69576" lon="5.99846">
        <ele>1422</ele>
        <time>2012-02-09T11:30:44Z</time>
      </trkpt>
      <trkpt lat="45.69576" lon="5.99848">
        <ele>1422</ele>
        <time>2012-02-09T11:31:08Z</time>
      </trkpt>
      <trkpt lat="45.69577" lon="5.99849">
        <ele>1423</ele>
        <time>2012-02-09T11:31:15Z</time>
      </trkpt>
      <trkpt lat="45.69578" lon="5.99846">
        <ele>1424</ele>
        <time>2012-02-09T11:31:27Z</time>
      </trkpt>
      <trkpt lat="45.69578" lon="5.99844">
        <ele>1424</ele>
        <time>2012-02-09T11:31:35Z</time>
      </trkpt>
      <trkpt lat="45.69579" lon="5.99842">
        <ele>1424</ele>
        <time>2012-02-09T11:31:39Z</time>
      </trkpt>
      <trkpt lat="45.69578" lon="5.9984">
        <ele>1424</ele>
        <time>2012-02-09T11:31:47Z</time>
      </trkpt>
      <trkpt lat="45.69577" lon="5.99839">
        <ele>1424</ele>
        <time>2012-02-09T11:31:51Z</time>
      </trkpt>
      <trkpt lat="45.69576" lon="5.99837">
        <ele>1424</ele>
        <time>2012-02-09T11:31:55Z</time>
      </trkpt>
      <trkpt lat="45.69576" lon="5.99835">
        <ele>1424</ele>
        <time>2012-02-09T11:31:58Z</time>
      </trkpt>
      <trkpt lat="45.69576" lon="5.99834">
        <ele>1424</ele>
        <time>2012-02-09T11:32:01Z</time>
      </trkpt>
      <trkpt lat="45.69576" lon="5.99832">
        <ele>1425</ele>
        <time>2012-02-09T11:32:04Z</time>
      </trkpt>
      <trkpt lat="45.69576" lon="5.99831">
        <ele>1426</ele>
        <time>2012-02-09T11:32:07Z</time>
      </trkpt>
      <trkpt lat="45.69576" lon="5.99829">
        <ele>1426</ele>
        <time>2012-02-09T11:32:10Z</time>
      </trkpt>
      <trkpt lat="45.69575" lon="5.99827">
        <ele>1427</ele>
        <time>2012-02-09T11:32:13Z</time>
      </trkpt>
      <trkpt lat="45.69574" lon="5.99827">
        <ele>1429</ele>
        <time>2012-02-09T11:32:32Z</time>
      </trkpt>
      <trkpt lat="45.69573" lon="5.99825">
        <ele>1430</ele>
        <time>2012-02-09T11:32:59Z</time>
      </trkpt>
      <trkpt lat="45.69573" lon="5.99823">
        <ele>1430</ele>
        <time>2012-02-09T11:33:01Z</time>
      </trkpt>
      <trkpt lat="45.69573" lon="5.99821">
        <ele>1430</ele>
        <time>2012-02-09T11:33:03Z</time>
      </trkpt>
      <trkpt lat="45.69573" lon="5.99819">
        <ele>1430</ele>
        <time>2012-02-09T11:33:05Z</time>
      </trkpt>
      <trkpt lat="45.69574" lon="5.99817">
        <ele>1431</ele>
        <time>2012-02-09T11:33:07Z</time>
      </trkpt>
      <trkpt lat="45.69574" lon="5.99814">
        <ele>1432</ele>
        <time>2012-02-09T11:33:10Z</time>
      </trkpt>
      <trkpt lat="45.69574" lon="5.99813">
        <ele>1432</ele>
        <time>2012-02-09T11:33:12Z</time>
      </trkpt>
      <trkpt lat="45.69573" lon="5.9981">
        <ele>1433</ele>
        <time>2012-02-09T11:33:15Z</time>
      </trkpt>
      <trkpt lat="45.69573" lon="5.99809">
        <ele>1433</ele>
        <time>2012-02-09T11:33:17Z</time>
      </trkpt>
      <trkpt lat="45.69573" lon="5.99806">
        <ele>1434</ele>
        <time>2012-02-09T11:33:19Z</time>
      </trkpt>
      <trkpt lat="45.69573" lon="5.99805">
        <ele>1434</ele>
        <time>2012-02-09T11:33:22Z</time>
      </trkpt>
      <trkpt lat="45.69573" lon="5.99803">
        <ele>1434</ele>
        <time>2012-02-09T11:33:24Z</time>
      </trkpt>
      <trkpt lat="45.69574" lon="5.99801">
        <ele>1435</ele>
        <time>2012-02-09T11:33:27Z</time>
      </trkpt>
      <trkpt lat="45.69574" lon="5.998">
        <ele>1435</ele>
        <time>2012-02-09T11:33:29Z</time>
      </trkpt>
      <trkpt lat="45.69574" lon="5.99798">
        <ele>1435</ele>
        <time>2012-02-09T11:33:31Z</time>
      </trkpt>
      <trkpt lat="45.69574" lon="5.99797">
        <ele>1435</ele>
        <time>2012-02-09T11:33:35Z</time>
      </trkpt>
      <trkpt lat="45.69576" lon="5.99797">
        <ele>1435</ele>
        <time>2012-02-09T11:33:37Z</time>
      </trkpt>
      <trkpt lat="45.69577" lon="5.99798">
        <ele>1435</ele>
        <time>2012-02-09T11:33:39Z</time>
      </trkpt>
      <trkpt lat="45.69578" lon="5.99798">
        <ele>1435</ele>
        <time>2012-02-09T11:33:41Z</time>
      </trkpt>
      <trkpt lat="45.69579" lon="5.99798">
        <ele>1435</ele>
        <time>2012-02-09T11:33:44Z</time>
      </trkpt>
      <trkpt lat="45.69581" lon="5.99798">
        <ele>1435</ele>
        <time>2012-02-09T11:33:46Z</time>
      </trkpt>
      <trkpt lat="45.69582" lon="5.99799">
        <ele>1435</ele>
        <time>2012-02-09T11:33:49Z</time>
      </trkpt>
      <trkpt lat="45.69584" lon="5.998">
        <ele>1435</ele>
        <time>2012-02-09T11:33:51Z</time>
      </trkpt>
      <trkpt lat="45.69585" lon="5.99801">
        <ele>1436</ele>
        <time>2012-02-09T11:33:55Z</time>
      </trkpt>
      <trkpt lat="45.69586" lon="5.99803">
        <ele>1437</ele>
        <time>2012-02-09T11:33:58Z</time>
      </trkpt>
      <trkpt lat="45.69587" lon="5.99804">
        <ele>1437</ele>
        <time>2012-02-09T11:34:00Z</time>
      </trkpt>
      <trkpt lat="45.69589" lon="5.99805">
        <ele>1437</ele>
        <time>2012-02-09T11:34:02Z</time>
      </trkpt>
      <trkpt lat="45.6959" lon="5.99806">
        <ele>1437</ele>
        <time>2012-02-09T11:34:05Z</time>
      </trkpt>
      <trkpt lat="45.69591" lon="5.99806">
        <ele>1437</ele>
        <time>2012-02-09T11:34:07Z</time>
      </trkpt>
      <trkpt lat="45.69592" lon="5.99806">
        <ele>1437</ele>
        <time>2012-02-09T11:34:09Z</time>
      </trkpt>
      <trkpt lat="45.69593" lon="5.99807">
        <ele>1437</ele>
        <time>2012-02-09T11:34:11Z</time>
      </trkpt>
      <trkpt lat="45.69595" lon="5.99808">
        <ele>1438</ele>
        <time>2012-02-09T11:34:14Z</time>
      </trkpt>
      <trkpt lat="45.69596" lon="5.99808">
        <ele>1438</ele>
        <time>2012-02-09T11:34:30Z</time>
      </trkpt>
      <trkpt lat="45.69596" lon="5.99806">
        <ele>1438</ele>
        <time>2012-02-09T11:34:32Z</time>
      </trkpt>
      <trkpt lat="45.69596" lon="5.99804">
        <ele>1439</ele>
        <time>2012-02-09T11:34:35Z</time>
      </trkpt>
      <trkpt lat="45.69598" lon="5.99803">
        <ele>1439</ele>
        <time>2012-02-09T11:34:38Z</time>
      </trkpt>
      <trkpt lat="45.69599" lon="5.99802">
        <ele>1440</ele>
        <time>2012-02-09T11:34:42Z</time>
      </trkpt>
      <trkpt lat="45.69601" lon="5.99801">
        <ele>1440</ele>
        <time>2012-02-09T11:34:44Z</time>
      </trkpt>
      <trkpt lat="45.69601" lon="5.99801">
        <ele>1440</ele>
        <time>2012-02-09T11:34:58Z</time>
      </trkpt>
      <trkpt lat="45.69602" lon="5.99799">
        <ele>1440</ele>
        <time>2012-02-09T11:35:12Z</time>
      </trkpt>
      <trkpt lat="45.69602" lon="5.99797">
        <ele>1440</ele>
        <time>2012-02-09T11:35:14Z</time>
      </trkpt>
      <trkpt lat="45.69603" lon="5.99795">
        <ele>1440</ele>
        <time>2012-02-09T11:35:17Z</time>
      </trkpt>
      <trkpt lat="45.69603" lon="5.99794">
        <ele>1440</ele>
        <time>2012-02-09T11:35:23Z</time>
      </trkpt>
      <trkpt lat="45.69603" lon="5.99792">
        <ele>1440</ele>
        <time>2012-02-09T11:35:26Z</time>
      </trkpt>
      <trkpt lat="45.69604" lon="5.99791">
        <ele>1441</ele>
        <time>2012-02-09T11:35:29Z</time>
      </trkpt>
      <trkpt lat="45.69606" lon="5.9979">
        <ele>1441</ele>
        <time>2012-02-09T11:35:31Z</time>
      </trkpt>
      <trkpt lat="45.69607" lon="5.99789">
        <ele>1442</ele>
        <time>2012-02-09T11:35:34Z</time>
      </trkpt>
      <trkpt lat="45.69608" lon="5.99788">
        <ele>1442</ele>
        <time>2012-02-09T11:35:36Z</time>
      </trkpt>
      <trkpt lat="45.69609" lon="5.99787">
        <ele>1443</ele>
        <time>2012-02-09T11:35:38Z</time>
      </trkpt>
      <trkpt lat="45.69611" lon="5.99786">
        <ele>1444</ele>
        <time>2012-02-09T11:35:41Z</time>
      </trkpt>
      <trkpt lat="45.69612" lon="5.99786">
        <ele>1444</ele>
        <time>2012-02-09T11:35:44Z</time>
      </trkpt>
      <trkpt lat="45.69614" lon="5.99784">
        <ele>1445</ele>
        <time>2012-02-09T11:35:47Z</time>
      </trkpt>
      <trkpt lat="45.69615" lon="5.99782">
        <ele>1446</ele>
        <time>2012-02-09T11:35:50Z</time>
      </trkpt>
      <trkpt lat="45.69616" lon="5.99781">
        <ele>1446</ele>
        <time>2012-02-09T11:35:54Z</time>
      </trkpt>
      <trkpt lat="45.69617" lon="5.9978">
        <ele>1446</ele>
        <time>2012-02-09T11:35:56Z</time>
      </trkpt>
      <trkpt lat="45.69619" lon="5.99778">
        <ele>1447</ele>
        <time>2012-02-09T11:36:00Z</time>
      </trkpt>
      <trkpt lat="45.6962" lon="5.99778">
        <ele>1447</ele>
        <time>2012-02-09T11:36:02Z</time>
      </trkpt>
      <trkpt lat="45.69621" lon="5.99777">
        <ele>1447</ele>
        <time>2012-02-09T11:36:05Z</time>
      </trkpt>
      <trkpt lat="45.69623" lon="5.99775">
        <ele>1447</ele>
        <time>2012-02-09T11:36:09Z</time>
      </trkpt>
      <trkpt lat="45.69624" lon="5.99775">
        <ele>1447</ele>
        <time>2012-02-09T11:36:11Z</time>
      </trkpt>
      <trkpt lat="45.69625" lon="5.99774">
        <ele>1447</ele>
        <time>2012-02-09T11:36:15Z</time>
      </trkpt>
      <trkpt lat="45.69627" lon="5.99774">
        <ele>1449</ele>
        <time>2012-02-09T11:36:26Z</time>
      </trkpt>
      <trkpt lat="45.69628" lon="5.99773">
        <ele>1449</ele>
        <time>2012-02-09T11:36:29Z</time>
      </trkpt>
      <trkpt lat="45.69629" lon="5.99772">
        <ele>1449</ele>
        <time>2012-02-09T11:36:31Z</time>
      </trkpt>
      <trkpt lat="45.6963" lon="5.99771">
        <ele>1449</ele>
        <time>2012-02-09T11:36:33Z</time>
      </trkpt>
      <trkpt lat="45.69632" lon="5.9977">
        <ele>1449</ele>
        <time>2012-02-09T11:36:36Z</time>
      </trkpt>
      <trkpt lat="45.69633" lon="5.9977">
        <ele>1450</ele>
        <time>2012-02-09T11:36:40Z</time>
      </trkpt>
      <trkpt lat="45.69634" lon="5.99769">
        <ele>1450</ele>
        <time>2012-02-09T11:36:42Z</time>
      </trkpt>
      <trkpt lat="45.69636" lon="5.99768">
        <ele>1451</ele>
        <time>2012-02-09T11:36:44Z</time>
      </trkpt>
      <trkpt lat="45.69638" lon="5.99767">
        <ele>1451</ele>
        <time>2012-02-09T11:36:46Z</time>
      </trkpt>
      <trkpt lat="45.69639" lon="5.99765">
        <ele>1452</ele>
        <time>2012-02-09T11:36:52Z</time>
      </trkpt>
      <trkpt lat="45.69641" lon="5.99763">
        <ele>1452</ele>
        <time>2012-02-09T11:36:54Z</time>
      </trkpt>
      <trkpt lat="45.69642" lon="5.99761">
        <ele>1453</ele>
        <time>2012-02-09T11:36:57Z</time>
      </trkpt>
      <trkpt lat="45.69642" lon="5.9976">
        <ele>1455</ele>
        <time>2012-02-09T11:37:00Z</time>
      </trkpt>
      <trkpt lat="45.69641" lon="5.99758">
        <ele>1456</ele>
        <time>2012-02-09T11:37:25Z</time>
      </trkpt>
      <trkpt lat="45.69642" lon="5.99757">
        <ele>1456</ele>
        <time>2012-02-09T11:37:32Z</time>
      </trkpt>
      <trkpt lat="45.69642" lon="5.99755">
        <ele>1460</ele>
        <time>2012-02-09T11:38:05Z</time>
      </trkpt>
      <trkpt lat="45.69641" lon="5.99754">
        <ele>1460</ele>
        <time>2012-02-09T11:38:07Z</time>
      </trkpt>
      <trkpt lat="45.6964" lon="5.99752">
        <ele>1460</ele>
        <time>2012-02-09T11:38:10Z</time>
      </trkpt>
      <trkpt lat="45.6964" lon="5.99751">
        <ele>1460</ele>
        <time>2012-02-09T11:38:14Z</time>
      </trkpt>
      <trkpt lat="45.69638" lon="5.99749">
        <ele>1460</ele>
        <time>2012-02-09T11:38:16Z</time>
      </trkpt>
      <trkpt lat="45.69637" lon="5.99748">
        <ele>1460</ele>
        <time>2012-02-09T11:38:19Z</time>
      </trkpt>
      <trkpt lat="45.69636" lon="5.99746">
        <ele>1460</ele>
        <time>2012-02-09T11:38:22Z</time>
      </trkpt>
      <trkpt lat="45.69635" lon="5.99744">
        <ele>1460</ele>
        <time>2012-02-09T11:38:25Z</time>
      </trkpt>
      <trkpt lat="45.69634" lon="5.99742">
        <ele>1460</ele>
        <time>2012-02-09T11:38:29Z</time>
      </trkpt>
      <trkpt lat="45.69633" lon="5.9974">
        <ele>1460</ele>
        <time>2012-02-09T11:38:32Z</time>
      </trkpt>
      <trkpt lat="45.69631" lon="5.99739">
        <ele>1460</ele>
        <time>2012-02-09T11:38:35Z</time>
      </trkpt>
      <trkpt lat="45.69631" lon="5.99737">
        <ele>1460</ele>
        <time>2012-02-09T11:38:37Z</time>
      </trkpt>
      <trkpt lat="45.6963" lon="5.99735">
        <ele>1460</ele>
        <time>2012-02-09T11:38:39Z</time>
      </trkpt>
      <trkpt lat="45.69629" lon="5.99733">
        <ele>1460</ele>
        <time>2012-02-09T11:38:41Z</time>
      </trkpt>
      <trkpt lat="45.69629" lon="5.99731">
        <ele>1460</ele>
        <time>2012-02-09T11:38:43Z</time>
      </trkpt>
      <trkpt lat="45.69628" lon="5.99729">
        <ele>1460</ele>
        <time>2012-02-09T11:38:46Z</time>
      </trkpt>
      <trkpt lat="45.69627" lon="5.99727">
        <ele>1460</ele>
        <time>2012-02-09T11:38:48Z</time>
      </trkpt>
      <trkpt lat="45.69626" lon="5.99726">
        <ele>1460</ele>
        <time>2012-02-09T11:38:50Z</time>
      </trkpt>
      <trkpt lat="45.69625" lon="5.99724">
        <ele>1460</ele>
        <time>2012-02-09T11:38:52Z</time>
      </trkpt>
      <trkpt lat="45.69624" lon="5.99722">
        <ele>1460</ele>
        <time>2012-02-09T11:38:54Z</time>
      </trkpt>
      <trkpt lat="45.69623" lon="5.9972">
        <ele>1460</ele>
        <time>2012-02-09T11:38:58Z</time>
      </trkpt>
      <trkpt lat="45.69622" lon="5.99719">
        <ele>1460</ele>
        <time>2012-02-09T11:39:01Z</time>
      </trkpt>
      <trkpt lat="45.6962" lon="5.99717">
        <ele>1460</ele>
        <time>2012-02-09T11:39:03Z</time>
      </trkpt>
      <trkpt lat="45.69619" lon="5.99716">
        <ele>1460</ele>
        <time>2012-02-09T11:39:06Z</time>
      </trkpt>
      <trkpt lat="45.69617" lon="5.99714">
        <ele>1460</ele>
        <time>2012-02-09T11:39:09Z</time>
      </trkpt>
      <trkpt lat="45.69616" lon="5.99713">
        <ele>1460</ele>
        <time>2012-02-09T11:39:12Z</time>
      </trkpt>
      <trkpt lat="45.69614" lon="5.99712">
        <ele>1460</ele>
        <time>2012-02-09T11:39:32Z</time>
      </trkpt>
      <trkpt lat="45.69613" lon="5.99712">
        <ele>1460</ele>
        <time>2012-02-09T11:39:34Z</time>
      </trkpt>
      <trkpt lat="45.69611" lon="5.99713">
        <ele>1460</ele>
        <time>2012-02-09T11:39:36Z</time>
      </trkpt>
      <trkpt lat="45.6961" lon="5.99714">
        <ele>1459</ele>
        <time>2012-02-09T11:39:38Z</time>
      </trkpt>
      <trkpt lat="45.69608" lon="5.99715">
        <ele>1459</ele>
        <time>2012-02-09T11:39:40Z</time>
      </trkpt>
      <trkpt lat="45.69606" lon="5.99717">
        <ele>1458</ele>
        <time>2012-02-09T11:39:42Z</time>
      </trkpt>
      <trkpt lat="45.69604" lon="5.99717">
        <ele>1458</ele>
        <time>2012-02-09T11:39:44Z</time>
      </trkpt>
      <trkpt lat="45.69603" lon="5.99717">
        <ele>1457</ele>
        <time>2012-02-09T11:39:47Z</time>
      </trkpt>
      <trkpt lat="45.69601" lon="5.99717">
        <ele>1457</ele>
        <time>2012-02-09T11:39:49Z</time>
      </trkpt>
      <trkpt lat="45.696" lon="5.99717">
        <ele>1457</ele>
        <time>2012-02-09T11:39:51Z</time>
      </trkpt>
      <trkpt lat="45.69598" lon="5.99716">
        <ele>1456</ele>
        <time>2012-02-09T11:39:53Z</time>
      </trkpt>
      <trkpt lat="45.69597" lon="5.99714">
        <ele>1456</ele>
        <time>2012-02-09T11:39:55Z</time>
      </trkpt>
      <trkpt lat="45.69596" lon="5.99713">
        <ele>1456</ele>
        <time>2012-02-09T11:39:57Z</time>
      </trkpt>
      <trkpt lat="45.69595" lon="5.99711">
        <ele>1456</ele>
        <time>2012-02-09T11:39:59Z</time>
      </trkpt>
      <trkpt lat="45.69594" lon="5.99709">
        <ele>1456</ele>
        <time>2012-02-09T11:40:02Z</time>
      </trkpt>
      <trkpt lat="45.69592" lon="5.99706">
        <ele>1456</ele>
        <time>2012-02-09T11:40:04Z</time>
      </trkpt>
      <trkpt lat="45.69591" lon="5.99704">
        <ele>1455</ele>
        <time>2012-02-09T11:40:07Z</time>
      </trkpt>
      <trkpt lat="45.69591" lon="5.99702">
        <ele>1455</ele>
        <time>2012-02-09T11:40:09Z</time>
      </trkpt>
      <trkpt lat="45.6959" lon="5.997">
        <ele>1455</ele>
        <time>2012-02-09T11:40:12Z</time>
      </trkpt>
      <trkpt lat="45.69589" lon="5.99698">
        <ele>1455</ele>
        <time>2012-02-09T11:40:14Z</time>
      </trkpt>
      <trkpt lat="45.69588" lon="5.99696">
        <ele>1455</ele>
        <time>2012-02-09T11:40:16Z</time>
      </trkpt>
      <trkpt lat="45.69588" lon="5.99694">
        <ele>1455</ele>
        <time>2012-02-09T11:40:19Z</time>
      </trkpt>
      <trkpt lat="45.69587" lon="5.99692">
        <ele>1455</ele>
        <time>2012-02-09T11:40:21Z</time>
      </trkpt>
      <trkpt lat="45.69585" lon="5.99691">
        <ele>1455</ele>
        <time>2012-02-09T11:40:23Z</time>
      </trkpt>
      <trkpt lat="45.69584" lon="5.99688">
        <ele>1455</ele>
        <time>2012-02-09T11:40:25Z</time>
      </trkpt>
      <trkpt lat="45.69584" lon="5.99685">
        <ele>1455</ele>
        <time>2012-02-09T11:40:27Z</time>
      </trkpt>
      <trkpt lat="45.69583" lon="5.99682">
        <ele>1455</ele>
        <time>2012-02-09T11:40:29Z</time>
      </trkpt>
      <trkpt lat="45.69582" lon="5.9968">
        <ele>1455</ele>
        <time>2012-02-09T11:40:31Z</time>
      </trkpt>
      <trkpt lat="45.69582" lon="5.99678">
        <ele>1455</ele>
        <time>2012-02-09T11:40:33Z</time>
      </trkpt>
      <trkpt lat="45.69581" lon="5.99676">
        <ele>1455</ele>
        <time>2012-02-09T11:40:35Z</time>
      </trkpt>
      <trkpt lat="45.6958" lon="5.99673">
        <ele>1455</ele>
        <time>2012-02-09T11:40:37Z</time>
      </trkpt>
      <trkpt lat="45.69579" lon="5.99672">
        <ele>1455</ele>
        <time>2012-02-09T11:40:39Z</time>
      </trkpt>
      <trkpt lat="45.69578" lon="5.9967">
        <ele>1455</ele>
        <time>2012-02-09T11:40:41Z</time>
      </trkpt>
      <trkpt lat="45.69576" lon="5.99668">
        <ele>1455</ele>
        <time>2012-02-09T11:40:43Z</time>
      </trkpt>
      <trkpt lat="45.69574" lon="5.99667">
        <ele>1455</ele>
        <time>2012-02-09T11:40:45Z</time>
      </trkpt>
      <trkpt lat="45.69573" lon="5.99666">
        <ele>1455</ele>
        <time>2012-02-09T11:40:47Z</time>
      </trkpt>
      <trkpt lat="45.69571" lon="5.99667">
        <ele>1455</ele>
        <time>2012-02-09T11:40:49Z</time>
      </trkpt>
      <trkpt lat="45.6957" lon="5.99668">
        <ele>1455</ele>
        <time>2012-02-09T11:40:51Z</time>
      </trkpt>
      <trkpt lat="45.69568" lon="5.99669">
        <ele>1455</ele>
        <time>2012-02-09T11:40:53Z</time>
      </trkpt>
      <trkpt lat="45.69567" lon="5.99669">
        <ele>1455</ele>
        <time>2012-02-09T11:40:55Z</time>
      </trkpt>
      <trkpt lat="45.69565" lon="5.9967">
        <ele>1455</ele>
        <time>2012-02-09T11:40:57Z</time>
      </trkpt>
      <trkpt lat="45.69563" lon="5.99671">
        <ele>1455</ele>
        <time>2012-02-09T11:40:59Z</time>
      </trkpt>
      <trkpt lat="45.69561" lon="5.99671">
        <ele>1455</ele>
        <time>2012-02-09T11:41:01Z</time>
      </trkpt>
      <trkpt lat="45.69559" lon="5.99672">
        <ele>1455</ele>
        <time>2012-02-09T11:41:04Z</time>
      </trkpt>
      <trkpt lat="45.69557" lon="5.99671">
        <ele>1455</ele>
        <time>2012-02-09T11:41:06Z</time>
      </trkpt>
      <trkpt lat="45.69556" lon="5.9967">
        <ele>1455</ele>
        <time>2012-02-09T11:41:08Z</time>
      </trkpt>
      <trkpt lat="45.69555" lon="5.99668">
        <ele>1455</ele>
        <time>2012-02-09T11:41:11Z</time>
      </trkpt>
      <trkpt lat="45.69553" lon="5.99667">
        <ele>1455</ele>
        <time>2012-02-09T11:41:14Z</time>
      </trkpt>
      <trkpt lat="45.69551" lon="5.99667">
        <ele>1455</ele>
        <time>2012-02-09T11:41:16Z</time>
      </trkpt>
      <trkpt lat="45.6955" lon="5.99668">
        <ele>1455</ele>
        <time>2012-02-09T11:41:18Z</time>
      </trkpt>
      <trkpt lat="45.69548" lon="5.99668">
        <ele>1455</ele>
        <time>2012-02-09T11:41:20Z</time>
      </trkpt>
      <trkpt lat="45.69547" lon="5.99669">
        <ele>1454</ele>
        <time>2012-02-09T11:41:22Z</time>
      </trkpt>
      <trkpt lat="45.69545" lon="5.99669">
        <ele>1454</ele>
        <time>2012-02-09T11:41:24Z</time>
      </trkpt>
      <trkpt lat="45.69543" lon="5.9967">
        <ele>1454</ele>
        <time>2012-02-09T11:41:26Z</time>
      </trkpt>
      <trkpt lat="45.69541" lon="5.9967">
        <ele>1454</ele>
        <time>2012-02-09T11:41:28Z</time>
      </trkpt>
      <trkpt lat="45.69538" lon="5.99669">
        <ele>1454</ele>
        <time>2012-02-09T11:41:31Z</time>
      </trkpt>
      <trkpt lat="45.69536" lon="5.99668">
        <ele>1454</ele>
        <time>2012-02-09T11:41:33Z</time>
      </trkpt>
      <trkpt lat="45.69533" lon="5.99665">
        <ele>1454</ele>
        <time>2012-02-09T11:41:36Z</time>
      </trkpt>
      <trkpt lat="45.69532" lon="5.99664">
        <ele>1454</ele>
        <time>2012-02-09T11:41:38Z</time>
      </trkpt>
      <trkpt lat="45.6953" lon="5.99663">
        <ele>1454</ele>
        <time>2012-02-09T11:41:40Z</time>
      </trkpt>
      <trkpt lat="45.69529" lon="5.99661">
        <ele>1454</ele>
        <time>2012-02-09T11:41:42Z</time>
      </trkpt>
      <trkpt lat="45.69528" lon="5.99659">
        <ele>1454</ele>
        <time>2012-02-09T11:41:44Z</time>
      </trkpt>
      <trkpt lat="45.69527" lon="5.99657">
        <ele>1453</ele>
        <time>2012-02-09T11:41:46Z</time>
      </trkpt>
      <trkpt lat="45.69526" lon="5.99655">
        <ele>1453</ele>
        <time>2012-02-09T11:41:48Z</time>
      </trkpt>
      <trkpt lat="45.69524" lon="5.99653">
        <ele>1453</ele>
        <time>2012-02-09T11:41:50Z</time>
      </trkpt>
      <trkpt lat="45.69523" lon="5.99652">
        <ele>1453</ele>
        <time>2012-02-09T11:41:52Z</time>
      </trkpt>
      <trkpt lat="45.69522" lon="5.9965">
        <ele>1453</ele>
        <time>2012-02-09T11:41:54Z</time>
      </trkpt>
      <trkpt lat="45.69521" lon="5.99648">
        <ele>1452</ele>
        <time>2012-02-09T11:41:56Z</time>
      </trkpt>
      <trkpt lat="45.6952" lon="5.99646">
        <ele>1452</ele>
        <time>2012-02-09T11:41:58Z</time>
      </trkpt>
      <trkpt lat="45.69519" lon="5.99645">
        <ele>1452</ele>
        <time>2012-02-09T11:42:00Z</time>
      </trkpt>
      <trkpt lat="45.69518" lon="5.99643">
        <ele>1452</ele>
        <time>2012-02-09T11:42:02Z</time>
      </trkpt>
      <trkpt lat="45.69516" lon="5.99641">
        <ele>1451</ele>
        <time>2012-02-09T11:42:04Z</time>
      </trkpt>
      <trkpt lat="45.69515" lon="5.9964">
        <ele>1451</ele>
        <time>2012-02-09T11:42:06Z</time>
      </trkpt>
      <trkpt lat="45.69514" lon="5.99638">
        <ele>1451</ele>
        <time>2012-02-09T11:42:08Z</time>
      </trkpt>
      <trkpt lat="45.69513" lon="5.99637">
        <ele>1450</ele>
        <time>2012-02-09T11:42:10Z</time>
      </trkpt>
      <trkpt lat="45.69512" lon="5.99635">
        <ele>1450</ele>
        <time>2012-02-09T11:42:12Z</time>
      </trkpt>
      <trkpt lat="45.6951" lon="5.99634">
        <ele>1450</ele>
        <time>2012-02-09T11:42:14Z</time>
      </trkpt>
      <trkpt lat="45.69509" lon="5.99632">
        <ele>1450</ele>
        <time>2012-02-09T11:42:16Z</time>
      </trkpt>
      <trkpt lat="45.69508" lon="5.9963">
        <ele>1450</ele>
        <time>2012-02-09T11:42:18Z</time>
      </trkpt>
      <trkpt lat="45.69506" lon="5.99628">
        <ele>1450</ele>
        <time>2012-02-09T11:42:20Z</time>
      </trkpt>
      <trkpt lat="45.69506" lon="5.99627">
        <ele>1450</ele>
        <time>2012-02-09T11:42:22Z</time>
      </trkpt>
      <trkpt lat="45.69505" lon="5.99625">
        <ele>1450</ele>
        <time>2012-02-09T11:42:24Z</time>
      </trkpt>
      <trkpt lat="45.69505" lon="5.99624">
        <ele>1450</ele>
        <time>2012-02-09T11:42:26Z</time>
      </trkpt>
      <trkpt lat="45.69503" lon="5.99622">
        <ele>1450</ele>
        <time>2012-02-09T11:42:28Z</time>
      </trkpt>
      <trkpt lat="45.69503" lon="5.9962">
        <ele>1450</ele>
        <time>2012-02-09T11:42:30Z</time>
      </trkpt>
      <trkpt lat="45.69501" lon="5.99619">
        <ele>1450</ele>
        <time>2012-02-09T11:42:32Z</time>
      </trkpt>
      <trkpt lat="45.695" lon="5.99617">
        <ele>1450</ele>
        <time>2012-02-09T11:42:35Z</time>
      </trkpt>
      <trkpt lat="45.69498" lon="5.99615">
        <ele>1450</ele>
        <time>2012-02-09T11:42:37Z</time>
      </trkpt>
      <trkpt lat="45.69497" lon="5.99614">
        <ele>1450</ele>
        <time>2012-02-09T11:42:39Z</time>
      </trkpt>
      <trkpt lat="45.69496" lon="5.99613">
        <ele>1450</ele>
        <time>2012-02-09T11:42:41Z</time>
      </trkpt>
      <trkpt lat="45.69495" lon="5.99612">
        <ele>1450</ele>
        <time>2012-02-09T11:42:43Z</time>
      </trkpt>
      <trkpt lat="45.69493" lon="5.99611">
        <ele>1450</ele>
        <time>2012-02-09T11:42:46Z</time>
      </trkpt>
      <trkpt lat="45.69492" lon="5.99609">
        <ele>1450</ele>
        <time>2012-02-09T11:42:49Z</time>
      </trkpt>
      <trkpt lat="45.69491" lon="5.99608">
        <ele>1450</ele>
        <time>2012-02-09T11:42:52Z</time>
      </trkpt>
      <trkpt lat="45.6949" lon="5.99606">
        <ele>1450</ele>
        <time>2012-02-09T11:42:55Z</time>
      </trkpt>
      <trkpt lat="45.69489" lon="5.99604">
        <ele>1450</ele>
        <time>2012-02-09T11:42:58Z</time>
      </trkpt>
      <trkpt lat="45.69488" lon="5.99603">
        <ele>1450</ele>
        <time>2012-02-09T11:43:01Z</time>
      </trkpt>
      <trkpt lat="45.69487" lon="5.99601">
        <ele>1450</ele>
        <time>2012-02-09T11:43:04Z</time>
      </trkpt>
      <trkpt lat="45.69486" lon="5.99599">
        <ele>1451</ele>
        <time>2012-02-09T11:43:06Z</time>
      </trkpt>
      <trkpt lat="45.69485" lon="5.99597">
        <ele>1452</ele>
        <time>2012-02-09T11:43:09Z</time>
      </trkpt>
      <trkpt lat="45.69484" lon="5.99596">
        <ele>1452</ele>
        <time>2012-02-09T11:43:12Z</time>
      </trkpt>
      <trkpt lat="45.69482" lon="5.99594">
        <ele>1452</ele>
        <time>2012-02-09T11:43:15Z</time>
      </trkpt>
      <trkpt lat="45.69481" lon="5.99593">
        <ele>1452</ele>
        <time>2012-02-09T11:43:17Z</time>
      </trkpt>
      <trkpt lat="45.6948" lon="5.99592">
        <ele>1452</ele>
        <time>2012-02-09T11:43:19Z</time>
      </trkpt>
      <trkpt lat="45.69479" lon="5.99592">
        <ele>1452</ele>
        <time>2012-02-09T11:43:21Z</time>
      </trkpt>
      <trkpt lat="45.69477" lon="5.9959">
        <ele>1452</ele>
        <time>2012-02-09T11:43:23Z</time>
      </trkpt>
      <trkpt lat="45.69476" lon="5.99589">
        <ele>1452</ele>
        <time>2012-02-09T11:43:25Z</time>
      </trkpt>
      <trkpt lat="45.69474" lon="5.99588">
        <ele>1452</ele>
        <time>2012-02-09T11:43:27Z</time>
      </trkpt>
      <trkpt lat="45.69473" lon="5.99587">
        <ele>1452</ele>
        <time>2012-02-09T11:43:29Z</time>
      </trkpt>
      <trkpt lat="45.69471" lon="5.99586">
        <ele>1452</ele>
        <time>2012-02-09T11:43:31Z</time>
      </trkpt>
      <trkpt lat="45.6947" lon="5.99586">
        <ele>1452</ele>
        <time>2012-02-09T11:43:33Z</time>
      </trkpt>
      <trkpt lat="45.69469" lon="5.99586">
        <ele>1452</ele>
        <time>2012-02-09T11:43:35Z</time>
      </trkpt>
      <trkpt lat="45.69466" lon="5.99585">
        <ele>1452</ele>
        <time>2012-02-09T11:43:37Z</time>
      </trkpt>
      <trkpt lat="45.69465" lon="5.99585">
        <ele>1452</ele>
        <time>2012-02-09T11:43:39Z</time>
      </trkpt>
      <trkpt lat="45.69463" lon="5.99584">
        <ele>1452</ele>
        <time>2012-02-09T11:43:41Z</time>
      </trkpt>
      <trkpt lat="45.69462" lon="5.99583">
        <ele>1452</ele>
        <time>2012-02-09T11:43:43Z</time>
      </trkpt>
      <trkpt lat="45.69461" lon="5.99582">
        <ele>1452</ele>
        <time>2012-02-09T11:43:45Z</time>
      </trkpt>
      <trkpt lat="45.6946" lon="5.9958">
        <ele>1452</ele>
        <time>2012-02-09T11:43:47Z</time>
      </trkpt>
      <trkpt lat="45.69458" lon="5.99579">
        <ele>1452</ele>
        <time>2012-02-09T11:43:50Z</time>
      </trkpt>
      <trkpt lat="45.69457" lon="5.99578">
        <ele>1452</ele>
        <time>2012-02-09T11:43:52Z</time>
      </trkpt>
      <trkpt lat="45.69455" lon="5.99577">
        <ele>1452</ele>
        <time>2012-02-09T11:43:55Z</time>
      </trkpt>
      <trkpt lat="45.69454" lon="5.99575">
        <ele>1452</ele>
        <time>2012-02-09T11:43:58Z</time>
      </trkpt>
      <trkpt lat="45.69453" lon="5.99574">
        <ele>1452</ele>
        <time>2012-02-09T11:44:01Z</time>
      </trkpt>
      <trkpt lat="45.69451" lon="5.99573">
        <ele>1452</ele>
        <time>2012-02-09T11:44:04Z</time>
      </trkpt>
      <trkpt lat="45.6945" lon="5.99572">
        <ele>1452</ele>
        <time>2012-02-09T11:44:07Z</time>
      </trkpt>
      <trkpt lat="45.69449" lon="5.9957">
        <ele>1452</ele>
        <time>2012-02-09T11:44:10Z</time>
      </trkpt>
      <trkpt lat="45.69447" lon="5.99569">
        <ele>1452</ele>
        <time>2012-02-09T11:44:13Z</time>
      </trkpt>
      <trkpt lat="45.69446" lon="5.99568">
        <ele>1453</ele>
        <time>2012-02-09T11:44:15Z</time>
      </trkpt>
      <trkpt lat="45.69445" lon="5.99568">
        <ele>1453</ele>
        <time>2012-02-09T11:44:17Z</time>
      </trkpt>
      <trkpt lat="45.69444" lon="5.99568">
        <ele>1453</ele>
        <time>2012-02-09T11:44:24Z</time>
      </trkpt>
      <trkpt lat="45.69443" lon="5.99567">
        <ele>1453</ele>
        <time>2012-02-09T11:44:26Z</time>
      </trkpt>
      <trkpt lat="45.69441" lon="5.99566">
        <ele>1453</ele>
        <time>2012-02-09T11:44:29Z</time>
      </trkpt>
      <trkpt lat="45.6944" lon="5.99565">
        <ele>1453</ele>
        <time>2012-02-09T11:44:32Z</time>
      </trkpt>
      <trkpt lat="45.69439" lon="5.99564">
        <ele>1453</ele>
        <time>2012-02-09T11:44:35Z</time>
      </trkpt>
      <trkpt lat="45.69437" lon="5.99562">
        <ele>1453</ele>
        <time>2012-02-09T11:44:38Z</time>
      </trkpt>
      <trkpt lat="45.69434" lon="5.99561">
        <ele>1453</ele>
        <time>2012-02-09T11:44:40Z</time>
      </trkpt>
      <trkpt lat="45.69432" lon="5.9956">
        <ele>1453</ele>
        <time>2012-02-09T11:44:43Z</time>
      </trkpt>
      <trkpt lat="45.69431" lon="5.99558">
        <ele>1453</ele>
        <time>2012-02-09T11:44:46Z</time>
      </trkpt>
      <trkpt lat="45.6943" lon="5.99556">
        <ele>1453</ele>
        <time>2012-02-09T11:44:48Z</time>
      </trkpt>
      <trkpt lat="45.69429" lon="5.99554">
        <ele>1453</ele>
        <time>2012-02-09T11:44:51Z</time>
      </trkpt>
      <trkpt lat="45.69429" lon="5.99553">
        <ele>1453</ele>
        <time>2012-02-09T11:44:54Z</time>
      </trkpt>
      <trkpt lat="45.69428" lon="5.99551">
        <ele>1453</ele>
        <time>2012-02-09T11:44:56Z</time>
      </trkpt>
      <trkpt lat="45.69427" lon="5.99549">
        <ele>1453</ele>
        <time>2012-02-09T11:44:59Z</time>
      </trkpt>
      <trkpt lat="45.69427" lon="5.99547">
        <ele>1453</ele>
        <time>2012-02-09T11:45:02Z</time>
      </trkpt>
      <trkpt lat="45.69426" lon="5.99546">
        <ele>1453</ele>
        <time>2012-02-09T11:45:05Z</time>
      </trkpt>
      <trkpt lat="45.69427" lon="5.99544">
        <ele>1453</ele>
        <time>2012-02-09T11:45:15Z</time>
      </trkpt>
      <trkpt lat="45.69426" lon="5.99543">
        <ele>1453</ele>
        <time>2012-02-09T11:45:20Z</time>
      </trkpt>
      <trkpt lat="45.69425" lon="5.99541">
        <ele>1453</ele>
        <time>2012-02-09T11:45:22Z</time>
      </trkpt>
      <trkpt lat="45.69425" lon="5.9954">
        <ele>1453</ele>
        <time>2012-02-09T11:45:26Z</time>
      </trkpt>
      <trkpt lat="45.69424" lon="5.99538">
        <ele>1453</ele>
        <time>2012-02-09T11:45:30Z</time>
      </trkpt>
      <trkpt lat="45.69424" lon="5.99536">
        <ele>1453</ele>
        <time>2012-02-09T11:45:32Z</time>
      </trkpt>
      <trkpt lat="45.69424" lon="5.99535">
        <ele>1453</ele>
        <time>2012-02-09T11:45:34Z</time>
      </trkpt>
      <trkpt lat="45.69423" lon="5.99533">
        <ele>1453</ele>
        <time>2012-02-09T11:45:36Z</time>
      </trkpt>
      <trkpt lat="45.69421" lon="5.99532">
        <ele>1453</ele>
        <time>2012-02-09T11:45:39Z</time>
      </trkpt>
      <trkpt lat="45.6942" lon="5.9953">
        <ele>1453</ele>
        <time>2012-02-09T11:45:41Z</time>
      </trkpt>
      <trkpt lat="45.69419" lon="5.99528">
        <ele>1453</ele>
        <time>2012-02-09T11:45:43Z</time>
      </trkpt>
      <trkpt lat="45.69418" lon="5.99526">
        <ele>1453</ele>
        <time>2012-02-09T11:45:45Z</time>
      </trkpt>
      <trkpt lat="45.69417" lon="5.99524">
        <ele>1453</ele>
        <time>2012-02-09T11:45:47Z</time>
      </trkpt>
      <trkpt lat="45.69415" lon="5.99523">
        <ele>1453</ele>
        <time>2012-02-09T11:45:50Z</time>
      </trkpt>
      <trkpt lat="45.69414" lon="5.99522">
        <ele>1453</ele>
        <time>2012-02-09T11:45:52Z</time>
      </trkpt>
      <trkpt lat="45.69413" lon="5.9952">
        <ele>1453</ele>
        <time>2012-02-09T11:45:55Z</time>
      </trkpt>
      <trkpt lat="45.69411" lon="5.99519">
        <ele>1453</ele>
        <time>2012-02-09T11:45:57Z</time>
      </trkpt>
      <trkpt lat="45.6941" lon="5.99518">
        <ele>1453</ele>
        <time>2012-02-09T11:45:59Z</time>
      </trkpt>
      <trkpt lat="45.69409" lon="5.99517">
        <ele>1453</ele>
        <time>2012-02-09T11:46:01Z</time>
      </trkpt>
      <trkpt lat="45.69407" lon="5.99517">
        <ele>1453</ele>
        <time>2012-02-09T11:46:03Z</time>
      </trkpt>
      <trkpt lat="45.69406" lon="5.99517">
        <ele>1454</ele>
        <time>2012-02-09T11:46:05Z</time>
      </trkpt>
      <trkpt lat="45.69405" lon="5.99516">
        <ele>1454</ele>
        <time>2012-02-09T11:46:09Z</time>
      </trkpt>
      <trkpt lat="45.69403" lon="5.99514">
        <ele>1454</ele>
        <time>2012-02-09T11:46:12Z</time>
      </trkpt>
      <trkpt lat="45.69401" lon="5.99512">
        <ele>1454</ele>
        <time>2012-02-09T11:46:14Z</time>
      </trkpt>
      <trkpt lat="45.694" lon="5.99511">
        <ele>1454</ele>
        <time>2012-02-09T11:46:16Z</time>
      </trkpt>
      <trkpt lat="45.69398" lon="5.9951">
        <ele>1455</ele>
        <time>2012-02-09T11:46:18Z</time>
      </trkpt>
      <trkpt lat="45.69397" lon="5.99508">
        <ele>1455</ele>
        <time>2012-02-09T11:46:20Z</time>
      </trkpt>
      <trkpt lat="45.69396" lon="5.99507">
        <ele>1456</ele>
        <time>2012-02-09T11:46:22Z</time>
      </trkpt>
      <trkpt lat="45.69395" lon="5.99505">
        <ele>1456</ele>
        <time>2012-02-09T11:46:25Z</time>
      </trkpt>
      <trkpt lat="45.69394" lon="5.99503">
        <ele>1456</ele>
        <time>2012-02-09T11:46:28Z</time>
      </trkpt>
      <trkpt lat="45.69392" lon="5.99501">
        <ele>1457</ele>
        <time>2012-02-09T11:46:31Z</time>
      </trkpt>
      <trkpt lat="45.69391" lon="5.995">
        <ele>1457</ele>
        <time>2012-02-09T11:46:34Z</time>
      </trkpt>
      <trkpt lat="45.6939" lon="5.99498">
        <ele>1458</ele>
        <time>2012-02-09T11:46:41Z</time>
      </trkpt>
      <trkpt lat="45.69389" lon="5.99497">
        <ele>1459</ele>
        <time>2012-02-09T11:46:46Z</time>
      </trkpt>
      <trkpt lat="45.69388" lon="5.99496">
        <ele>1459</ele>
        <time>2012-02-09T11:46:49Z</time>
      </trkpt>
      <trkpt lat="45.69387" lon="5.99495">
        <ele>1459</ele>
        <time>2012-02-09T11:46:52Z</time>
      </trkpt>
      <trkpt lat="45.69386" lon="5.99493">
        <ele>1459</ele>
        <time>2012-02-09T11:46:55Z</time>
      </trkpt>
      <trkpt lat="45.69386" lon="5.99491">
        <ele>1459</ele>
        <time>2012-02-09T11:46:57Z</time>
      </trkpt>
      <trkpt lat="45.69385" lon="5.99489">
        <ele>1459</ele>
        <time>2012-02-09T11:46:59Z</time>
      </trkpt>
      <trkpt lat="45.69384" lon="5.99487">
        <ele>1459</ele>
        <time>2012-02-09T11:47:02Z</time>
      </trkpt>
      <trkpt lat="45.69384" lon="5.99486">
        <ele>1459</ele>
        <time>2012-02-09T11:47:05Z</time>
      </trkpt>
      <trkpt lat="45.69383" lon="5.99484">
        <ele>1459</ele>
        <time>2012-02-09T11:47:07Z</time>
      </trkpt>
      <trkpt lat="45.69383" lon="5.99482">
        <ele>1460</ele>
        <time>2012-02-09T11:47:09Z</time>
      </trkpt>
      <trkpt lat="45.69382" lon="5.99481">
        <ele>1460</ele>
        <time>2012-02-09T11:47:12Z</time>
      </trkpt>
      <trkpt lat="45.69381" lon="5.99479">
        <ele>1460</ele>
        <time>2012-02-09T11:47:14Z</time>
      </trkpt>
      <trkpt lat="45.6938" lon="5.99477">
        <ele>1460</ele>
        <time>2012-02-09T11:47:17Z</time>
      </trkpt>
      <trkpt lat="45.69379" lon="5.99476">
        <ele>1460</ele>
        <time>2012-02-09T11:47:19Z</time>
      </trkpt>
      <trkpt lat="45.69378" lon="5.99474">
        <ele>1461</ele>
        <time>2012-02-09T11:47:21Z</time>
      </trkpt>
      <trkpt lat="45.69377" lon="5.99473">
        <ele>1461</ele>
        <time>2012-02-09T11:47:23Z</time>
      </trkpt>
      <trkpt lat="45.69376" lon="5.99471">
        <ele>1461</ele>
        <time>2012-02-09T11:47:26Z</time>
      </trkpt>
      <trkpt lat="45.69374" lon="5.9947">
        <ele>1461</ele>
        <time>2012-02-09T11:47:28Z</time>
      </trkpt>
      <trkpt lat="45.69373" lon="5.99468">
        <ele>1462</ele>
        <time>2012-02-09T11:47:31Z</time>
      </trkpt>
      <trkpt lat="45.69371" lon="5.99467">
        <ele>1462</ele>
        <time>2012-02-09T11:47:33Z</time>
      </trkpt>
      <trkpt lat="45.6937" lon="5.99466">
        <ele>1464</ele>
        <time>2012-02-09T11:47:45Z</time>
      </trkpt>
      <trkpt lat="45.69368" lon="5.99464">
        <ele>1464</ele>
        <time>2012-02-09T11:47:48Z</time>
      </trkpt>
      <trkpt lat="45.69367" lon="5.99463">
        <ele>1464</ele>
        <time>2012-02-09T11:47:50Z</time>
      </trkpt>
      <trkpt lat="45.69365" lon="5.99463">
        <ele>1464</ele>
        <time>2012-02-09T11:47:52Z</time>
      </trkpt>
      <trkpt lat="45.69364" lon="5.99462">
        <ele>1465</ele>
        <time>2012-02-09T11:47:55Z</time>
      </trkpt>
      <trkpt lat="45.69363" lon="5.9946">
        <ele>1465</ele>
        <time>2012-02-09T11:47:57Z</time>
      </trkpt>
      <trkpt lat="45.69361" lon="5.99459">
        <ele>1465</ele>
        <time>2012-02-09T11:47:59Z</time>
      </trkpt>
      <trkpt lat="45.6936" lon="5.99459">
        <ele>1465</ele>
        <time>2012-02-09T11:48:01Z</time>
      </trkpt>
      <trkpt lat="45.69359" lon="5.99458">
        <ele>1466</ele>
        <time>2012-02-09T11:48:03Z</time>
      </trkpt>
      <trkpt lat="45.69358" lon="5.99456">
        <ele>1466</ele>
        <time>2012-02-09T11:48:05Z</time>
      </trkpt>
      <trkpt lat="45.69356" lon="5.99455">
        <ele>1466</ele>
        <time>2012-02-09T11:48:08Z</time>
      </trkpt>
      <trkpt lat="45.69355" lon="5.99453">
        <ele>1466</ele>
        <time>2012-02-09T11:48:10Z</time>
      </trkpt>
      <trkpt lat="45.69354" lon="5.99452">
        <ele>1466</ele>
        <time>2012-02-09T11:48:12Z</time>
      </trkpt>
      <trkpt lat="45.69353" lon="5.99451">
        <ele>1466</ele>
        <time>2012-02-09T11:48:14Z</time>
      </trkpt>
      <trkpt lat="45.69351" lon="5.99449">
        <ele>1466</ele>
        <time>2012-02-09T11:48:17Z</time>
      </trkpt>
      <trkpt lat="45.69349" lon="5.99447">
        <ele>1466</ele>
        <time>2012-02-09T11:48:20Z</time>
      </trkpt>
      <trkpt lat="45.69348" lon="5.99446">
        <ele>1466</ele>
        <time>2012-02-09T11:48:22Z</time>
      </trkpt>
      <trkpt lat="45.69347" lon="5.99445">
        <ele>1466</ele>
        <time>2012-02-09T11:48:24Z</time>
      </trkpt>
      <trkpt lat="45.69345" lon="5.99444">
        <ele>1466</ele>
        <time>2012-02-09T11:48:26Z</time>
      </trkpt>
      <trkpt lat="45.69344" lon="5.99443">
        <ele>1466</ele>
        <time>2012-02-09T11:48:28Z</time>
      </trkpt>
      <trkpt lat="45.69343" lon="5.99441">
        <ele>1466</ele>
        <time>2012-02-09T11:48:30Z</time>
      </trkpt>
      <trkpt lat="45.69342" lon="5.9944">
        <ele>1466</ele>
        <time>2012-02-09T11:48:32Z</time>
      </trkpt>
      <trkpt lat="45.69341" lon="5.99438">
        <ele>1466</ele>
        <time>2012-02-09T11:48:34Z</time>
      </trkpt>
      <trkpt lat="45.69339" lon="5.99437">
        <ele>1466</ele>
        <time>2012-02-09T11:48:36Z</time>
      </trkpt>
      <trkpt lat="45.69337" lon="5.99435">
        <ele>1466</ele>
        <time>2012-02-09T11:48:38Z</time>
      </trkpt>
      <trkpt lat="45.69335" lon="5.99433">
        <ele>1466</ele>
        <time>2012-02-09T11:48:40Z</time>
      </trkpt>
      <trkpt lat="45.69334" lon="5.99432">
        <ele>1466</ele>
        <time>2012-02-09T11:48:42Z</time>
      </trkpt>
      <trkpt lat="45.69332" lon="5.99432">
        <ele>1466</ele>
        <time>2012-02-09T11:48:44Z</time>
      </trkpt>
      <trkpt lat="45.69331" lon="5.99431">
        <ele>1466</ele>
        <time>2012-02-09T11:48:46Z</time>
      </trkpt>
      <trkpt lat="45.69329" lon="5.9943">
        <ele>1466</ele>
        <time>2012-02-09T11:48:48Z</time>
      </trkpt>
      <trkpt lat="45.69328" lon="5.99429">
        <ele>1466</ele>
        <time>2012-02-09T11:48:51Z</time>
      </trkpt>
      <trkpt lat="45.69327" lon="5.99428">
        <ele>1466</ele>
        <time>2012-02-09T11:48:53Z</time>
      </trkpt>
      <trkpt lat="45.69326" lon="5.99427">
        <ele>1466</ele>
        <time>2012-02-09T11:48:56Z</time>
      </trkpt>
      <trkpt lat="45.69324" lon="5.99425">
        <ele>1466</ele>
        <time>2012-02-09T11:48:58Z</time>
      </trkpt>
      <trkpt lat="45.69323" lon="5.99424">
        <ele>1466</ele>
        <time>2012-02-09T11:49:00Z</time>
      </trkpt>
      <trkpt lat="45.69322" lon="5.99422">
        <ele>1466</ele>
        <time>2012-02-09T11:49:03Z</time>
      </trkpt>
      <trkpt lat="45.6932" lon="5.9942">
        <ele>1466</ele>
        <time>2012-02-09T11:49:06Z</time>
      </trkpt>
      <trkpt lat="45.69319" lon="5.99419">
        <ele>1466</ele>
        <time>2012-02-09T11:49:08Z</time>
      </trkpt>
      <trkpt lat="45.69317" lon="5.99417">
        <ele>1466</ele>
        <time>2012-02-09T11:49:10Z</time>
      </trkpt>
      <trkpt lat="45.69316" lon="5.99415">
        <ele>1466</ele>
        <time>2012-02-09T11:49:12Z</time>
      </trkpt>
      <trkpt lat="45.69314" lon="5.99414">
        <ele>1466</ele>
        <time>2012-02-09T11:49:14Z</time>
      </trkpt>
      <trkpt lat="45.69313" lon="5.99412">
        <ele>1466</ele>
        <time>2012-02-09T11:49:16Z</time>
      </trkpt>
      <trkpt lat="45.69312" lon="5.9941">
        <ele>1466</ele>
        <time>2012-02-09T11:49:18Z</time>
      </trkpt>
      <trkpt lat="45.6931" lon="5.99409">
        <ele>1466</ele>
        <time>2012-02-09T11:49:20Z</time>
      </trkpt>
      <trkpt lat="45.69308" lon="5.99406">
        <ele>1466</ele>
        <time>2012-02-09T11:49:23Z</time>
      </trkpt>
      <trkpt lat="45.69307" lon="5.99405">
        <ele>1466</ele>
        <time>2012-02-09T11:49:26Z</time>
      </trkpt>
      <trkpt lat="45.69306" lon="5.99404">
        <ele>1466</ele>
        <time>2012-02-09T11:49:43Z</time>
      </trkpt>
      <trkpt lat="45.69305" lon="5.99403">
        <ele>1466</ele>
        <time>2012-02-09T11:49:45Z</time>
      </trkpt>
      <trkpt lat="45.69304" lon="5.99402">
        <ele>1466</ele>
        <time>2012-02-09T11:49:47Z</time>
      </trkpt>
      <trkpt lat="45.69302" lon="5.994">
        <ele>1466</ele>
        <time>2012-02-09T11:49:51Z</time>
      </trkpt>
      <trkpt lat="45.69301" lon="5.99398">
        <ele>1466</ele>
        <time>2012-02-09T11:49:54Z</time>
      </trkpt>
      <trkpt lat="45.69299" lon="5.99396">
        <ele>1466</ele>
        <time>2012-02-09T11:49:56Z</time>
      </trkpt>
      <trkpt lat="45.69298" lon="5.99395">
        <ele>1466</ele>
        <time>2012-02-09T11:49:58Z</time>
      </trkpt>
      <trkpt lat="45.69297" lon="5.99394">
        <ele>1466</ele>
        <time>2012-02-09T11:50:00Z</time>
      </trkpt>
      <trkpt lat="45.69296" lon="5.99393">
        <ele>1466</ele>
        <time>2012-02-09T11:50:03Z</time>
      </trkpt>
      <trkpt lat="45.69294" lon="5.99391">
        <ele>1466</ele>
        <time>2012-02-09T11:50:06Z</time>
      </trkpt>
      <trkpt lat="45.69293" lon="5.9939">
        <ele>1466</ele>
        <time>2012-02-09T11:50:09Z</time>
      </trkpt>
      <trkpt lat="45.69292" lon="5.99388">
        <ele>1466</ele>
        <time>2012-02-09T11:50:12Z</time>
      </trkpt>
      <trkpt lat="45.69291" lon="5.99386">
        <ele>1467</ele>
        <time>2012-02-09T11:50:15Z</time>
      </trkpt>
      <trkpt lat="45.69289" lon="5.99384">
        <ele>1467</ele>
        <time>2012-02-09T11:50:18Z</time>
      </trkpt>
      <trkpt lat="45.69289" lon="5.99382">
        <ele>1467</ele>
        <time>2012-02-09T11:50:21Z</time>
      </trkpt>
      <trkpt lat="45.69287" lon="5.9938">
        <ele>1467</ele>
        <time>2012-02-09T11:50:25Z</time>
      </trkpt>
      <trkpt lat="45.69286" lon="5.99379">
        <ele>1467</ele>
        <time>2012-02-09T11:50:27Z</time>
      </trkpt>
      <trkpt lat="45.69285" lon="5.99377">
        <ele>1468</ele>
        <time>2012-02-09T11:50:29Z</time>
      </trkpt>
      <trkpt lat="45.69284" lon="5.99376">
        <ele>1468</ele>
        <time>2012-02-09T11:50:32Z</time>
      </trkpt>
      <trkpt lat="45.69283" lon="5.99375">
        <ele>1468</ele>
        <time>2012-02-09T11:50:34Z</time>
      </trkpt>
      <trkpt lat="45.69281" lon="5.99374">
        <ele>1468</ele>
        <time>2012-02-09T11:50:37Z</time>
      </trkpt>
      <trkpt lat="45.6928" lon="5.99373">
        <ele>1469</ele>
        <time>2012-02-09T11:50:40Z</time>
      </trkpt>
      <trkpt lat="45.69279" lon="5.99371">
        <ele>1470</ele>
        <time>2012-02-09T11:50:43Z</time>
      </trkpt>
      <trkpt lat="45.69278" lon="5.9937">
        <ele>1470</ele>
        <time>2012-02-09T11:50:45Z</time>
      </trkpt>
      <trkpt lat="45.69276" lon="5.99369">
        <ele>1470</ele>
        <time>2012-02-09T11:50:47Z</time>
      </trkpt>
      <trkpt lat="45.69275" lon="5.99368">
        <ele>1470</ele>
        <time>2012-02-09T11:50:50Z</time>
      </trkpt>
      <trkpt lat="45.69274" lon="5.99367">
        <ele>1471</ele>
        <time>2012-02-09T11:50:53Z</time>
      </trkpt>
      <trkpt lat="45.69273" lon="5.99366">
        <ele>1472</ele>
        <time>2012-02-09T11:50:56Z</time>
      </trkpt>
      <trkpt lat="45.69271" lon="5.99364">
        <ele>1472</ele>
        <time>2012-02-09T11:51:00Z</time>
      </trkpt>
      <trkpt lat="45.6927" lon="5.99362">
        <ele>1472</ele>
        <time>2012-02-09T11:51:03Z</time>
      </trkpt>
      <trkpt lat="45.69269" lon="5.99361">
        <ele>1472</ele>
        <time>2012-02-09T11:51:06Z</time>
      </trkpt>
      <trkpt lat="45.69268" lon="5.99361">
        <ele>1473</ele>
        <time>2012-02-09T11:51:13Z</time>
      </trkpt>
      <trkpt lat="45.69267" lon="5.99359">
        <ele>1473</ele>
        <time>2012-02-09T11:51:16Z</time>
      </trkpt>
      <trkpt lat="45.69265" lon="5.99357">
        <ele>1473</ele>
        <time>2012-02-09T11:51:18Z</time>
      </trkpt>
      <trkpt lat="45.69264" lon="5.99356">
        <ele>1473</ele>
        <time>2012-02-09T11:51:22Z</time>
      </trkpt>
      <trkpt lat="45.69263" lon="5.99354">
        <ele>1474</ele>
        <time>2012-02-09T11:51:25Z</time>
      </trkpt>
      <trkpt lat="45.69262" lon="5.99352">
        <ele>1474</ele>
        <time>2012-02-09T11:51:27Z</time>
      </trkpt>
      <trkpt lat="45.69261" lon="5.99351">
        <ele>1474</ele>
        <time>2012-02-09T11:51:29Z</time>
      </trkpt>
      <trkpt lat="45.6926" lon="5.99349">
        <ele>1474</ele>
        <time>2012-02-09T11:51:32Z</time>
      </trkpt>
      <trkpt lat="45.69258" lon="5.99348">
        <ele>1475</ele>
        <time>2012-02-09T11:51:34Z</time>
      </trkpt>
      <trkpt lat="45.69257" lon="5.99347">
        <ele>1475</ele>
        <time>2012-02-09T11:51:36Z</time>
      </trkpt>
      <trkpt lat="45.69256" lon="5.99346">
        <ele>1475</ele>
        <time>2012-02-09T11:51:39Z</time>
      </trkpt>
      <trkpt lat="45.69255" lon="5.99344">
        <ele>1475</ele>
        <time>2012-02-09T11:51:42Z</time>
      </trkpt>
      <trkpt lat="45.69253" lon="5.99343">
        <ele>1475</ele>
        <time>2012-02-09T11:51:44Z</time>
      </trkpt>
      <trkpt lat="45.69252" lon="5.99342">
        <ele>1475</ele>
        <time>2012-02-09T11:51:47Z</time>
      </trkpt>
      <trkpt lat="45.6925" lon="5.99341">
        <ele>1475</ele>
        <time>2012-02-09T11:51:49Z</time>
      </trkpt>
      <trkpt lat="45.69249" lon="5.99339">
        <ele>1475</ele>
        <time>2012-02-09T11:51:51Z</time>
      </trkpt>
      <trkpt lat="45.69247" lon="5.99338">
        <ele>1475</ele>
        <time>2012-02-09T11:51:53Z</time>
      </trkpt>
      <trkpt lat="45.69246" lon="5.99337">
        <ele>1475</ele>
        <time>2012-02-09T11:51:56Z</time>
      </trkpt>
      <trkpt lat="45.69244" lon="5.99336">
        <ele>1475</ele>
        <time>2012-02-09T11:51:59Z</time>
      </trkpt>
      <trkpt lat="45.69242" lon="5.99335">
        <ele>1475</ele>
        <time>2012-02-09T11:52:02Z</time>
      </trkpt>
      <trkpt lat="45.69241" lon="5.99333">
        <ele>1475</ele>
        <time>2012-02-09T11:52:05Z</time>
      </trkpt>
      <trkpt lat="45.69239" lon="5.99332">
        <ele>1476</ele>
        <time>2012-02-09T11:52:08Z</time>
      </trkpt>
      <trkpt lat="45.69238" lon="5.99331">
        <ele>1476</ele>
        <time>2012-02-09T11:52:10Z</time>
      </trkpt>
      <trkpt lat="45.69237" lon="5.9933">
        <ele>1477</ele>
        <time>2012-02-09T11:52:13Z</time>
      </trkpt>
      <trkpt lat="45.69236" lon="5.99328">
        <ele>1477</ele>
        <time>2012-02-09T11:52:15Z</time>
      </trkpt>
      <trkpt lat="45.69234" lon="5.99327">
        <ele>1477</ele>
        <time>2012-02-09T11:52:17Z</time>
      </trkpt>
      <trkpt lat="45.69233" lon="5.99326">
        <ele>1477</ele>
        <time>2012-02-09T11:52:20Z</time>
      </trkpt>
      <trkpt lat="45.69231" lon="5.99325">
        <ele>1478</ele>
        <time>2012-02-09T11:52:37Z</time>
      </trkpt>
      <trkpt lat="45.6923" lon="5.99324">
        <ele>1478</ele>
        <time>2012-02-09T11:52:39Z</time>
      </trkpt>
      <trkpt lat="45.69229" lon="5.99323">
        <ele>1478</ele>
        <time>2012-02-09T11:52:41Z</time>
      </trkpt>
      <trkpt lat="45.69228" lon="5.99322">
        <ele>1478</ele>
        <time>2012-02-09T11:52:43Z</time>
      </trkpt>
      <trkpt lat="45.69227" lon="5.99321">
        <ele>1478</ele>
        <time>2012-02-09T11:52:45Z</time>
      </trkpt>
      <trkpt lat="45.69225" lon="5.99319">
        <ele>1478</ele>
        <time>2012-02-09T11:52:48Z</time>
      </trkpt>
      <trkpt lat="45.69224" lon="5.99318">
        <ele>1478</ele>
        <time>2012-02-09T11:52:51Z</time>
      </trkpt>
      <trkpt lat="45.69223" lon="5.99317">
        <ele>1478</ele>
        <time>2012-02-09T11:52:53Z</time>
      </trkpt>
      <trkpt lat="45.69221" lon="5.99315">
        <ele>1478</ele>
        <time>2012-02-09T11:52:55Z</time>
      </trkpt>
      <trkpt lat="45.6922" lon="5.99313">
        <ele>1478</ele>
        <time>2012-02-09T11:52:58Z</time>
      </trkpt>
      <trkpt lat="45.69219" lon="5.99312">
        <ele>1478</ele>
        <time>2012-02-09T11:53:00Z</time>
      </trkpt>
      <trkpt lat="45.69218" lon="5.9931">
        <ele>1478</ele>
        <time>2012-02-09T11:53:03Z</time>
      </trkpt>
      <trkpt lat="45.69217" lon="5.99309">
        <ele>1478</ele>
        <time>2012-02-09T11:53:05Z</time>
      </trkpt>
      <trkpt lat="45.69215" lon="5.99308">
        <ele>1478</ele>
        <time>2012-02-09T11:53:07Z</time>
      </trkpt>
      <trkpt lat="45.69214" lon="5.99307">
        <ele>1478</ele>
        <time>2012-02-09T11:53:09Z</time>
      </trkpt>
      <trkpt lat="45.69213" lon="5.99306">
        <ele>1478</ele>
        <time>2012-02-09T11:53:11Z</time>
      </trkpt>
      <trkpt lat="45.69211" lon="5.99304">
        <ele>1478</ele>
        <time>2012-02-09T11:53:14Z</time>
      </trkpt>
      <trkpt lat="45.6921" lon="5.99303">
        <ele>1478</ele>
        <time>2012-02-09T11:53:16Z</time>
      </trkpt>
      <trkpt lat="45.69209" lon="5.99302">
        <ele>1478</ele>
        <time>2012-02-09T11:53:18Z</time>
      </trkpt>
      <trkpt lat="45.69207" lon="5.99301">
        <ele>1478</ele>
        <time>2012-02-09T11:53:20Z</time>
      </trkpt>
      <trkpt lat="45.69205" lon="5.993">
        <ele>1478</ele>
        <time>2012-02-09T11:53:22Z</time>
      </trkpt>
      <trkpt lat="45.69204" lon="5.993">
        <ele>1478</ele>
        <time>2012-02-09T11:53:24Z</time>
      </trkpt>
      <trkpt lat="45.69202" lon="5.99299">
        <ele>1478</ele>
        <time>2012-02-09T11:53:26Z</time>
      </trkpt>
      <trkpt lat="45.69201" lon="5.99297">
        <ele>1478</ele>
        <time>2012-02-09T11:53:28Z</time>
      </trkpt>
      <trkpt lat="45.69201" lon="5.99296">
        <ele>1478</ele>
        <time>2012-02-09T11:53:31Z</time>
      </trkpt>
      <trkpt lat="45.69199" lon="5.99294">
        <ele>1478</ele>
        <time>2012-02-09T11:53:34Z</time>
      </trkpt>
      <trkpt lat="45.69198" lon="5.99293">
        <ele>1478</ele>
        <time>2012-02-09T11:53:37Z</time>
      </trkpt>
      <trkpt lat="45.69197" lon="5.99291">
        <ele>1478</ele>
        <time>2012-02-09T11:53:49Z</time>
      </trkpt>
      <trkpt lat="45.69196" lon="5.9929">
        <ele>1478</ele>
        <time>2012-02-09T11:53:52Z</time>
      </trkpt>
      <trkpt lat="45.69194" lon="5.99289">
        <ele>1478</ele>
        <time>2012-02-09T11:53:55Z</time>
      </trkpt>
      <trkpt lat="45.69193" lon="5.99287">
        <ele>1478</ele>
        <time>2012-02-09T11:53:58Z</time>
      </trkpt>
      <trkpt lat="45.69192" lon="5.99286">
        <ele>1478</ele>
        <time>2012-02-09T11:54:01Z</time>
      </trkpt>
      <trkpt lat="45.6919" lon="5.99284">
        <ele>1478</ele>
        <time>2012-02-09T11:54:04Z</time>
      </trkpt>
      <trkpt lat="45.69189" lon="5.99282">
        <ele>1478</ele>
        <time>2012-02-09T11:54:06Z</time>
      </trkpt>
      <trkpt lat="45.69188" lon="5.9928">
        <ele>1478</ele>
        <time>2012-02-09T11:54:09Z</time>
      </trkpt>
      <trkpt lat="45.69187" lon="5.99279">
        <ele>1479</ele>
        <time>2012-02-09T11:54:11Z</time>
      </trkpt>
      <trkpt lat="45.69186" lon="5.99277">
        <ele>1479</ele>
        <time>2012-02-09T11:54:13Z</time>
      </trkpt>
      <trkpt lat="45.69184" lon="5.99276">
        <ele>1479</ele>
        <time>2012-02-09T11:54:15Z</time>
      </trkpt>
      <trkpt lat="45.69183" lon="5.99274">
        <ele>1479</ele>
        <time>2012-02-09T11:54:17Z</time>
      </trkpt>
      <trkpt lat="45.69182" lon="5.99273">
        <ele>1480</ele>
        <time>2012-02-09T11:54:19Z</time>
      </trkpt>
      <trkpt lat="45.6918" lon="5.99271">
        <ele>1480</ele>
        <time>2012-02-09T11:54:22Z</time>
      </trkpt>
      <trkpt lat="45.69179" lon="5.9927">
        <ele>1480</ele>
        <time>2012-02-09T11:54:24Z</time>
      </trkpt>
      <trkpt lat="45.69178" lon="5.99268">
        <ele>1481</ele>
        <time>2012-02-09T11:54:26Z</time>
      </trkpt>
      <trkpt lat="45.69177" lon="5.99267">
        <ele>1481</ele>
        <time>2012-02-09T11:54:28Z</time>
      </trkpt>
      <trkpt lat="45.69175" lon="5.99266">
        <ele>1481</ele>
        <time>2012-02-09T11:54:30Z</time>
      </trkpt>
      <trkpt lat="45.69174" lon="5.99265">
        <ele>1481</ele>
        <time>2012-02-09T11:54:32Z</time>
      </trkpt>
      <trkpt lat="45.69173" lon="5.99264">
        <ele>1482</ele>
        <time>2012-02-09T11:54:34Z</time>
      </trkpt>
      <trkpt lat="45.69172" lon="5.99262">
        <ele>1482</ele>
        <time>2012-02-09T11:54:38Z</time>
      </trkpt>
      <trkpt lat="45.69171" lon="5.99261">
        <ele>1483</ele>
        <time>2012-02-09T11:54:43Z</time>
      </trkpt>
      <trkpt lat="45.69169" lon="5.99259">
        <ele>1483</ele>
        <time>2012-02-09T11:54:46Z</time>
      </trkpt>
      <trkpt lat="45.69168" lon="5.99258">
        <ele>1483</ele>
        <time>2012-02-09T11:54:48Z</time>
      </trkpt>
      <trkpt lat="45.69167" lon="5.99257">
        <ele>1483</ele>
        <time>2012-02-09T11:54:51Z</time>
      </trkpt>
      <trkpt lat="45.69166" lon="5.99256">
        <ele>1483</ele>
        <time>2012-02-09T11:54:58Z</time>
      </trkpt>
      <trkpt lat="45.69164" lon="5.99254">
        <ele>1483</ele>
        <time>2012-02-09T11:55:01Z</time>
      </trkpt>
      <trkpt lat="45.69163" lon="5.99254">
        <ele>1483</ele>
        <time>2012-02-09T11:55:13Z</time>
      </trkpt>
      <trkpt lat="45.69162" lon="5.99252">
        <ele>1483</ele>
        <time>2012-02-09T11:55:16Z</time>
      </trkpt>
      <trkpt lat="45.6916" lon="5.99251">
        <ele>1483</ele>
        <time>2012-02-09T11:55:19Z</time>
      </trkpt>
      <trkpt lat="45.69159" lon="5.99249">
        <ele>1483</ele>
        <time>2012-02-09T11:55:22Z</time>
      </trkpt>
      <trkpt lat="45.69157" lon="5.99247">
        <ele>1483</ele>
        <time>2012-02-09T11:55:25Z</time>
      </trkpt>
      <trkpt lat="45.69157" lon="5.99246">
        <ele>1484</ele>
        <time>2012-02-09T11:55:27Z</time>
      </trkpt>
      <trkpt lat="45.69155" lon="5.99244">
        <ele>1484</ele>
        <time>2012-02-09T11:55:30Z</time>
      </trkpt>
      <trkpt lat="45.69154" lon="5.99242">
        <ele>1484</ele>
        <time>2012-02-09T11:55:33Z</time>
      </trkpt>
      <trkpt lat="45.69154" lon="5.9924">
        <ele>1484</ele>
        <time>2012-02-09T11:55:36Z</time>
      </trkpt>
      <trkpt lat="45.69152" lon="5.99238">
        <ele>1485</ele>
        <time>2012-02-09T11:55:42Z</time>
      </trkpt>
      <trkpt lat="45.69152" lon="5.99236">
        <ele>1485</ele>
        <time>2012-02-09T11:55:45Z</time>
      </trkpt>
      <trkpt lat="45.69152" lon="5.99234">
        <ele>1486</ele>
        <time>2012-02-09T11:55:48Z</time>
      </trkpt>
      <trkpt lat="45.69151" lon="5.99233">
        <ele>1486</ele>
        <time>2012-02-09T11:55:51Z</time>
      </trkpt>
      <trkpt lat="45.6915" lon="5.99231">
        <ele>1487</ele>
        <time>2012-02-09T11:55:54Z</time>
      </trkpt>
      <trkpt lat="45.69149" lon="5.99229">
        <ele>1488</ele>
        <time>2012-02-09T11:55:58Z</time>
      </trkpt>
      <trkpt lat="45.69148" lon="5.99228">
        <ele>1489</ele>
        <time>2012-02-09T11:56:01Z</time>
      </trkpt>
      <trkpt lat="45.69146" lon="5.99226">
        <ele>1489</ele>
        <time>2012-02-09T11:56:04Z</time>
      </trkpt>
      <trkpt lat="45.69145" lon="5.99224">
        <ele>1489</ele>
        <time>2012-02-09T11:56:07Z</time>
      </trkpt>
      <trkpt lat="45.69145" lon="5.99223">
        <ele>1490</ele>
        <time>2012-02-09T11:56:10Z</time>
      </trkpt>
      <trkpt lat="45.69143" lon="5.99221">
        <ele>1491</ele>
        <time>2012-02-09T11:56:13Z</time>
      </trkpt>
      <trkpt lat="45.69142" lon="5.99219">
        <ele>1491</ele>
        <time>2012-02-09T11:56:16Z</time>
      </trkpt>
      <trkpt lat="45.69141" lon="5.99218">
        <ele>1491</ele>
        <time>2012-02-09T11:56:19Z</time>
      </trkpt>
      <trkpt lat="45.69139" lon="5.99217">
        <ele>1492</ele>
        <time>2012-02-09T11:56:23Z</time>
      </trkpt>
      <trkpt lat="45.69138" lon="5.99216">
        <ele>1492</ele>
        <time>2012-02-09T11:56:26Z</time>
      </trkpt>
      <trkpt lat="45.69136" lon="5.99215">
        <ele>1492</ele>
        <time>2012-02-09T11:56:29Z</time>
      </trkpt>
      <trkpt lat="45.69135" lon="5.99214">
        <ele>1492</ele>
        <time>2012-02-09T11:56:32Z</time>
      </trkpt>
      <trkpt lat="45.69134" lon="5.99213">
        <ele>1492</ele>
        <time>2012-02-09T11:56:36Z</time>
      </trkpt>
      <trkpt lat="45.69133" lon="5.99211">
        <ele>1492</ele>
        <time>2012-02-09T11:56:49Z</time>
      </trkpt>
      <trkpt lat="45.69133" lon="5.99209">
        <ele>1492</ele>
        <time>2012-02-09T11:56:52Z</time>
      </trkpt>
      <trkpt lat="45.69131" lon="5.99207">
        <ele>1492</ele>
        <time>2012-02-09T11:56:56Z</time>
      </trkpt>
      <trkpt lat="45.69131" lon="5.99206">
        <ele>1492</ele>
        <time>2012-02-09T11:57:00Z</time>
      </trkpt>
      <trkpt lat="45.6913" lon="5.99204">
        <ele>1493</ele>
        <time>2012-02-09T11:57:03Z</time>
      </trkpt>
      <trkpt lat="45.6913" lon="5.99202">
        <ele>1493</ele>
        <time>2012-02-09T11:57:06Z</time>
      </trkpt>
      <trkpt lat="45.69129" lon="5.99201">
        <ele>1494</ele>
        <time>2012-02-09T11:57:09Z</time>
      </trkpt>
      <trkpt lat="45.69128" lon="5.99201">
        <ele>1494</ele>
        <time>2012-02-09T11:57:17Z</time>
      </trkpt>
      <trkpt lat="45.69127" lon="5.99199">
        <ele>1494</ele>
        <time>2012-02-09T11:57:21Z</time>
      </trkpt>
      <trkpt lat="45.69126" lon="5.99198">
        <ele>1494</ele>
        <time>2012-02-09T11:57:24Z</time>
      </trkpt>
      <trkpt lat="45.69125" lon="5.99196">
        <ele>1494</ele>
        <time>2012-02-09T11:57:27Z</time>
      </trkpt>
      <trkpt lat="45.69124" lon="5.99194">
        <ele>1495</ele>
        <time>2012-02-09T11:57:31Z</time>
      </trkpt>
      <trkpt lat="45.69122" lon="5.99192">
        <ele>1495</ele>
        <time>2012-02-09T11:57:35Z</time>
      </trkpt>
      <trkpt lat="45.69121" lon="5.99191">
        <ele>1496</ele>
        <time>2012-02-09T11:57:38Z</time>
      </trkpt>
      <trkpt lat="45.6912" lon="5.99189">
        <ele>1496</ele>
        <time>2012-02-09T11:57:41Z</time>
      </trkpt>
      <trkpt lat="45.69118" lon="5.99188">
        <ele>1496</ele>
        <time>2012-02-09T11:57:44Z</time>
      </trkpt>
      <trkpt lat="45.69117" lon="5.99187">
        <ele>1496</ele>
        <time>2012-02-09T11:57:47Z</time>
      </trkpt>
      <trkpt lat="45.69115" lon="5.99186">
        <ele>1496</ele>
        <time>2012-02-09T11:57:49Z</time>
      </trkpt>
      <trkpt lat="45.69114" lon="5.99184">
        <ele>1497</ele>
        <time>2012-02-09T11:57:52Z</time>
      </trkpt>
      <trkpt lat="45.69113" lon="5.99183">
        <ele>1497</ele>
        <time>2012-02-09T11:57:55Z</time>
      </trkpt>
      <trkpt lat="45.69112" lon="5.99181">
        <ele>1497</ele>
        <time>2012-02-09T11:57:59Z</time>
      </trkpt>
      <trkpt lat="45.6911" lon="5.9918">
        <ele>1498</ele>
        <time>2012-02-09T11:58:02Z</time>
      </trkpt>
      <trkpt lat="45.69109" lon="5.99178">
        <ele>1498</ele>
        <time>2012-02-09T11:58:05Z</time>
      </trkpt>
      <trkpt lat="45.69108" lon="5.99177">
        <ele>1499</ele>
        <time>2012-02-09T11:58:08Z</time>
      </trkpt>
      <trkpt lat="45.69107" lon="5.99175">
        <ele>1499</ele>
        <time>2012-02-09T11:58:11Z</time>
      </trkpt>
      <trkpt lat="45.69106" lon="5.99173">
        <ele>1500</ele>
        <time>2012-02-09T11:58:16Z</time>
      </trkpt>
      <trkpt lat="45.69105" lon="5.99171">
        <ele>1500</ele>
        <time>2012-02-09T11:58:21Z</time>
      </trkpt>
      <trkpt lat="45.69105" lon="5.9917">
        <ele>1501</ele>
        <time>2012-02-09T11:58:31Z</time>
      </trkpt>
      <trkpt lat="45.69104" lon="5.99168">
        <ele>1502</ele>
        <time>2012-02-09T11:58:36Z</time>
      </trkpt>
      <trkpt lat="45.69102" lon="5.99166">
        <ele>1503</ele>
        <time>2012-02-09T11:58:39Z</time>
      </trkpt>
      <trkpt lat="45.69101" lon="5.99166">
        <ele>1503</ele>
        <time>2012-02-09T11:58:44Z</time>
      </trkpt>
      <trkpt lat="45.691" lon="5.99164">
        <ele>1504</ele>
        <time>2012-02-09T11:58:51Z</time>
      </trkpt>
      <trkpt lat="45.69099" lon="5.99163">
        <ele>1504</ele>
        <time>2012-02-09T11:58:59Z</time>
      </trkpt>
      <trkpt lat="45.69098" lon="5.99161">
        <ele>1504</ele>
        <time>2012-02-09T11:59:03Z</time>
      </trkpt>
      <trkpt lat="45.69096" lon="5.9916">
        <ele>1504</ele>
        <time>2012-02-09T11:59:06Z</time>
      </trkpt>
      <trkpt lat="45.69095" lon="5.99159">
        <ele>1504</ele>
        <time>2012-02-09T11:59:09Z</time>
      </trkpt>
      <trkpt lat="45.69094" lon="5.99158">
        <ele>1504</ele>
        <time>2012-02-09T11:59:13Z</time>
      </trkpt>
      <trkpt lat="45.69093" lon="5.99156">
        <ele>1504</ele>
        <time>2012-02-09T11:59:17Z</time>
      </trkpt>
      <trkpt lat="45.69093" lon="5.99155">
        <ele>1504</ele>
        <time>2012-02-09T11:59:22Z</time>
      </trkpt>
      <trkpt lat="45.69092" lon="5.99153">
        <ele>1504</ele>
        <time>2012-02-09T11:59:26Z</time>
      </trkpt>
      <trkpt lat="45.69091" lon="5.99152">
        <ele>1504</ele>
        <time>2012-02-09T11:59:29Z</time>
      </trkpt>
      <trkpt lat="45.69089" lon="5.9915">
        <ele>1504</ele>
        <time>2012-02-09T11:59:31Z</time>
      </trkpt>
      <trkpt lat="45.69088" lon="5.99149">
        <ele>1504</ele>
        <time>2012-02-09T11:59:35Z</time>
      </trkpt>
      <trkpt lat="45.69087" lon="5.99147">
        <ele>1504</ele>
        <time>2012-02-09T11:59:38Z</time>
      </trkpt>
      <trkpt lat="45.69086" lon="5.99145">
        <ele>1504</ele>
        <time>2012-02-09T11:59:42Z</time>
      </trkpt>
      <trkpt lat="45.69086" lon="5.99144">
        <ele>1505</ele>
        <time>2012-02-09T11:59:46Z</time>
      </trkpt>
      <trkpt lat="45.69085" lon="5.99143">
        <ele>1506</ele>
        <time>2012-02-09T11:59:59Z</time>
      </trkpt>
      <trkpt lat="45.69084" lon="5.99141">
        <ele>1506</ele>
        <time>2012-02-09T12:00:03Z</time>
      </trkpt>
      <trkpt lat="45.69083" lon="5.99139">
        <ele>1506</ele>
        <time>2012-02-09T12:00:08Z</time>
      </trkpt>
      <trkpt lat="45.69082" lon="5.99138">
        <ele>1507</ele>
        <time>2012-02-09T12:00:12Z</time>
      </trkpt>
      <trkpt lat="45.69081" lon="5.99136">
        <ele>1507</ele>
        <time>2012-02-09T12:00:16Z</time>
      </trkpt>
      <trkpt lat="45.6908" lon="5.99134">
        <ele>1507</ele>
        <time>2012-02-09T12:00:19Z</time>
      </trkpt>
      <trkpt lat="45.69078" lon="5.99133">
        <ele>1508</ele>
        <time>2012-02-09T12:00:24Z</time>
      </trkpt>
      <trkpt lat="45.69078" lon="5.99131">
        <ele>1508</ele>
        <time>2012-02-09T12:00:28Z</time>
      </trkpt>
      <trkpt lat="45.69077" lon="5.99129">
        <ele>1508</ele>
        <time>2012-02-09T12:00:32Z</time>
      </trkpt>
      <trkpt lat="45.69077" lon="5.99128">
        <ele>1508</ele>
        <time>2012-02-09T12:00:36Z</time>
      </trkpt>
      <trkpt lat="45.69076" lon="5.99126">
        <ele>1509</ele>
        <time>2012-02-09T12:00:40Z</time>
      </trkpt>
      <trkpt lat="45.69076" lon="5.99125">
        <ele>1509</ele>
        <time>2012-02-09T12:00:46Z</time>
      </trkpt>
      <trkpt lat="45.69075" lon="5.99123">
        <ele>1510</ele>
        <time>2012-02-09T12:00:49Z</time>
      </trkpt>
      <trkpt lat="45.69073" lon="5.99122">
        <ele>1510</ele>
        <time>2012-02-09T12:00:53Z</time>
      </trkpt>
      <trkpt lat="45.69072" lon="5.9912">
        <ele>1512</ele>
        <time>2012-02-09T12:01:21Z</time>
      </trkpt>
      <trkpt lat="45.69072" lon="5.99119">
        <ele>1512</ele>
        <time>2012-02-09T12:01:25Z</time>
      </trkpt>
      <trkpt lat="45.69071" lon="5.99117">
        <ele>1512</ele>
        <time>2012-02-09T12:01:28Z</time>
      </trkpt>
      <trkpt lat="45.6907" lon="5.99115">
        <ele>1512</ele>
        <time>2012-02-09T12:01:32Z</time>
      </trkpt>
      <trkpt lat="45.69069" lon="5.99114">
        <ele>1512</ele>
        <time>2012-02-09T12:01:36Z</time>
      </trkpt>
      <trkpt lat="45.69069" lon="5.99112">
        <ele>1512</ele>
        <time>2012-02-09T12:01:38Z</time>
      </trkpt>
      <trkpt lat="45.69067" lon="5.9911">
        <ele>1512</ele>
        <time>2012-02-09T12:01:43Z</time>
      </trkpt>
      <trkpt lat="45.69066" lon="5.99108">
        <ele>1513</ele>
        <time>2012-02-09T12:01:47Z</time>
      </trkpt>
      <trkpt lat="45.69065" lon="5.99107">
        <ele>1513</ele>
        <time>2012-02-09T12:01:51Z</time>
      </trkpt>
      <trkpt lat="45.69064" lon="5.99105">
        <ele>1513</ele>
        <time>2012-02-09T12:01:54Z</time>
      </trkpt>
      <trkpt lat="45.69062" lon="5.99103">
        <ele>1513</ele>
        <time>2012-02-09T12:01:58Z</time>
      </trkpt>
      <trkpt lat="45.69061" lon="5.99102">
        <ele>1514</ele>
        <time>2012-02-09T12:02:03Z</time>
      </trkpt>
      <trkpt lat="45.6906" lon="5.99101">
        <ele>1514</ele>
        <time>2012-02-09T12:02:06Z</time>
      </trkpt>
      <trkpt lat="45.69059" lon="5.99099">
        <ele>1514</ele>
        <time>2012-02-09T12:02:12Z</time>
      </trkpt>
      <trkpt lat="45.69059" lon="5.99097">
        <ele>1514</ele>
        <time>2012-02-09T12:02:15Z</time>
      </trkpt>
      <trkpt lat="45.69058" lon="5.99096">
        <ele>1515</ele>
        <time>2012-02-09T12:02:20Z</time>
      </trkpt>
      <trkpt lat="45.69057" lon="5.99094">
        <ele>1516</ele>
        <time>2012-02-09T12:02:26Z</time>
      </trkpt>
      <trkpt lat="45.69056" lon="5.99093">
        <ele>1518</ele>
        <time>2012-02-09T12:02:36Z</time>
      </trkpt>
      <trkpt lat="45.69055" lon="5.99091">
        <ele>1519</ele>
        <time>2012-02-09T12:02:44Z</time>
      </trkpt>
      <trkpt lat="45.69055" lon="5.99089">
        <ele>1520</ele>
        <time>2012-02-09T12:02:47Z</time>
      </trkpt>
      <trkpt lat="45.69054" lon="5.99087">
        <ele>1520</ele>
        <time>2012-02-09T12:02:53Z</time>
      </trkpt>
      <trkpt lat="45.69053" lon="5.99086">
        <ele>1520</ele>
        <time>2012-02-09T12:02:56Z</time>
      </trkpt>
      <trkpt lat="45.69052" lon="5.99084">
        <ele>1521</ele>
        <time>2012-02-09T12:03:01Z</time>
      </trkpt>
      <trkpt lat="45.69051" lon="5.99083">
        <ele>1522</ele>
        <time>2012-02-09T12:03:12Z</time>
      </trkpt>
      <trkpt lat="45.6905" lon="5.99081">
        <ele>1523</ele>
        <time>2012-02-09T12:03:18Z</time>
      </trkpt>
      <trkpt lat="45.69049" lon="5.99079">
        <ele>1523</ele>
        <time>2012-02-09T12:03:24Z</time>
      </trkpt>
      <trkpt lat="45.69048" lon="5.99078">
        <ele>1524</ele>
        <time>2012-02-09T12:03:29Z</time>
      </trkpt>
      <trkpt lat="45.69048" lon="5.99076">
        <ele>1524</ele>
        <time>2012-02-09T12:03:33Z</time>
      </trkpt>
      <trkpt lat="45.69047" lon="5.99075">
        <ele>1524</ele>
        <time>2012-02-09T12:03:40Z</time>
      </trkpt>
      <trkpt lat="45.69046" lon="5.99073">
        <ele>1524</ele>
        <time>2012-02-09T12:03:42Z</time>
      </trkpt>
      <trkpt lat="45.69046" lon="5.99072">
        <ele>1525</ele>
        <time>2012-02-09T12:03:54Z</time>
      </trkpt>
      <trkpt lat="45.69046" lon="5.9907">
        <ele>1525</ele>
        <time>2012-02-09T12:04:28Z</time>
      </trkpt>
      <trkpt lat="45.69048" lon="5.9907">
        <ele>1526</ele>
        <time>2012-02-09T12:05:12Z</time>
      </trkpt>
      <trkpt lat="45.69049" lon="5.99071">
        <ele>1527</ele>
        <time>2012-02-09T12:06:20Z</time>
      </trkpt>
      <trkpt lat="45.69049" lon="5.99069">
        <ele>1527</ele>
        <time>2012-02-09T12:06:45Z</time>
      </trkpt>
      <trkpt lat="45.69048" lon="5.99068">
        <ele>1527</ele>
        <time>2012-02-09T12:06:51Z</time>
      </trkpt>
      <trkpt lat="45.69047" lon="5.99066">
        <ele>1527</ele>
        <time>2012-02-09T12:06:57Z</time>
      </trkpt>
      <trkpt lat="45.69047" lon="5.99065">
        <ele>1527</ele>
        <time>2012-02-09T12:06:59Z</time>
      </trkpt>
      <trkpt lat="45.69047" lon="5.99063">
        <ele>1528</ele>
        <time>2012-02-09T12:07:04Z</time>
      </trkpt>
      <trkpt lat="45.69046" lon="5.99061">
        <ele>1528</ele>
        <time>2012-02-09T12:07:08Z</time>
      </trkpt>
      <trkpt lat="45.69045" lon="5.9906">
        <ele>1529</ele>
        <time>2012-02-09T12:07:11Z</time>
      </trkpt>
      <trkpt lat="45.69044" lon="5.99059">
        <ele>1530</ele>
        <time>2012-02-09T12:07:21Z</time>
      </trkpt>
      <trkpt lat="45.69042" lon="5.99057">
        <ele>1530</ele>
        <time>2012-02-09T12:07:24Z</time>
      </trkpt>
      <trkpt lat="45.69041" lon="5.99056">
        <ele>1530</ele>
        <time>2012-02-09T12:07:29Z</time>
      </trkpt>
      <trkpt lat="45.6904" lon="5.99054">
        <ele>1531</ele>
        <time>2012-02-09T12:07:39Z</time>
      </trkpt>
      <trkpt lat="45.69038" lon="5.99053">
        <ele>1532</ele>
        <time>2012-02-09T12:07:41Z</time>
      </trkpt>
      <trkpt lat="45.69037" lon="5.99052">
        <ele>1532</ele>
        <time>2012-02-09T12:08:03Z</time>
      </trkpt>
      <trkpt lat="45.69035" lon="5.99051">
        <ele>1533</ele>
        <time>2012-02-09T12:08:06Z</time>
      </trkpt>
      <trkpt lat="45.69034" lon="5.99049">
        <ele>1533</ele>
        <time>2012-02-09T12:08:09Z</time>
      </trkpt>
      <trkpt lat="45.69033" lon="5.99048">
        <ele>1533</ele>
        <time>2012-02-09T12:08:11Z</time>
      </trkpt>
      <trkpt lat="45.69032" lon="5.99046">
        <ele>1534</ele>
        <time>2012-02-09T12:08:17Z</time>
      </trkpt>
      <trkpt lat="45.6903" lon="5.99045">
        <ele>1534</ele>
        <time>2012-02-09T12:08:19Z</time>
      </trkpt>
      <trkpt lat="45.69029" lon="5.99043">
        <ele>1535</ele>
        <time>2012-02-09T12:08:26Z</time>
      </trkpt>
      <trkpt lat="45.69028" lon="5.99042">
        <ele>1535</ele>
        <time>2012-02-09T12:08:31Z</time>
      </trkpt>
      <trkpt lat="45.69027" lon="5.9904">
        <ele>1535</ele>
        <time>2012-02-09T12:08:34Z</time>
      </trkpt>
      <trkpt lat="45.69027" lon="5.99038">
        <ele>1535</ele>
        <time>2012-02-09T12:08:37Z</time>
      </trkpt>
      <trkpt lat="45.69025" lon="5.99037">
        <ele>1536</ele>
        <time>2012-02-09T12:08:41Z</time>
      </trkpt>
      <trkpt lat="45.69024" lon="5.99035">
        <ele>1536</ele>
        <time>2012-02-09T12:08:44Z</time>
      </trkpt>
      <trkpt lat="45.69023" lon="5.99034">
        <ele>1538</ele>
        <time>2012-02-09T12:08:50Z</time>
      </trkpt>
      <trkpt lat="45.69022" lon="5.99032">
        <ele>1538</ele>
        <time>2012-02-09T12:08:59Z</time>
      </trkpt>
      <trkpt lat="45.69021" lon="5.99031">
        <ele>1538</ele>
        <time>2012-02-09T12:09:04Z</time>
      </trkpt>
      <trkpt lat="45.6902" lon="5.99029">
        <ele>1539</ele>
        <time>2012-02-09T12:09:06Z</time>
      </trkpt>
      <trkpt lat="45.69019" lon="5.99028">
        <ele>1539</ele>
        <time>2012-02-09T12:09:10Z</time>
      </trkpt>
      <trkpt lat="45.69019" lon="5.99026">
        <ele>1539</ele>
        <time>2012-02-09T12:09:12Z</time>
      </trkpt>
      <trkpt lat="45.69017" lon="5.99024">
        <ele>1539</ele>
        <time>2012-02-09T12:09:16Z</time>
      </trkpt>
      <trkpt lat="45.69016" lon="5.99023">
        <ele>1540</ele>
        <time>2012-02-09T12:09:19Z</time>
      </trkpt>
      <trkpt lat="45.69015" lon="5.99021">
        <ele>1540</ele>
        <time>2012-02-09T12:09:23Z</time>
      </trkpt>
      <trkpt lat="45.69014" lon="5.9902">
        <ele>1540</ele>
        <time>2012-02-09T12:09:26Z</time>
      </trkpt>
      <trkpt lat="45.69013" lon="5.99018">
        <ele>1541</ele>
        <time>2012-02-09T12:09:34Z</time>
      </trkpt>
      <trkpt lat="45.69012" lon="5.99016">
        <ele>1541</ele>
        <time>2012-02-09T12:09:37Z</time>
      </trkpt>
      <trkpt lat="45.69011" lon="5.99015">
        <ele>1541</ele>
        <time>2012-02-09T12:09:47Z</time>
      </trkpt>
      <trkpt lat="45.6901" lon="5.99013">
        <ele>1542</ele>
        <time>2012-02-09T12:09:51Z</time>
      </trkpt>
      <trkpt lat="45.69009" lon="5.99012">
        <ele>1542</ele>
        <time>2012-02-09T12:09:53Z</time>
      </trkpt>
      <trkpt lat="45.69008" lon="5.99012">
        <ele>1542</ele>
        <time>2012-02-09T12:10:00Z</time>
      </trkpt>
      <trkpt lat="45.69006" lon="5.99011">
        <ele>1543</ele>
        <time>2012-02-09T12:10:05Z</time>
      </trkpt>
      <trkpt lat="45.69005" lon="5.99009">
        <ele>1543</ele>
        <time>2012-02-09T12:10:08Z</time>
      </trkpt>
      <trkpt lat="45.69005" lon="5.99008">
        <ele>1543</ele>
        <time>2012-02-09T12:10:11Z</time>
      </trkpt>
      <trkpt lat="45.69004" lon="5.99006">
        <ele>1545</ele>
        <time>2012-02-09T12:10:15Z</time>
      </trkpt>
      <trkpt lat="45.69003" lon="5.99004">
        <ele>1545</ele>
        <time>2012-02-09T12:10:18Z</time>
      </trkpt>
      <trkpt lat="45.69002" lon="5.99002">
        <ele>1546</ele>
        <time>2012-02-09T12:10:21Z</time>
      </trkpt>
      <trkpt lat="45.69001" lon="5.99001">
        <ele>1547</ele>
        <time>2012-02-09T12:10:24Z</time>
      </trkpt>
      <trkpt lat="45.68999" lon="5.98999">
        <ele>1547</ele>
        <time>2012-02-09T12:10:26Z</time>
      </trkpt>
      <trkpt lat="45.68998" lon="5.98998">
        <ele>1547</ele>
        <time>2012-02-09T12:10:30Z</time>
      </trkpt>
      <trkpt lat="45.68997" lon="5.98996">
        <ele>1548</ele>
        <time>2012-02-09T12:10:33Z</time>
      </trkpt>
      <trkpt lat="45.68996" lon="5.98994">
        <ele>1548</ele>
        <time>2012-02-09T12:10:36Z</time>
      </trkpt>
      <trkpt lat="45.68998" lon="5.98994">
        <ele>1549</ele>
        <time>2012-02-09T12:10:46Z</time>
      </trkpt>
      <trkpt lat="45.68997" lon="5.98992">
        <ele>1550</ele>
        <time>2012-02-09T12:10:53Z</time>
      </trkpt>
      <trkpt lat="45.68996" lon="5.98991">
        <ele>1550</ele>
        <time>2012-02-09T12:10:56Z</time>
      </trkpt>
      <trkpt lat="45.68995" lon="5.98989">
        <ele>1550</ele>
        <time>2012-02-09T12:11:00Z</time>
      </trkpt>
      <trkpt lat="45.68993" lon="5.98986">
        <ele>1550</ele>
        <time>2012-02-09T12:11:04Z</time>
      </trkpt>
      <trkpt lat="45.68992" lon="5.98984">
        <ele>1550</ele>
        <time>2012-02-09T12:11:08Z</time>
      </trkpt>
      <trkpt lat="45.68991" lon="5.98983">
        <ele>1550</ele>
        <time>2012-02-09T12:11:11Z</time>
      </trkpt>
      <trkpt lat="45.6899" lon="5.98981">
        <ele>1550</ele>
        <time>2012-02-09T12:11:15Z</time>
      </trkpt>
      <trkpt lat="45.68989" lon="5.98979">
        <ele>1550</ele>
        <time>2012-02-09T12:11:17Z</time>
      </trkpt>
      <trkpt lat="45.68988" lon="5.98978">
        <ele>1551</ele>
        <time>2012-02-09T12:11:21Z</time>
      </trkpt>
      <trkpt lat="45.68987" lon="5.98976">
        <ele>1551</ele>
        <time>2012-02-09T12:11:23Z</time>
      </trkpt>
      <trkpt lat="45.68985" lon="5.98974">
        <ele>1551</ele>
        <time>2012-02-09T12:11:27Z</time>
      </trkpt>
      <trkpt lat="45.68984" lon="5.98973">
        <ele>1552</ele>
        <time>2012-02-09T12:11:29Z</time>
      </trkpt>
      <trkpt lat="45.68983" lon="5.98971">
        <ele>1553</ele>
        <time>2012-02-09T12:11:33Z</time>
      </trkpt>
      <trkpt lat="45.68981" lon="5.9897">
        <ele>1553</ele>
        <time>2012-02-09T12:11:36Z</time>
      </trkpt>
      <trkpt lat="45.6898" lon="5.98969">
        <ele>1554</ele>
        <time>2012-02-09T12:11:39Z</time>
      </trkpt>
      <trkpt lat="45.68978" lon="5.98967">
        <ele>1554</ele>
        <time>2012-02-09T12:11:41Z</time>
      </trkpt>
      <trkpt lat="45.68977" lon="5.98966">
        <ele>1555</ele>
        <time>2012-02-09T12:11:45Z</time>
      </trkpt>
      <trkpt lat="45.68976" lon="5.98964">
        <ele>1555</ele>
        <time>2012-02-09T12:11:47Z</time>
      </trkpt>
      <trkpt lat="45.68975" lon="5.98962">
        <ele>1556</ele>
        <time>2012-02-09T12:11:51Z</time>
      </trkpt>
      <trkpt lat="45.68973" lon="5.98961">
        <ele>1556</ele>
        <time>2012-02-09T12:11:53Z</time>
      </trkpt>
      <trkpt lat="45.68972" lon="5.9896">
        <ele>1557</ele>
        <time>2012-02-09T12:11:56Z</time>
      </trkpt>
      <trkpt lat="45.6897" lon="5.98958">
        <ele>1557</ele>
        <time>2012-02-09T12:11:58Z</time>
      </trkpt>
      <trkpt lat="45.68969" lon="5.98956">
        <ele>1557</ele>
        <time>2012-02-09T12:12:02Z</time>
      </trkpt>
      <trkpt lat="45.68968" lon="5.98955">
        <ele>1557</ele>
        <time>2012-02-09T12:12:04Z</time>
      </trkpt>
      <trkpt lat="45.68967" lon="5.98953">
        <ele>1559</ele>
        <time>2012-02-09T12:12:13Z</time>
      </trkpt>
      <trkpt lat="45.68964" lon="5.9895">
        <ele>1560</ele>
        <time>2012-02-09T12:12:18Z</time>
      </trkpt>
      <trkpt lat="45.68962" lon="5.98948">
        <ele>1560</ele>
        <time>2012-02-09T12:12:21Z</time>
      </trkpt>
      <trkpt lat="45.68961" lon="5.98947">
        <ele>1560</ele>
        <time>2012-02-09T12:12:24Z</time>
      </trkpt>
      <trkpt lat="45.6896" lon="5.98946">
        <ele>1560</ele>
        <time>2012-02-09T12:12:26Z</time>
      </trkpt>
      <trkpt lat="45.68957" lon="5.98945">
        <ele>1560</ele>
        <time>2012-02-09T12:12:30Z</time>
      </trkpt>
      <trkpt lat="45.68954" lon="5.98945">
        <ele>1560</ele>
        <time>2012-02-09T12:12:35Z</time>
      </trkpt>
      <trkpt lat="45.68951" lon="5.98945">
        <ele>1560</ele>
        <time>2012-02-09T12:12:37Z</time>
      </trkpt>
      <trkpt lat="45.6895" lon="5.98945">
        <ele>1560</ele>
        <time>2012-02-09T12:12:40Z</time>
      </trkpt>
      <trkpt lat="45.68947" lon="5.98944">
        <ele>1560</ele>
        <time>2012-02-09T12:12:48Z</time>
      </trkpt>
      <trkpt lat="45.68945" lon="5.98943">
        <ele>1560</ele>
        <time>2012-02-09T12:12:52Z</time>
      </trkpt>
      <trkpt lat="45.68945" lon="5.98941">
        <ele>1560</ele>
        <time>2012-02-09T12:12:57Z</time>
      </trkpt>
      <trkpt lat="45.68945" lon="5.98943">
        <ele>1560</ele>
        <time>2012-02-09T12:14:14Z</time>
      </trkpt>
      <trkpt lat="45.68945" lon="5.98945">
        <ele>1559</ele>
        <time>2012-02-09T12:14:50Z</time>
      </trkpt>
      <trkpt lat="45.68945" lon="5.98943">
        <ele>1559</ele>
        <time>2012-02-09T12:15:11Z</time>
      </trkpt>
      <trkpt lat="45.68944" lon="5.98942">
        <ele>1559</ele>
        <time>2012-02-09T12:15:54Z</time>
      </trkpt>
      <trkpt lat="45.68945" lon="5.98944">
        <ele>1559</ele>
        <time>2012-02-09T12:17:09Z</time>
      </trkpt>
      <trkpt lat="45.68943" lon="5.98942">
        <ele>1559</ele>
        <time>2012-02-09T12:17:36Z</time>
      </trkpt>
      <trkpt lat="45.68942" lon="5.98942">
        <ele>1558</ele>
        <time>2012-02-09T12:17:56Z</time>
      </trkpt>
      <trkpt lat="45.68943" lon="5.98942">
        <ele>1558</ele>
        <time>2012-02-09T12:18:09Z</time>
      </trkpt>
      <trkpt lat="45.68943" lon="5.98943">
        <ele>1558</ele>
        <time>2012-02-09T12:19:38Z</time>
      </trkpt>
      <trkpt lat="45.68942" lon="5.98943">
        <ele>1558</ele>
        <time>2012-02-09T12:20:27Z</time>
      </trkpt>
      <trkpt lat="45.68943" lon="5.98943">
        <ele>1558</ele>
        <time>2012-02-09T12:20:52Z</time>
      </trkpt>
      <trkpt lat="45.68943" lon="5.98942">
        <ele>1558</ele>
        <time>2012-02-09T12:21:26Z</time>
      </trkpt>
      <trkpt lat="45.68945" lon="5.98942">
        <ele>1558</ele>
        <time>2012-02-09T12:23:36Z</time>
      </trkpt>
      <trkpt lat="45.68943" lon="5.98943">
        <ele>1558</ele>
        <time>2012-02-09T12:24:24Z</time>
      </trkpt>
      <trkpt lat="45.68944" lon="5.98942">
        <ele>1558</ele>
        <time>2012-02-09T12:25:41Z</time>
      </trkpt>
      <trkpt lat="45.68944" lon="5.9894">
        <ele>1558</ele>
        <time>2012-02-09T12:25:56Z</time>
      </trkpt>
      <trkpt lat="45.68944" lon="5.98942">
        <ele>1558</ele>
        <time>2012-02-09T12:26:12Z</time>
      </trkpt>
      <trkpt lat="45.68945" lon="5.9894">
        <ele>1558</ele>
        <time>2012-02-09T12:27:59Z</time>
      </trkpt>
      <trkpt lat="45.68945" lon="5.98942">
        <ele>1558</ele>
        <time>2012-02-09T12:28:07Z</time>
      </trkpt>
      <trkpt lat="45.68945" lon="5.98943">
        <ele>1558</ele>
        <time>2012-02-09T12:28:14Z</time>
      </trkpt>
      <trkpt lat="45.68944" lon="5.98943">
        <ele>1558</ele>
        <time>2012-02-09T12:28:31Z</time>
      </trkpt>
      <trkpt lat="45.68943" lon="5.98941">
        <ele>1558</ele>
        <time>2012-02-09T12:29:06Z</time>
      </trkpt>
      <trkpt lat="45.68945" lon="5.98942">
        <ele>1558</ele>
        <time>2012-02-09T12:29:26Z</time>
      </trkpt>
      <trkpt lat="45.68943" lon="5.98943">
        <ele>1558</ele>
        <time>2012-02-09T12:30:18Z</time>
      </trkpt>
      <trkpt lat="45.68942" lon="5.98942">
        <ele>1558</ele>
        <time>2012-02-09T12:30:27Z</time>
      </trkpt>
      <trkpt lat="45.6894" lon="5.98943">
        <ele>1558</ele>
        <time>2012-02-09T12:30:29Z</time>
      </trkpt>
      <trkpt lat="45.68938" lon="5.98944">
        <ele>1558</ele>
        <time>2012-02-09T12:30:31Z</time>
      </trkpt>
      <trkpt lat="45.68937" lon="5.98943">
        <ele>1558</ele>
        <time>2012-02-09T12:30:33Z</time>
      </trkpt>
      <trkpt lat="45.68935" lon="5.98943">
        <ele>1558</ele>
        <time>2012-02-09T12:30:36Z</time>
      </trkpt>
      <trkpt lat="45.68933" lon="5.98942">
        <ele>1558</ele>
        <time>2012-02-09T12:30:41Z</time>
      </trkpt>
      <trkpt lat="45.6893" lon="5.98942">
        <ele>1558</ele>
        <time>2012-02-09T12:30:44Z</time>
      </trkpt>
      <trkpt lat="45.68929" lon="5.98941">
        <ele>1558</ele>
        <time>2012-02-09T12:30:47Z</time>
      </trkpt>
      <trkpt lat="45.68928" lon="5.98941">
        <ele>1558</ele>
        <time>2012-02-09T12:30:51Z</time>
      </trkpt>
      <trkpt lat="45.68925" lon="5.9894">
        <ele>1558</ele>
        <time>2012-02-09T12:30:54Z</time>
      </trkpt>
      <trkpt lat="45.68924" lon="5.98939">
        <ele>1558</ele>
        <time>2012-02-09T12:30:56Z</time>
      </trkpt>
      <trkpt lat="45.68923" lon="5.98938">
        <ele>1558</ele>
        <time>2012-02-09T12:30:58Z</time>
      </trkpt>
      <trkpt lat="45.68922" lon="5.98937">
        <ele>1558</ele>
        <time>2012-02-09T12:31:01Z</time>
      </trkpt>
      <trkpt lat="45.68919" lon="5.98934">
        <ele>1558</ele>
        <time>2012-02-09T12:31:04Z</time>
      </trkpt>
      <trkpt lat="45.68918" lon="5.98933">
        <ele>1558</ele>
        <time>2012-02-09T12:31:06Z</time>
      </trkpt>
      <trkpt lat="45.68916" lon="5.98932">
        <ele>1557</ele>
        <time>2012-02-09T12:31:08Z</time>
      </trkpt>
      <trkpt lat="45.68915" lon="5.9893">
        <ele>1557</ele>
        <time>2012-02-09T12:31:11Z</time>
      </trkpt>
      <trkpt lat="45.68914" lon="5.98929">
        <ele>1557</ele>
        <time>2012-02-09T12:31:14Z</time>
      </trkpt>
      <trkpt lat="45.68913" lon="5.98928">
        <ele>1557</ele>
        <time>2012-02-09T12:31:17Z</time>
      </trkpt>
      <trkpt lat="45.68911" lon="5.98926">
        <ele>1557</ele>
        <time>2012-02-09T12:31:19Z</time>
      </trkpt>
      <trkpt lat="45.6891" lon="5.98925">
        <ele>1557</ele>
        <time>2012-02-09T12:31:22Z</time>
      </trkpt>
      <trkpt lat="45.68908" lon="5.98924">
        <ele>1557</ele>
        <time>2012-02-09T12:31:24Z</time>
      </trkpt>
      <trkpt lat="45.68907" lon="5.98923">
        <ele>1557</ele>
        <time>2012-02-09T12:31:26Z</time>
      </trkpt>
      <trkpt lat="45.68906" lon="5.98922">
        <ele>1557</ele>
        <time>2012-02-09T12:31:28Z</time>
      </trkpt>
      <trkpt lat="45.68905" lon="5.98922">
        <ele>1557</ele>
        <time>2012-02-09T12:31:31Z</time>
      </trkpt>
      <trkpt lat="45.68903" lon="5.98919">
        <ele>1557</ele>
        <time>2012-02-09T12:31:33Z</time>
      </trkpt>
      <trkpt lat="45.68902" lon="5.98918">
        <ele>1557</ele>
        <time>2012-02-09T12:31:36Z</time>
      </trkpt>
      <trkpt lat="45.68898" lon="5.98915">
        <ele>1557</ele>
        <time>2012-02-09T12:31:39Z</time>
      </trkpt>
      <trkpt lat="45.68897" lon="5.98913">
        <ele>1557</ele>
        <time>2012-02-09T12:31:41Z</time>
      </trkpt>
      <trkpt lat="45.68895" lon="5.98912">
        <ele>1557</ele>
        <time>2012-02-09T12:31:43Z</time>
      </trkpt>
      <trkpt lat="45.68894" lon="5.98911">
        <ele>1557</ele>
        <time>2012-02-09T12:31:46Z</time>
      </trkpt>
      <trkpt lat="45.68892" lon="5.98908">
        <ele>1557</ele>
        <time>2012-02-09T12:31:49Z</time>
      </trkpt>
      <trkpt lat="45.6889" lon="5.98906">
        <ele>1557</ele>
        <time>2012-02-09T12:31:51Z</time>
      </trkpt>
      <trkpt lat="45.68889" lon="5.98904">
        <ele>1557</ele>
        <time>2012-02-09T12:31:53Z</time>
      </trkpt>
      <trkpt lat="45.68888" lon="5.98903">
        <ele>1557</ele>
        <time>2012-02-09T12:31:56Z</time>
      </trkpt>
      <trkpt lat="45.68885" lon="5.98899">
        <ele>1557</ele>
        <time>2012-02-09T12:31:59Z</time>
      </trkpt>
      <trkpt lat="45.68883" lon="5.98898">
        <ele>1557</ele>
        <time>2012-02-09T12:32:01Z</time>
      </trkpt>
      <trkpt lat="45.68882" lon="5.98896">
        <ele>1557</ele>
        <time>2012-02-09T12:32:03Z</time>
      </trkpt>
      <trkpt lat="45.6888" lon="5.98895">
        <ele>1557</ele>
        <time>2012-02-09T12:32:06Z</time>
      </trkpt>
      <trkpt lat="45.68878" lon="5.98892">
        <ele>1557</ele>
        <time>2012-02-09T12:32:09Z</time>
      </trkpt>
      <trkpt lat="45.68877" lon="5.9889">
        <ele>1557</ele>
        <time>2012-02-09T12:32:11Z</time>
      </trkpt>
      <trkpt lat="45.68875" lon="5.98888">
        <ele>1557</ele>
        <time>2012-02-09T12:32:15Z</time>
      </trkpt>
      <trkpt lat="45.68872" lon="5.98885">
        <ele>1557</ele>
        <time>2012-02-09T12:32:18Z</time>
      </trkpt>
      <trkpt lat="45.68871" lon="5.98883">
        <ele>1557</ele>
        <time>2012-02-09T12:32:21Z</time>
      </trkpt>
      <trkpt lat="45.68869" lon="5.9888">
        <ele>1557</ele>
        <time>2012-02-09T12:32:24Z</time>
      </trkpt>
      <trkpt lat="45.68867" lon="5.98879">
        <ele>1557</ele>
        <time>2012-02-09T12:32:27Z</time>
      </trkpt>
      <trkpt lat="45.68864" lon="5.98876">
        <ele>1557</ele>
        <time>2012-02-09T12:32:31Z</time>
      </trkpt>
      <trkpt lat="45.68863" lon="5.98875">
        <ele>1557</ele>
        <time>2012-02-09T12:32:33Z</time>
      </trkpt>
      <trkpt lat="45.68862" lon="5.98874">
        <ele>1557</ele>
        <time>2012-02-09T12:32:36Z</time>
      </trkpt>
      <trkpt lat="45.68859" lon="5.98871">
        <ele>1557</ele>
        <time>2012-02-09T12:32:39Z</time>
      </trkpt>
      <trkpt lat="45.68858" lon="5.9887">
        <ele>1557</ele>
        <time>2012-02-09T12:32:41Z</time>
      </trkpt>
      <trkpt lat="45.68856" lon="5.98868">
        <ele>1557</ele>
        <time>2012-02-09T12:32:45Z</time>
      </trkpt>
      <trkpt lat="45.68855" lon="5.98866">
        <ele>1557</ele>
        <time>2012-02-09T12:32:47Z</time>
      </trkpt>
      <trkpt lat="45.68854" lon="5.98865">
        <ele>1557</ele>
        <time>2012-02-09T12:32:50Z</time>
      </trkpt>
      <trkpt lat="45.68851" lon="5.98863">
        <ele>1557</ele>
        <time>2012-02-09T12:32:53Z</time>
      </trkpt>
      <trkpt lat="45.6885" lon="5.98862">
        <ele>1557</ele>
        <time>2012-02-09T12:32:56Z</time>
      </trkpt>
      <trkpt lat="45.68848" lon="5.98859">
        <ele>1557</ele>
        <time>2012-02-09T12:32:59Z</time>
      </trkpt>
      <trkpt lat="45.68847" lon="5.98858">
        <ele>1557</ele>
        <time>2012-02-09T12:33:01Z</time>
      </trkpt>
      <trkpt lat="45.68845" lon="5.98857">
        <ele>1557</ele>
        <time>2012-02-09T12:33:03Z</time>
      </trkpt>
      <trkpt lat="45.68844" lon="5.98856">
        <ele>1557</ele>
        <time>2012-02-09T12:33:06Z</time>
      </trkpt>
      <trkpt lat="45.6884" lon="5.98852">
        <ele>1557</ele>
        <time>2012-02-09T12:33:09Z</time>
      </trkpt>
      <trkpt lat="45.68839" lon="5.9885">
        <ele>1557</ele>
        <time>2012-02-09T12:33:11Z</time>
      </trkpt>
      <trkpt lat="45.68837" lon="5.98849">
        <ele>1557</ele>
        <time>2012-02-09T12:33:13Z</time>
      </trkpt>
      <trkpt lat="45.68835" lon="5.98848">
        <ele>1557</ele>
        <time>2012-02-09T12:33:16Z</time>
      </trkpt>
      <trkpt lat="45.68832" lon="5.98846">
        <ele>1556</ele>
        <time>2012-02-09T12:33:21Z</time>
      </trkpt>
      <trkpt lat="45.68829" lon="5.98843">
        <ele>1555</ele>
        <time>2012-02-09T12:33:24Z</time>
      </trkpt>
      <trkpt lat="45.68827" lon="5.98842">
        <ele>1554</ele>
        <time>2012-02-09T12:33:26Z</time>
      </trkpt>
      <trkpt lat="45.68825" lon="5.98841">
        <ele>1554</ele>
        <time>2012-02-09T12:33:28Z</time>
      </trkpt>
      <trkpt lat="45.68823" lon="5.9884">
        <ele>1554</ele>
        <time>2012-02-09T12:33:31Z</time>
      </trkpt>
      <trkpt lat="45.68819" lon="5.98838">
        <ele>1553</ele>
        <time>2012-02-09T12:33:34Z</time>
      </trkpt>
      <trkpt lat="45.68818" lon="5.98837">
        <ele>1552</ele>
        <time>2012-02-09T12:33:36Z</time>
      </trkpt>
      <trkpt lat="45.68816" lon="5.98836">
        <ele>1552</ele>
        <time>2012-02-09T12:33:38Z</time>
      </trkpt>
      <trkpt lat="45.68814" lon="5.98835">
        <ele>1551</ele>
        <time>2012-02-09T12:33:41Z</time>
      </trkpt>
      <trkpt lat="45.68811" lon="5.98831">
        <ele>1550</ele>
        <time>2012-02-09T12:33:44Z</time>
      </trkpt>
      <trkpt lat="45.68809" lon="5.9883">
        <ele>1550</ele>
        <time>2012-02-09T12:33:46Z</time>
      </trkpt>
      <trkpt lat="45.68807" lon="5.98827">
        <ele>1549</ele>
        <time>2012-02-09T12:33:48Z</time>
      </trkpt>
      <trkpt lat="45.68805" lon="5.98825">
        <ele>1549</ele>
        <time>2012-02-09T12:33:51Z</time>
      </trkpt>
      <trkpt lat="45.68802" lon="5.98821">
        <ele>1549</ele>
        <time>2012-02-09T12:33:54Z</time>
      </trkpt>
      <trkpt lat="45.688" lon="5.98818">
        <ele>1549</ele>
        <time>2012-02-09T12:33:57Z</time>
      </trkpt>
      <trkpt lat="45.68797" lon="5.98814">
        <ele>1549</ele>
        <time>2012-02-09T12:34:01Z</time>
      </trkpt>
      <trkpt lat="45.68794" lon="5.9881">
        <ele>1549</ele>
        <time>2012-02-09T12:34:04Z</time>
      </trkpt>
      <trkpt lat="45.68793" lon="5.98808">
        <ele>1549</ele>
        <time>2012-02-09T12:34:06Z</time>
      </trkpt>
      <trkpt lat="45.68791" lon="5.98806">
        <ele>1549</ele>
        <time>2012-02-09T12:34:09Z</time>
      </trkpt>
      <trkpt lat="45.6879" lon="5.98803">
        <ele>1549</ele>
        <time>2012-02-09T12:34:11Z</time>
      </trkpt>
      <trkpt lat="45.68787" lon="5.98798">
        <ele>1549</ele>
        <time>2012-02-09T12:34:14Z</time>
      </trkpt>
      <trkpt lat="45.68785" lon="5.98795">
        <ele>1549</ele>
        <time>2012-02-09T12:34:16Z</time>
      </trkpt>
      <trkpt lat="45.68784" lon="5.98792">
        <ele>1549</ele>
        <time>2012-02-09T12:34:18Z</time>
      </trkpt>
      <trkpt lat="45.68784" lon="5.98789">
        <ele>1549</ele>
        <time>2012-02-09T12:34:21Z</time>
      </trkpt>
      <trkpt lat="45.68782" lon="5.98784">
        <ele>1549</ele>
        <time>2012-02-09T12:34:23Z</time>
      </trkpt>
      <trkpt lat="45.68781" lon="5.98781">
        <ele>1549</ele>
        <time>2012-02-09T12:34:26Z</time>
      </trkpt>
      <trkpt lat="45.68778" lon="5.98777">
        <ele>1549</ele>
        <time>2012-02-09T12:34:28Z</time>
      </trkpt>
      <trkpt lat="45.68777" lon="5.98775">
        <ele>1549</ele>
        <time>2012-02-09T12:34:31Z</time>
      </trkpt>
      <trkpt lat="45.68775" lon="5.9877">
        <ele>1548</ele>
        <time>2012-02-09T12:34:34Z</time>
      </trkpt>
      <trkpt lat="45.68774" lon="5.98766">
        <ele>1547</ele>
        <time>2012-02-09T12:34:36Z</time>
      </trkpt>
      <trkpt lat="45.68771" lon="5.98763">
        <ele>1546</ele>
        <time>2012-02-09T12:34:38Z</time>
      </trkpt>
      <trkpt lat="45.68769" lon="5.98761">
        <ele>1546</ele>
        <time>2012-02-09T12:34:41Z</time>
      </trkpt>
      <trkpt lat="45.68766" lon="5.98759">
        <ele>1546</ele>
        <time>2012-02-09T12:34:43Z</time>
      </trkpt>
      <trkpt lat="45.68764" lon="5.98757">
        <ele>1546</ele>
        <time>2012-02-09T12:34:46Z</time>
      </trkpt>
      <trkpt lat="45.68761" lon="5.98754">
        <ele>1546</ele>
        <time>2012-02-09T12:34:49Z</time>
      </trkpt>
      <trkpt lat="45.6876" lon="5.98753">
        <ele>1545</ele>
        <time>2012-02-09T12:34:51Z</time>
      </trkpt>
      <trkpt lat="45.68758" lon="5.98751">
        <ele>1545</ele>
        <time>2012-02-09T12:34:53Z</time>
      </trkpt>
      <trkpt lat="45.68756" lon="5.98749">
        <ele>1544</ele>
        <time>2012-02-09T12:34:56Z</time>
      </trkpt>
      <trkpt lat="45.68752" lon="5.9875">
        <ele>1544</ele>
        <time>2012-02-09T12:34:59Z</time>
      </trkpt>
      <trkpt lat="45.6875" lon="5.98751">
        <ele>1544</ele>
        <time>2012-02-09T12:35:01Z</time>
      </trkpt>
      <trkpt lat="45.68748" lon="5.98752">
        <ele>1544</ele>
        <time>2012-02-09T12:35:03Z</time>
      </trkpt>
      <trkpt lat="45.68746" lon="5.98754">
        <ele>1544</ele>
        <time>2012-02-09T12:35:06Z</time>
      </trkpt>
      <trkpt lat="45.68743" lon="5.98757">
        <ele>1544</ele>
        <time>2012-02-09T12:35:16Z</time>
      </trkpt>
      <trkpt lat="45.68742" lon="5.98757">
        <ele>1544</ele>
        <time>2012-02-09T12:35:27Z</time>
      </trkpt>
      <trkpt lat="45.6874" lon="5.98757">
        <ele>1544</ele>
        <time>2012-02-09T12:35:41Z</time>
      </trkpt>
      <trkpt lat="45.68741" lon="5.98759">
        <ele>1544</ele>
        <time>2012-02-09T12:35:49Z</time>
      </trkpt>
      <trkpt lat="45.68742" lon="5.98759">
        <ele>1544</ele>
        <time>2012-02-09T12:36:11Z</time>
      </trkpt>
      <trkpt lat="45.6874" lon="5.98761">
        <ele>1544</ele>
        <time>2012-02-09T12:36:31Z</time>
      </trkpt>
      <trkpt lat="45.68737" lon="5.98768">
        <ele>1544</ele>
        <time>2012-02-09T12:36:33Z</time>
      </trkpt>
      <trkpt lat="45.68735" lon="5.98786">
        <ele>1544</ele>
        <time>2012-02-09T12:36:36Z</time>
      </trkpt>
      <trkpt lat="45.68735" lon="5.98811">
        <ele>1543</ele>
        <time>2012-02-09T12:36:38Z</time>
      </trkpt>
      <trkpt lat="45.68738" lon="5.98833">
        <ele>1541</ele>
        <time>2012-02-09T12:36:41Z</time>
      </trkpt>
      <trkpt lat="45.68747" lon="5.98862">
        <ele>1538</ele>
        <time>2012-02-09T12:36:43Z</time>
      </trkpt>
      <trkpt lat="45.68753" lon="5.98874">
        <ele>1536</ele>
        <time>2012-02-09T12:36:46Z</time>
      </trkpt>
      <trkpt lat="45.68762" lon="5.98891">
        <ele>1533</ele>
        <time>2012-02-09T12:36:48Z</time>
      </trkpt>
      <trkpt lat="45.68765" lon="5.98897">
        <ele>1531</ele>
        <time>2012-02-09T12:36:51Z</time>
      </trkpt>
      <trkpt lat="45.68769" lon="5.98907">
        <ele>1527</ele>
        <time>2012-02-09T12:36:53Z</time>
      </trkpt>
      <trkpt lat="45.6877" lon="5.98919">
        <ele>1525</ele>
        <time>2012-02-09T12:36:56Z</time>
      </trkpt>
      <trkpt lat="45.68779" lon="5.98935">
        <ele>1520</ele>
        <time>2012-02-09T12:36:58Z</time>
      </trkpt>
      <trkpt lat="45.68782" lon="5.98949">
        <ele>1517</ele>
        <time>2012-02-09T12:37:01Z</time>
      </trkpt>
      <trkpt lat="45.6879" lon="5.98968">
        <ele>1511</ele>
        <time>2012-02-09T12:37:03Z</time>
      </trkpt>
      <trkpt lat="45.68795" lon="5.98982">
        <ele>1507</ele>
        <time>2012-02-09T12:37:06Z</time>
      </trkpt>
      <trkpt lat="45.68804" lon="5.99">
        <ele>1501</ele>
        <time>2012-02-09T12:37:08Z</time>
      </trkpt>
      <trkpt lat="45.6881" lon="5.99013">
        <ele>1497</ele>
        <time>2012-02-09T12:37:11Z</time>
      </trkpt>
      <trkpt lat="45.68818" lon="5.99028">
        <ele>1491</ele>
        <time>2012-02-09T12:37:13Z</time>
      </trkpt>
      <trkpt lat="45.68823" lon="5.99041">
        <ele>1487</ele>
        <time>2012-02-09T12:37:16Z</time>
      </trkpt>
      <trkpt lat="45.6883" lon="5.9906">
        <ele>1480</ele>
        <time>2012-02-09T12:37:18Z</time>
      </trkpt>
      <trkpt lat="45.68838" lon="5.99072">
        <ele>1474</ele>
        <time>2012-02-09T12:37:21Z</time>
      </trkpt>
      <trkpt lat="45.6885" lon="5.99091">
        <ele>1466</ele>
        <time>2012-02-09T12:37:23Z</time>
      </trkpt>
      <trkpt lat="45.68854" lon="5.99102">
        <ele>1460</ele>
        <time>2012-02-09T12:37:26Z</time>
      </trkpt>
      <trkpt lat="45.6886" lon="5.9912">
        <ele>1453</ele>
        <time>2012-02-09T12:37:28Z</time>
      </trkpt>
      <trkpt lat="45.68865" lon="5.99134">
        <ele>1448</ele>
        <time>2012-02-09T12:37:31Z</time>
      </trkpt>
      <trkpt lat="45.68873" lon="5.99154">
        <ele>1441</ele>
        <time>2012-02-09T12:37:33Z</time>
      </trkpt>
      <trkpt lat="45.68879" lon="5.99169">
        <ele>1436</ele>
        <time>2012-02-09T12:37:36Z</time>
      </trkpt>
      <trkpt lat="45.68884" lon="5.99192">
        <ele>1429</ele>
        <time>2012-02-09T12:37:38Z</time>
      </trkpt>
      <trkpt lat="45.68892" lon="5.99202">
        <ele>1424</ele>
        <time>2012-02-09T12:37:41Z</time>
      </trkpt>
      <trkpt lat="45.68897" lon="5.99218">
        <ele>1418</ele>
        <time>2012-02-09T12:37:43Z</time>
      </trkpt>
      <trkpt lat="45.68902" lon="5.99229">
        <ele>1414</ele>
        <time>2012-02-09T12:37:46Z</time>
      </trkpt>
      <trkpt lat="45.68909" lon="5.99249">
        <ele>1408</ele>
        <time>2012-02-09T12:37:48Z</time>
      </trkpt>
      <trkpt lat="45.68916" lon="5.99266">
        <ele>1404</ele>
        <time>2012-02-09T12:37:51Z</time>
      </trkpt>
      <trkpt lat="45.68927" lon="5.99289">
        <ele>1398</ele>
        <time>2012-02-09T12:37:53Z</time>
      </trkpt>
      <trkpt lat="45.68932" lon="5.99307">
        <ele>1393</ele>
        <time>2012-02-09T12:37:56Z</time>
      </trkpt>
      <trkpt lat="45.6894" lon="5.99339">
        <ele>1386</ele>
        <time>2012-02-09T12:37:58Z</time>
      </trkpt>
      <trkpt lat="45.68946" lon="5.99362">
        <ele>1382</ele>
        <time>2012-02-09T12:38:01Z</time>
      </trkpt>
      <trkpt lat="45.68959" lon="5.99395">
        <ele>1374</ele>
        <time>2012-02-09T12:38:03Z</time>
      </trkpt>
      <trkpt lat="45.68966" lon="5.9941">
        <ele>1370</ele>
        <time>2012-02-09T12:38:06Z</time>
      </trkpt>
      <trkpt lat="45.68978" lon="5.99419">
        <ele>1364</ele>
        <time>2012-02-09T12:38:08Z</time>
      </trkpt>
      <trkpt lat="45.68989" lon="5.99417">
        <ele>1360</ele>
        <time>2012-02-09T12:38:11Z</time>
      </trkpt>
      <trkpt lat="45.68996" lon="5.99417">
        <ele>1354</ele>
        <time>2012-02-09T12:38:13Z</time>
      </trkpt>
      <trkpt lat="45.68998" lon="5.99415">
        <ele>1350</ele>
        <time>2012-02-09T12:38:16Z</time>
      </trkpt>
      <trkpt lat="45.68997" lon="5.99417">
        <ele>1346</ele>
        <time>2012-02-09T12:38:19Z</time>
      </trkpt>
      <trkpt lat="45.68996" lon="5.99418">
        <ele>1345</ele>
        <time>2012-02-09T12:38:21Z</time>
      </trkpt>
      <trkpt lat="45.68997" lon="5.9942">
        <ele>1345</ele>
        <time>2012-02-09T12:38:24Z</time>
      </trkpt>
      <trkpt lat="45.69" lon="5.99425">
        <ele>1345</ele>
        <time>2012-02-09T12:38:27Z</time>
      </trkpt>
      <trkpt lat="45.69003" lon="5.99427">
        <ele>1345</ele>
        <time>2012-02-09T12:38:31Z</time>
      </trkpt>
      <trkpt lat="45.69003" lon="5.99429">
        <ele>1345</ele>
        <time>2012-02-09T12:38:34Z</time>
      </trkpt>
      <trkpt lat="45.69004" lon="5.99431">
        <ele>1345</ele>
        <time>2012-02-09T12:38:36Z</time>
      </trkpt>
      <trkpt lat="45.69007" lon="5.99435">
        <ele>1345</ele>
        <time>2012-02-09T12:38:38Z</time>
      </trkpt>
      <trkpt lat="45.6901" lon="5.99438">
        <ele>1345</ele>
        <time>2012-02-09T12:38:41Z</time>
      </trkpt>
      <trkpt lat="45.6901" lon="5.9944">
        <ele>1345</ele>
        <time>2012-02-09T12:38:44Z</time>
      </trkpt>
      <trkpt lat="45.69011" lon="5.99442">
        <ele>1345</ele>
        <time>2012-02-09T12:38:46Z</time>
      </trkpt>
      <trkpt lat="45.69017" lon="5.99447">
        <ele>1345</ele>
        <time>2012-02-09T12:38:48Z</time>
      </trkpt>
      <trkpt lat="45.69024" lon="5.99455">
        <ele>1345</ele>
        <time>2012-02-09T12:38:51Z</time>
      </trkpt>
      <trkpt lat="45.69035" lon="5.99469">
        <ele>1345</ele>
        <time>2012-02-09T12:38:53Z</time>
      </trkpt>
      <trkpt lat="45.69041" lon="5.99479">
        <ele>1344</ele>
        <time>2012-02-09T12:38:56Z</time>
      </trkpt>
      <trkpt lat="45.69049" lon="5.99498">
        <ele>1343</ele>
        <time>2012-02-09T12:38:58Z</time>
      </trkpt>
      <trkpt lat="45.69056" lon="5.99511">
        <ele>1342</ele>
        <time>2012-02-09T12:39:01Z</time>
      </trkpt>
      <trkpt lat="45.69066" lon="5.9953">
        <ele>1340</ele>
        <time>2012-02-09T12:39:03Z</time>
      </trkpt>
      <trkpt lat="45.69072" lon="5.9954">
        <ele>1339</ele>
        <time>2012-02-09T12:39:06Z</time>
      </trkpt>
      <trkpt lat="45.6908" lon="5.99558">
        <ele>1336</ele>
        <time>2012-02-09T12:39:08Z</time>
      </trkpt>
      <trkpt lat="45.69083" lon="5.99566">
        <ele>1335</ele>
        <time>2012-02-09T12:39:11Z</time>
      </trkpt>
      <trkpt lat="45.69086" lon="5.99575">
        <ele>1333</ele>
        <time>2012-02-09T12:39:13Z</time>
      </trkpt>
      <trkpt lat="45.69086" lon="5.9958">
        <ele>1333</ele>
        <time>2012-02-09T12:39:16Z</time>
      </trkpt>
      <trkpt lat="45.69088" lon="5.99589">
        <ele>1331</ele>
        <time>2012-02-09T12:39:18Z</time>
      </trkpt>
      <trkpt lat="45.6909" lon="5.99598">
        <ele>1329</ele>
        <time>2012-02-09T12:39:21Z</time>
      </trkpt>
      <trkpt lat="45.69095" lon="5.99611">
        <ele>1326</ele>
        <time>2012-02-09T12:39:23Z</time>
      </trkpt>
      <trkpt lat="45.69099" lon="5.9962">
        <ele>1324</ele>
        <time>2012-02-09T12:39:26Z</time>
      </trkpt>
      <trkpt lat="45.69103" lon="5.99631">
        <ele>1321</ele>
        <time>2012-02-09T12:39:28Z</time>
      </trkpt>
      <trkpt lat="45.69106" lon="5.99637">
        <ele>1320</ele>
        <time>2012-02-09T12:39:31Z</time>
      </trkpt>
      <trkpt lat="45.69112" lon="5.99651">
        <ele>1318</ele>
        <time>2012-02-09T12:39:33Z</time>
      </trkpt>
      <trkpt lat="45.69117" lon="5.99656">
        <ele>1316</ele>
        <time>2012-02-09T12:39:36Z</time>
      </trkpt>
      <trkpt lat="45.69123" lon="5.99665">
        <ele>1314</ele>
        <time>2012-02-09T12:39:38Z</time>
      </trkpt>
      <trkpt lat="45.69126" lon="5.99677">
        <ele>1312</ele>
        <time>2012-02-09T12:39:41Z</time>
      </trkpt>
      <trkpt lat="45.69131" lon="5.99697">
        <ele>1310</ele>
        <time>2012-02-09T12:39:43Z</time>
      </trkpt>
      <trkpt lat="45.69136" lon="5.99714">
        <ele>1308</ele>
        <time>2012-02-09T12:39:46Z</time>
      </trkpt>
      <trkpt lat="45.69141" lon="5.99732">
        <ele>1306</ele>
        <time>2012-02-09T12:39:48Z</time>
      </trkpt>
      <trkpt lat="45.69144" lon="5.99746">
        <ele>1304</ele>
        <time>2012-02-09T12:39:51Z</time>
      </trkpt>
      <trkpt lat="45.6915" lon="5.99768">
        <ele>1301</ele>
        <time>2012-02-09T12:39:53Z</time>
      </trkpt>
      <trkpt lat="45.69156" lon="5.9978">
        <ele>1299</ele>
        <time>2012-02-09T12:39:56Z</time>
      </trkpt>
      <trkpt lat="45.69163" lon="5.99799">
        <ele>1296</ele>
        <time>2012-02-09T12:39:58Z</time>
      </trkpt>
      <trkpt lat="45.6917" lon="5.9981">
        <ele>1294</ele>
        <time>2012-02-09T12:40:01Z</time>
      </trkpt>
      <trkpt lat="45.69181" lon="5.9983">
        <ele>1291</ele>
        <time>2012-02-09T12:40:03Z</time>
      </trkpt>
      <trkpt lat="45.69187" lon="5.99845">
        <ele>1289</ele>
        <time>2012-02-09T12:40:06Z</time>
      </trkpt>
      <trkpt lat="45.69196" lon="5.99869">
        <ele>1286</ele>
        <time>2012-02-09T12:40:08Z</time>
      </trkpt>
      <trkpt lat="45.69205" lon="5.99885">
        <ele>1284</ele>
        <time>2012-02-09T12:40:11Z</time>
      </trkpt>
      <trkpt lat="45.69219" lon="5.99909">
        <ele>1281</ele>
        <time>2012-02-09T12:40:13Z</time>
      </trkpt>
      <trkpt lat="45.69228" lon="5.99921">
        <ele>1279</ele>
        <time>2012-02-09T12:40:16Z</time>
      </trkpt>
      <trkpt lat="45.69235" lon="5.99932">
        <ele>1278</ele>
        <time>2012-02-09T12:40:18Z</time>
      </trkpt>
      <trkpt lat="45.69239" lon="5.99936">
        <ele>1277</ele>
        <time>2012-02-09T12:40:21Z</time>
      </trkpt>
      <trkpt lat="45.69242" lon="5.99943">
        <ele>1277</ele>
        <time>2012-02-09T12:40:23Z</time>
      </trkpt>
      <trkpt lat="45.69243" lon="5.99946">
        <ele>1277</ele>
        <time>2012-02-09T12:40:26Z</time>
      </trkpt>
      <trkpt lat="45.69243" lon="5.99944">
        <ele>1274</ele>
        <time>2012-02-09T12:40:48Z</time>
      </trkpt>
      <trkpt lat="45.69244" lon="5.99945">
        <ele>1274</ele>
        <time>2012-02-09T12:40:52Z</time>
      </trkpt>
      <trkpt lat="45.69246" lon="5.99948">
        <ele>1274</ele>
        <time>2012-02-09T12:40:54Z</time>
      </trkpt>
      <trkpt lat="45.69248" lon="5.99952">
        <ele>1274</ele>
        <time>2012-02-09T12:40:57Z</time>
      </trkpt>
      <trkpt lat="45.6925" lon="5.99954">
        <ele>1274</ele>
        <time>2012-02-09T12:40:59Z</time>
      </trkpt>
      <trkpt lat="45.69252" lon="5.99956">
        <ele>1274</ele>
        <time>2012-02-09T12:41:01Z</time>
      </trkpt>
      <trkpt lat="45.69253" lon="5.99957">
        <ele>1273</ele>
        <time>2012-02-09T12:41:03Z</time>
      </trkpt>
      <trkpt lat="45.69255" lon="5.99959">
        <ele>1273</ele>
        <time>2012-02-09T12:41:06Z</time>
      </trkpt>
      <trkpt lat="45.69258" lon="5.99961">
        <ele>1273</ele>
        <time>2012-02-09T12:41:09Z</time>
      </trkpt>
      <trkpt lat="45.6926" lon="5.99961">
        <ele>1272</ele>
        <time>2012-02-09T12:41:11Z</time>
      </trkpt>
      <trkpt lat="45.69262" lon="5.99962">
        <ele>1272</ele>
        <time>2012-02-09T12:41:13Z</time>
      </trkpt>
      <trkpt lat="45.69263" lon="5.99963">
        <ele>1272</ele>
        <time>2012-02-09T12:41:16Z</time>
      </trkpt>
      <trkpt lat="45.69267" lon="5.99964">
        <ele>1271</ele>
        <time>2012-02-09T12:41:19Z</time>
      </trkpt>
      <trkpt lat="45.69268" lon="5.99964">
        <ele>1271</ele>
        <time>2012-02-09T12:41:21Z</time>
      </trkpt>
      <trkpt lat="45.6927" lon="5.99964">
        <ele>1271</ele>
        <time>2012-02-09T12:41:24Z</time>
      </trkpt>
      <trkpt lat="45.69271" lon="5.99965">
        <ele>1271</ele>
        <time>2012-02-09T12:41:27Z</time>
      </trkpt>
      <trkpt lat="45.69272" lon="5.99966">
        <ele>1271</ele>
        <time>2012-02-09T12:41:29Z</time>
      </trkpt>
      <trkpt lat="45.69274" lon="5.99967">
        <ele>1271</ele>
        <time>2012-02-09T12:41:31Z</time>
      </trkpt>
      <trkpt lat="45.69275" lon="5.99968">
        <ele>1271</ele>
        <time>2012-02-09T12:41:34Z</time>
      </trkpt>
      <trkpt lat="45.69277" lon="5.9997">
        <ele>1271</ele>
        <time>2012-02-09T12:41:37Z</time>
      </trkpt>
      <trkpt lat="45.69278" lon="5.99971">
        <ele>1271</ele>
        <time>2012-02-09T12:41:39Z</time>
      </trkpt>
      <trkpt lat="45.69279" lon="5.99972">
        <ele>1271</ele>
        <time>2012-02-09T12:41:41Z</time>
      </trkpt>
      <trkpt lat="45.69281" lon="5.99973">
        <ele>1271</ele>
        <time>2012-02-09T12:41:43Z</time>
      </trkpt>
      <trkpt lat="45.69282" lon="5.99975">
        <ele>1271</ele>
        <time>2012-02-09T12:41:46Z</time>
      </trkpt>
      <trkpt lat="45.69284" lon="5.99979">
        <ele>1271</ele>
        <time>2012-02-09T12:41:49Z</time>
      </trkpt>
      <trkpt lat="45.69285" lon="5.99982">
        <ele>1271</ele>
        <time>2012-02-09T12:41:52Z</time>
      </trkpt>
      <trkpt lat="45.69287" lon="5.99984">
        <ele>1271</ele>
        <time>2012-02-09T12:41:56Z</time>
      </trkpt>
      <trkpt lat="45.69288" lon="5.99989">
        <ele>1271</ele>
        <time>2012-02-09T12:41:59Z</time>
      </trkpt>
      <trkpt lat="45.69289" lon="5.9999">
        <ele>1271</ele>
        <time>2012-02-09T12:42:01Z</time>
      </trkpt>
      <trkpt lat="45.69291" lon="5.99991">
        <ele>1271</ele>
        <time>2012-02-09T12:42:06Z</time>
      </trkpt>
      <trkpt lat="45.69292" lon="5.99993">
        <ele>1271</ele>
        <time>2012-02-09T12:42:08Z</time>
      </trkpt>
      <trkpt lat="45.69292" lon="5.99997">
        <ele>1271</ele>
        <time>2012-02-09T12:42:11Z</time>
      </trkpt>
      <trkpt lat="45.69294" lon="6.00001">
        <ele>1272</ele>
        <time>2012-02-09T12:42:14Z</time>
      </trkpt>
      <trkpt lat="45.69295" lon="6.00003">
        <ele>1272</ele>
        <time>2012-02-09T12:42:16Z</time>
      </trkpt>
      <trkpt lat="45.69297" lon="6.00004">
        <ele>1272</ele>
        <time>2012-02-09T12:42:18Z</time>
      </trkpt>
      <trkpt lat="45.69298" lon="6.00005">
        <ele>1272</ele>
        <time>2012-02-09T12:42:21Z</time>
      </trkpt>
      <trkpt lat="45.69301" lon="6.00008">
        <ele>1272</ele>
        <time>2012-02-09T12:42:24Z</time>
      </trkpt>
      <trkpt lat="45.69302" lon="6.0001">
        <ele>1272</ele>
        <time>2012-02-09T12:42:26Z</time>
      </trkpt>
      <trkpt lat="45.69304" lon="6.00011">
        <ele>1272</ele>
        <time>2012-02-09T12:42:28Z</time>
      </trkpt>
      <trkpt lat="45.69306" lon="6.00013">
        <ele>1272</ele>
        <time>2012-02-09T12:42:31Z</time>
      </trkpt>
      <trkpt lat="45.69307" lon="6.00014">
        <ele>1272</ele>
        <time>2012-02-09T12:42:33Z</time>
      </trkpt>
      <trkpt lat="45.69309" lon="6.00016">
        <ele>1272</ele>
        <time>2012-02-09T12:42:36Z</time>
      </trkpt>
      <trkpt lat="45.6931" lon="6.0002">
        <ele>1273</ele>
        <time>2012-02-09T12:42:38Z</time>
      </trkpt>
      <trkpt lat="45.69312" lon="6.00021">
        <ele>1273</ele>
        <time>2012-02-09T12:42:41Z</time>
      </trkpt>
      <trkpt lat="45.69314" lon="6.00025">
        <ele>1274</ele>
        <time>2012-02-09T12:42:44Z</time>
      </trkpt>
      <trkpt lat="45.69315" lon="6.00029">
        <ele>1275</ele>
        <time>2012-02-09T12:42:47Z</time>
      </trkpt>
      <trkpt lat="45.69316" lon="6.00031">
        <ele>1276</ele>
        <time>2012-02-09T12:42:49Z</time>
      </trkpt>
      <trkpt lat="45.69317" lon="6.00033">
        <ele>1276</ele>
        <time>2012-02-09T12:42:51Z</time>
      </trkpt>
      <trkpt lat="45.69318" lon="6.00035">
        <ele>1276</ele>
        <time>2012-02-09T12:42:53Z</time>
      </trkpt>
      <trkpt lat="45.69319" lon="6.00036">
        <ele>1276</ele>
        <time>2012-02-09T12:42:56Z</time>
      </trkpt>
      <trkpt lat="45.69321" lon="6.0004">
        <ele>1276</ele>
        <time>2012-02-09T12:42:59Z</time>
      </trkpt>
      <trkpt lat="45.69322" lon="6.00042">
        <ele>1276</ele>
        <time>2012-02-09T12:43:01Z</time>
      </trkpt>
      <trkpt lat="45.69323" lon="6.00044">
        <ele>1276</ele>
        <time>2012-02-09T12:43:03Z</time>
      </trkpt>
      <trkpt lat="45.69325" lon="6.00046">
        <ele>1276</ele>
        <time>2012-02-09T12:43:06Z</time>
      </trkpt>
      <trkpt lat="45.69326" lon="6.00048">
        <ele>1276</ele>
        <time>2012-02-09T12:43:08Z</time>
      </trkpt>
      <trkpt lat="45.69328" lon="6.0005">
        <ele>1276</ele>
        <time>2012-02-09T12:43:11Z</time>
      </trkpt>
      <trkpt lat="45.69329" lon="6.00051">
        <ele>1276</ele>
        <time>2012-02-09T12:43:13Z</time>
      </trkpt>
      <trkpt lat="45.6933" lon="6.00054">
        <ele>1276</ele>
        <time>2012-02-09T12:43:16Z</time>
      </trkpt>
      <trkpt lat="45.69332" lon="6.00058">
        <ele>1276</ele>
        <time>2012-02-09T12:43:21Z</time>
      </trkpt>
      <trkpt lat="45.69334" lon="6.00061">
        <ele>1276</ele>
        <time>2012-02-09T12:43:24Z</time>
      </trkpt>
      <trkpt lat="45.69336" lon="6.00062">
        <ele>1276</ele>
        <time>2012-02-09T12:43:26Z</time>
      </trkpt>
      <trkpt lat="45.69336" lon="6.00065">
        <ele>1276</ele>
        <time>2012-02-09T12:43:28Z</time>
      </trkpt>
      <trkpt lat="45.69338" lon="6.00066">
        <ele>1276</ele>
        <time>2012-02-09T12:43:31Z</time>
      </trkpt>
      <trkpt lat="45.69341" lon="6.00071">
        <ele>1276</ele>
        <time>2012-02-09T12:43:34Z</time>
      </trkpt>
      <trkpt lat="45.69342" lon="6.00073">
        <ele>1276</ele>
        <time>2012-02-09T12:43:36Z</time>
      </trkpt>
      <trkpt lat="45.69344" lon="6.00075">
        <ele>1276</ele>
        <time>2012-02-09T12:43:38Z</time>
      </trkpt>
      <trkpt lat="45.69345" lon="6.00077">
        <ele>1276</ele>
        <time>2012-02-09T12:43:41Z</time>
      </trkpt>
      <trkpt lat="45.69349" lon="6.0008">
        <ele>1276</ele>
        <time>2012-02-09T12:43:45Z</time>
      </trkpt>
      <trkpt lat="45.6935" lon="6.00084">
        <ele>1276</ele>
        <time>2012-02-09T12:43:48Z</time>
      </trkpt>
      <trkpt lat="45.69352" lon="6.00086">
        <ele>1276</ele>
        <time>2012-02-09T12:43:51Z</time>
      </trkpt>
      <trkpt lat="45.69354" lon="6.0009">
        <ele>1276</ele>
        <time>2012-02-09T12:43:54Z</time>
      </trkpt>
      <trkpt lat="45.69355" lon="6.00092">
        <ele>1276</ele>
        <time>2012-02-09T12:43:56Z</time>
      </trkpt>
      <trkpt lat="45.69356" lon="6.00093">
        <ele>1276</ele>
        <time>2012-02-09T12:43:58Z</time>
      </trkpt>
      <trkpt lat="45.69357" lon="6.00096">
        <ele>1277</ele>
        <time>2012-02-09T12:44:01Z</time>
      </trkpt>
      <trkpt lat="45.69358" lon="6.00098">
        <ele>1277</ele>
        <time>2012-02-09T12:44:03Z</time>
      </trkpt>
      <trkpt lat="45.6936" lon="6.00102">
        <ele>1277</ele>
        <time>2012-02-09T12:44:06Z</time>
      </trkpt>
      <trkpt lat="45.69361" lon="6.00104">
        <ele>1278</ele>
        <time>2012-02-09T12:44:08Z</time>
      </trkpt>
      <trkpt lat="45.69361" lon="6.00105">
        <ele>1278</ele>
        <time>2012-02-09T12:44:11Z</time>
      </trkpt>
      <trkpt lat="45.69363" lon="6.00109">
        <ele>1278</ele>
        <time>2012-02-09T12:44:15Z</time>
      </trkpt>
      <trkpt lat="45.69364" lon="6.00112">
        <ele>1278</ele>
        <time>2012-02-09T12:44:18Z</time>
      </trkpt>
      <trkpt lat="45.69365" lon="6.00114">
        <ele>1279</ele>
        <time>2012-02-09T12:44:21Z</time>
      </trkpt>
      <trkpt lat="45.69366" lon="6.00116">
        <ele>1279</ele>
        <time>2012-02-09T12:44:23Z</time>
      </trkpt>
      <trkpt lat="45.69366" lon="6.00117">
        <ele>1279</ele>
        <time>2012-02-09T12:44:26Z</time>
      </trkpt>
      <trkpt lat="45.69367" lon="6.00119">
        <ele>1280</ele>
        <time>2012-02-09T12:44:28Z</time>
      </trkpt>
      <trkpt lat="45.69368" lon="6.00121">
        <ele>1280</ele>
        <time>2012-02-09T12:44:31Z</time>
      </trkpt>
      <trkpt lat="45.69369" lon="6.00123">
        <ele>1280</ele>
        <time>2012-02-09T12:44:33Z</time>
      </trkpt>
      <trkpt lat="45.6937" lon="6.00124">
        <ele>1281</ele>
        <time>2012-02-09T12:44:36Z</time>
      </trkpt>
      <trkpt lat="45.69372" lon="6.00128">
        <ele>1281</ele>
        <time>2012-02-09T12:44:41Z</time>
      </trkpt>
      <trkpt lat="45.69373" lon="6.0013">
        <ele>1281</ele>
        <time>2012-02-09T12:44:47Z</time>
      </trkpt>
      <trkpt lat="45.69374" lon="6.00132">
        <ele>1281</ele>
        <time>2012-02-09T12:44:49Z</time>
      </trkpt>
      <trkpt lat="45.69375" lon="6.00134">
        <ele>1281</ele>
        <time>2012-02-09T12:44:52Z</time>
      </trkpt>
      <trkpt lat="45.69376" lon="6.00136">
        <ele>1281</ele>
        <time>2012-02-09T12:44:56Z</time>
      </trkpt>
      <trkpt lat="45.69377" lon="6.00137">
        <ele>1281</ele>
        <time>2012-02-09T12:44:58Z</time>
      </trkpt>
      <trkpt lat="45.69379" lon="6.0014">
        <ele>1282</ele>
        <time>2012-02-09T12:45:01Z</time>
      </trkpt>
      <trkpt lat="45.6938" lon="6.00141">
        <ele>1282</ele>
        <time>2012-02-09T12:45:03Z</time>
      </trkpt>
      <trkpt lat="45.69381" lon="6.00142">
        <ele>1282</ele>
        <time>2012-02-09T12:45:06Z</time>
      </trkpt>
      <trkpt lat="45.69383" lon="6.00143">
        <ele>1283</ele>
        <time>2012-02-09T12:45:11Z</time>
      </trkpt>
      <trkpt lat="45.69384" lon="6.00144">
        <ele>1283</ele>
        <time>2012-02-09T12:45:13Z</time>
      </trkpt>
      <trkpt lat="45.69386" lon="6.00145">
        <ele>1283</ele>
        <time>2012-02-09T12:45:16Z</time>
      </trkpt>
      <trkpt lat="45.69387" lon="6.00146">
        <ele>1283</ele>
        <time>2012-02-09T12:45:19Z</time>
      </trkpt>
      <trkpt lat="45.69388" lon="6.00147">
        <ele>1283</ele>
        <time>2012-02-09T12:45:22Z</time>
      </trkpt>
      <trkpt lat="45.6939" lon="6.00148">
        <ele>1283</ele>
        <time>2012-02-09T12:45:24Z</time>
      </trkpt>
      <trkpt lat="45.69391" lon="6.00148">
        <ele>1283</ele>
        <time>2012-02-09T12:45:27Z</time>
      </trkpt>
      <trkpt lat="45.69393" lon="6.00149">
        <ele>1284</ele>
        <time>2012-02-09T12:45:29Z</time>
      </trkpt>
      <trkpt lat="45.69394" lon="6.00149">
        <ele>1284</ele>
        <time>2012-02-09T12:45:31Z</time>
      </trkpt>
      <trkpt lat="45.69396" lon="6.0015">
        <ele>1284</ele>
        <time>2012-02-09T12:45:34Z</time>
      </trkpt>
      <trkpt lat="45.69397" lon="6.00151">
        <ele>1284</ele>
        <time>2012-02-09T12:45:37Z</time>
      </trkpt>
      <trkpt lat="45.69398" lon="6.00152">
        <ele>1284</ele>
        <time>2012-02-09T12:45:39Z</time>
      </trkpt>
      <trkpt lat="45.69398" lon="6.00153">
        <ele>1285</ele>
        <time>2012-02-09T12:46:05Z</time>
      </trkpt>
      <trkpt lat="45.69399" lon="6.00153">
        <ele>1286</ele>
        <time>2012-02-09T12:46:41Z</time>
      </trkpt>
      <trkpt lat="45.69398" lon="6.00154">
        <ele>1287</ele>
        <time>2012-02-09T12:47:01Z</time>
      </trkpt>
      <trkpt lat="45.69398" lon="6.00152">
        <ele>1288</ele>
        <time>2012-02-09T12:47:16Z</time>
      </trkpt>
      <trkpt lat="45.69399" lon="6.00154">
        <ele>1288</ele>
        <time>2012-02-09T12:47:33Z</time>
      </trkpt>
      <trkpt lat="45.69398" lon="6.00155">
        <ele>1291</ele>
        <time>2012-02-09T12:48:13Z</time>
      </trkpt>
      <trkpt lat="45.69397" lon="6.00161">
        <ele>1291</ele>
        <time>2012-02-09T12:48:15Z</time>
      </trkpt>
      <trkpt lat="45.69396" lon="6.00172">
        <ele>1291</ele>
        <time>2012-02-09T12:48:17Z</time>
      </trkpt>
      <trkpt lat="45.69395" lon="6.00186">
        <ele>1291</ele>
        <time>2012-02-09T12:48:19Z</time>
      </trkpt>
      <trkpt lat="45.69393" lon="6.00201">
        <ele>1290</ele>
        <time>2012-02-09T12:48:21Z</time>
      </trkpt>
      <trkpt lat="45.69391" lon="6.00215">
        <ele>1288</ele>
        <time>2012-02-09T12:48:23Z</time>
      </trkpt>
      <trkpt lat="45.6939" lon="6.00228">
        <ele>1286</ele>
        <time>2012-02-09T12:48:25Z</time>
      </trkpt>
      <trkpt lat="45.6939" lon="6.00239">
        <ele>1284</ele>
        <time>2012-02-09T12:48:27Z</time>
      </trkpt>
      <trkpt lat="45.6939" lon="6.00251">
        <ele>1283</ele>
        <time>2012-02-09T12:48:29Z</time>
      </trkpt>
      <trkpt lat="45.6939" lon="6.00263">
        <ele>1281</ele>
        <time>2012-02-09T12:48:31Z</time>
      </trkpt>
      <trkpt lat="45.69389" lon="6.00278">
        <ele>1279</ele>
        <time>2012-02-09T12:48:33Z</time>
      </trkpt>
      <trkpt lat="45.69387" lon="6.00294">
        <ele>1277</ele>
        <time>2012-02-09T12:48:35Z</time>
      </trkpt>
      <trkpt lat="45.69387" lon="6.00309">
        <ele>1275</ele>
        <time>2012-02-09T12:48:37Z</time>
      </trkpt>
      <trkpt lat="45.6939" lon="6.00322">
        <ele>1273</ele>
        <time>2012-02-09T12:48:39Z</time>
      </trkpt>
      <trkpt lat="45.69393" lon="6.00331">
        <ele>1271</ele>
        <time>2012-02-09T12:48:41Z</time>
      </trkpt>
      <trkpt lat="45.69395" lon="6.00337">
        <ele>1269</ele>
        <time>2012-02-09T12:48:43Z</time>
      </trkpt>
      <trkpt lat="45.69397" lon="6.00341">
        <ele>1266</ele>
        <time>2012-02-09T12:48:46Z</time>
      </trkpt>
      <trkpt lat="45.69399" lon="6.00345">
        <ele>1265</ele>
        <time>2012-02-09T12:48:49Z</time>
      </trkpt>
      <trkpt lat="45.694" lon="6.00347">
        <ele>1265</ele>
        <time>2012-02-09T12:49:00Z</time>
      </trkpt>
      <trkpt lat="45.69399" lon="6.00355">
        <ele>1264</ele>
        <time>2012-02-09T12:49:03Z</time>
      </trkpt>
      <trkpt lat="45.69395" lon="6.0037">
        <ele>1263</ele>
        <time>2012-02-09T12:49:06Z</time>
      </trkpt>
      <trkpt lat="45.69388" lon="6.00385">
        <ele>1260</ele>
        <time>2012-02-09T12:49:09Z</time>
      </trkpt>
      <trkpt lat="45.69387" lon="6.00401">
        <ele>1258</ele>
        <time>2012-02-09T12:49:11Z</time>
      </trkpt>
      <trkpt lat="45.69387" lon="6.00413">
        <ele>1256</ele>
        <time>2012-02-09T12:49:13Z</time>
      </trkpt>
      <trkpt lat="45.69386" lon="6.00418">
        <ele>1254</ele>
        <time>2012-02-09T12:49:15Z</time>
      </trkpt>
      <trkpt lat="45.69384" lon="6.00427">
        <ele>1252</ele>
        <time>2012-02-09T12:49:17Z</time>
      </trkpt>
      <trkpt lat="45.69386" lon="6.00437">
        <ele>1250</ele>
        <time>2012-02-09T12:49:19Z</time>
      </trkpt>
      <trkpt lat="45.69388" lon="6.00445">
        <ele>1248</ele>
        <time>2012-02-09T12:49:21Z</time>
      </trkpt>
      <trkpt lat="45.69391" lon="6.00451">
        <ele>1246</ele>
        <time>2012-02-09T12:49:23Z</time>
      </trkpt>
      <trkpt lat="45.69394" lon="6.00459">
        <ele>1244</ele>
        <time>2012-02-09T12:49:25Z</time>
      </trkpt>
      <trkpt lat="45.69396" lon="6.00464">
        <ele>1242</ele>
        <time>2012-02-09T12:49:27Z</time>
      </trkpt>
      <trkpt lat="45.69397" lon="6.00468">
        <ele>1240</ele>
        <time>2012-02-09T12:49:29Z</time>
      </trkpt>
      <trkpt lat="45.69398" lon="6.00472">
        <ele>1238</ele>
        <time>2012-02-09T12:49:31Z</time>
      </trkpt>
      <trkpt lat="45.69398" lon="6.00476">
        <ele>1237</ele>
        <time>2012-02-09T12:49:34Z</time>
      </trkpt>
      <trkpt lat="45.69398" lon="6.00474">
        <ele>1236</ele>
        <time>2012-02-09T12:49:50Z</time>
      </trkpt>
      <trkpt lat="45.69397" lon="6.00473">
        <ele>1236</ele>
        <time>2012-02-09T12:49:54Z</time>
      </trkpt>
      <trkpt lat="45.69396" lon="6.00471">
        <ele>1236</ele>
        <time>2012-02-09T12:49:56Z</time>
      </trkpt>
      <trkpt lat="45.69393" lon="6.00469">
        <ele>1236</ele>
        <time>2012-02-09T12:49:58Z</time>
      </trkpt>
      <trkpt lat="45.69391" lon="6.0047">
        <ele>1236</ele>
        <time>2012-02-09T12:50:01Z</time>
      </trkpt>
      <trkpt lat="45.6939" lon="6.00472">
        <ele>1235</ele>
        <time>2012-02-09T12:50:03Z</time>
      </trkpt>
      <trkpt lat="45.6939" lon="6.00475">
        <ele>1235</ele>
        <time>2012-02-09T12:50:05Z</time>
      </trkpt>
      <trkpt lat="45.6939" lon="6.00478">
        <ele>1234</ele>
        <time>2012-02-09T12:50:07Z</time>
      </trkpt>
      <trkpt lat="45.69391" lon="6.00482">
        <ele>1234</ele>
        <time>2012-02-09T12:50:09Z</time>
      </trkpt>
      <trkpt lat="45.69392" lon="6.00486">
        <ele>1233</ele>
        <time>2012-02-09T12:50:11Z</time>
      </trkpt>
      <trkpt lat="45.69394" lon="6.0049">
        <ele>1233</ele>
        <time>2012-02-09T12:50:13Z</time>
      </trkpt>
      <trkpt lat="45.69395" lon="6.00494">
        <ele>1232</ele>
        <time>2012-02-09T12:50:15Z</time>
      </trkpt>
      <trkpt lat="45.69396" lon="6.00498">
        <ele>1232</ele>
        <time>2012-02-09T12:50:17Z</time>
      </trkpt>
      <trkpt lat="45.69397" lon="6.00502">
        <ele>1232</ele>
        <time>2012-02-09T12:50:19Z</time>
      </trkpt>
      <trkpt lat="45.69398" lon="6.00506">
        <ele>1232</ele>
        <time>2012-02-09T12:50:21Z</time>
      </trkpt>
      <trkpt lat="45.69397" lon="6.00511">
        <ele>1232</ele>
        <time>2012-02-09T12:50:23Z</time>
      </trkpt>
      <trkpt lat="45.69398" lon="6.00515">
        <ele>1231</ele>
        <time>2012-02-09T12:50:25Z</time>
      </trkpt>
      <trkpt lat="45.69398" lon="6.00519">
        <ele>1231</ele>
        <time>2012-02-09T12:50:27Z</time>
      </trkpt>
      <trkpt lat="45.69399" lon="6.00523">
        <ele>1231</ele>
        <time>2012-02-09T12:50:29Z</time>
      </trkpt>
      <trkpt lat="45.694" lon="6.00527">
        <ele>1230</ele>
        <time>2012-02-09T12:50:31Z</time>
      </trkpt>
      <trkpt lat="45.694" lon="6.00531">
        <ele>1230</ele>
        <time>2012-02-09T12:50:33Z</time>
      </trkpt>
      <trkpt lat="45.69401" lon="6.00535">
        <ele>1229</ele>
        <time>2012-02-09T12:50:35Z</time>
      </trkpt>
      <trkpt lat="45.69401" lon="6.00539">
        <ele>1228</ele>
        <time>2012-02-09T12:50:38Z</time>
      </trkpt>
      <trkpt lat="45.694" lon="6.0054">
        <ele>1228</ele>
        <time>2012-02-09T12:50:41Z</time>
      </trkpt>
      <trkpt lat="45.69399" lon="6.0054">
        <ele>1228</ele>
        <time>2012-02-09T12:50:53Z</time>
      </trkpt>
      <trkpt lat="45.69398" lon="6.0054">
        <ele>1228</ele>
        <time>2012-02-09T12:51:03Z</time>
      </trkpt>
    </trkseg>
  </trk>
</gpx>